ftp/pub/palmer/observations_modified/2019/June/AR190412_BASE.txt

Download

Sample DateTime	Unit Id	WS Avg 2min	WD Avg 2min	WGS 10min	WGD 10min	Air Temp	Rel Humidity	Dew Point	Pyranometer	Quantum	Air Pressure	Snow Level	Rainfall	PW Current	Visibility	CBase 1	CBase 2	CBase 3	Vert Vis
2019/04/12 00:00:00	BASE	16.31	300	19.24	303	-0.1	99	-0.2	0	0	980.2	NA	0.0000		9999	3180	0	0	0
2019/04/12 00:01:00	BASE	16.49	299	19.24	303	-0.0	98	-0.3	0	0	980.2	NA	0.0000		9999	3350	0	0	0
2019/04/12 00:02:00	BASE	14.98	303	19.24	303	0.0	97	-0.4	0	0	980.2	NA	0.0000		9999	3120	0	0	0
2019/04/12 00:03:00	BASE	14.75	305	19.24	303	0.1	96	-0.6	0	0	980.2	NA	0.0000		9999	3310	0	0	0
2019/04/12 00:04:00	BASE	16.60	305	19.24	303	0.1	94	-0.7	0	0	980.1	NA	0.0000		9999	3710	0	0	0
2019/04/12 00:05:00	BASE	17.35	308	19.24	303	0.1	94	-0.8	0	0	980.1	NA	0.0000		9999	720	3710	0	0
2019/04/12 00:06:00	BASE	17.90	310	20.37	308	0.1	93	-0.8	0	0	980.1	NA	0.0000		9999	1710	4630	0	0
2019/04/12 00:07:00	BASE	18.25	309	20.37	308	0.1	93	-0.9	0	0	980.1	NA	0.0000		9999	3020	0	0	0
2019/04/12 00:08:00	BASE	17.23	312	20.37	308	0.1	93	-0.9	0	0	980.1	NA	0.0000		9999	4070	0	0	0
2019/04/12 00:09:00	BASE	17.76	312	20.83	309	0.1	93	-1.0	0	0	980.1	NA	0.0000		9999	3900	0	0	0
2019/04/12 00:10:00	BASE	18.39	309	20.83	309	0.1	92	-1.0	0	0	980.1	NA	0.0000		9999	3740	0	0	0
2019/04/12 00:11:00	BASE	17.13	310	20.83	309	0.1	92	-1.0	0	0	980.2	NA	0.0000		9999	2200	0	0	0
2019/04/12 00:12:00	BASE	16.51	317	20.83	309	0.1	92	-1.0	0	0	980.2	NA	0.0000		9999	2300	0	0	0
2019/04/12 00:13:00	BASE	16.41	318	20.83	309	0.1	93	-1.0	0	0	980.3	NA	0.0000		9999	0	0	0	4130
2019/04/12 00:14:00	BASE	16.37	317	20.83	309	0.1	93	-0.9	0	0	980.2	NA	0.0000		9999	3350	0	0	0
2019/04/12 00:15:00	BASE	16.95	315	20.83	309	0.0	94	-0.8	0	0	980.2	NA	0.0000		9999	2460	3540	0	0
2019/04/12 00:16:00	BASE	16.86	314	20.83	309	-0.0	95	-0.7	0	0	980.3	NA	0.0000		9999	620	3180	0	0
2019/04/12 00:17:00	BASE	16.72	313	20.83	309	-0.1	96	-0.7	0	0	980.3	NA	0.0000		9999	2690	0	0	0
2019/04/12 00:18:00	BASE	15.99	313	20.83	309	-0.1	97	-0.6	0	0	980.3	NA	0.0000		9999	3310	0	0	0
2019/04/12 00:19:00	BASE	15.57	315	20.78	305	-0.2	97	-0.5	0	0	980.3	NA	0.0000		9999	890	2920	0	0
2019/04/12 00:20:00	BASE	15.74	318	19.03	317	-0.2	98	-0.5	0	0	980.3	NA	0.0000		9999	520	0	0	0
2019/04/12 00:21:00	BASE	15.19	316	19.03	317	-0.2	99	-0.4	0	0	980.4	NA	0.0000		9999	3250	4000	0	0
2019/04/12 00:22:00	BASE	13.75	317	19.03	317	-0.2	99	-0.3	0	0	980.4	NA	0.0000		9999	0	0	0	4630
2019/04/12 00:23:00	BASE	12.42	320	19.03	317	-0.2	100	-0.2	0	0	980.4	NA	0.0000		9999	3610	0	0	0
2019/04/12 00:24:00	BASE	12.32	321	19.03	317	-0.2	100	-0.2	0	0	980.4	NA	0.0000		9999	3710	0	0	0
2019/04/12 00:25:00	BASE	12.57	321	18.78	310	-0.2	100	-0.2	0	0	980.4	NA	0.0000		9999	2560	0	0	0
2019/04/12 00:26:00	BASE	12.39	322	16.98	315	-0.2	100	-0.2	0	0	980.4	NA	0.0000		9999	3280	0	0	0
2019/04/12 00:27:00	BASE	12.17	324	16.87	317	-0.2	100	-0.2	0	0	980.4	NA	0.0000		9999	3970	0	0	0
2019/04/12 00:28:00	BASE	12.51	324	16.87	317	-0.2	100	-0.2	0	0	980.4	NA	0.0000		9999	3480	4100	0	0
2019/04/12 00:29:00	BASE	12.56	325	16.87	317	-0.3	100	-0.3	0	0	980.5	NA	0.0000		9999	2400	3220	0	0
2019/04/12 00:30:00	BASE	12.39	326	15.28	311	-0.3	100	-0.3	0	0	980.5	NA	0.0000		9999	1840	0	0	0
2019/04/12 00:31:00	BASE	13.59	325	15.38	324	-0.3	100	-0.3	0	0	980.4	NA	0.0000		9999	1770	0	0	0
2019/04/12 00:32:00	BASE	15.26	319	19.50	302	-0.2	100	-0.2	0	0	980.5	NA	0.0000		9999	820	0	0	0
2019/04/12 00:33:00	BASE	17.48	310	20.94	306	-0.2	100	-0.2	0	0	980.4	NA	0.0000		9999	1210	0	0	0
2019/04/12 00:34:00	BASE	18.43	307	20.94	306	-0.2	100	-0.2	0	0	980.5	NA	0.0000		9999	590	0	0	0
2019/04/12 00:35:00	BASE	17.47	307	20.94	306	-0.3	100	-0.3	0	0	980.5	NA	0.0000		9999	0	0	0	4330
2019/04/12 00:36:00	BASE	16.57	308	20.94	306	-0.3	100	-0.3	0	0	980.6	NA	0.0000		9999	0	0	0	4530
2019/04/12 00:37:00	BASE	16.55	307	20.94	306	-0.3	100	-0.3	0	0	980.6	NA	0.0000		9999	690	0	0	0
2019/04/12 00:38:00	BASE	15.84	308	20.94	306	-0.3	100	-0.3	0	0	980.6	NA	0.0000		9999	920	0	0	0
2019/04/12 00:39:00	BASE	15.37	312	20.94	306	-0.3	100	-0.3	0	0	980.6	NA	0.0000		9999	490	0	0	0
2019/04/12 00:40:00	BASE	16.31	312	20.94	306	-0.3	100	-0.3	0	0	980.6	NA	0.0000		9999	560	0	0	0
2019/04/12 00:41:00	BASE	16.70	310	20.94	306	-0.3	100	-0.3	0	0	980.7	NA	0.0000		9999	2260	0	0	0
2019/04/12 00:42:00	BASE	17.18	307	20.94	306	-0.4	100	-0.4	0	0	980.6	NA	0.0000		9999	1350	0	0	0
2019/04/12 00:43:00	BASE	16.34	306	19.81	311	-0.4	100	-0.4	0	0	980.7	NA	0.0000		9999	690	0	0	0
2019/04/12 00:44:00	BASE	14.78	307	18.67	304	-0.5	100	-0.5	0	0	980.7	NA	0.0000		9999	360	0	0	0
2019/04/12 00:45:00	BASE	13.78	306	18.67	304	-0.5	100	-0.5	0	0	980.7	NA	0.0000		9999	560	0	0	0
2019/04/12 00:46:00	BASE	12.70	308	18.67	304	-0.5	100	-0.5	0	0	980.7	NA	0.0000		9999	1940	0	0	0
2019/04/12 00:47:00	BASE	12.66	312	18.67	304	-0.5	100	-0.5	0	0	980.7	NA	0.0000		9999	2620	0	0	0
2019/04/12 00:48:00	BASE	13.66	314	18.67	304	-0.4	100	-0.4	0	0	980.6	NA	0.0000		9999	2950	0	0	0
2019/04/12 00:49:00	BASE	14.16	314	18.67	304	-0.4	100	-0.4	0	0	980.6	NA	0.0000		9999	2920	0	0	0
2019/04/12 00:50:00	BASE	13.34	313	18.67	304	-0.4	100	-0.4	0	0	980.6	NA	0.0000		9999	3250	0	0	0
2019/04/12 00:51:00	BASE	11.63	318	18.67	304	-0.4	100	-0.4	0	0	980.6	NA	0.0000		9999	3350	0	0	0
2019/04/12 00:52:00	BASE	11.55	323	16.26	307	-0.4	100	-0.4	0	0	980.6	NA	0.0000		9999	3510	0	0	0
2019/04/12 00:53:00	BASE	12.86	322	15.95	311	-0.4	100	-0.4	0	0	980.6	NA	0.0000		9999	3580	0	0	0
2019/04/12 00:54:00	BASE	13.11	324	15.95	311	-0.4	100	-0.4	0	0	980.6	NA	0.0000		9999	3580	0	0	0
2019/04/12 00:55:00	BASE	13.41	325	15.95	311	-0.4	100	-0.4	0	0	980.5	NA	0.0000		9999	3640	0	0	0
2019/04/12 00:56:00	BASE	14.54	324	18.11	320	-0.4	100	-0.4	0	0	980.5	NA	0.0000		9999	3250	0	0	0
2019/04/12 00:57:00	BASE	14.98	324	18.11	320	-0.4	100	-0.4	0	0	980.5	NA	0.0000		9999	3670	0	0	0
2019/04/12 00:58:00	BASE	14.95	323	18.11	320	-0.3	100	-0.3	0	0	980.5	NA	0.0000		9999	4100	0	0	0
2019/04/12 00:59:00	BASE	14.78	322	18.11	320	-0.3	100	-0.3	0	0	980.6	NA	0.0000		9999	4130	0	0	0
2019/04/12 01:00:01	BASE	15.55	321	18.11	320	-0.3	100	-0.3	0	0	980.5	NA	0.0000		9999	3840	0	0	0
2019/04/12 01:01:00	BASE	16.21	317	18.11	320	-0.2	100	-0.2	0	0	980.6	NA	0.0000		9999	4070	0	0	0
2019/04/12 01:02:00	BASE	15.27	311	18.11	320	-0.2	100	-0.2	0	0	980.6	NA	0.0000		9999	4200	0	0	0
2019/04/12 01:03:00	BASE	14.95	311	18.11	320	-0.2	100	-0.2	0	0	980.7	NA	0.0000		9999	4530	0	0	0
2019/04/12 01:04:00	BASE	15.86	314	19.50	316	-0.2	99	-0.2	0	0	980.6	NA	0.0000		9999	4230	0	0	0
2019/04/12 01:05:00	BASE	17.65	313	20.37	309	-0.2	99	-0.3	0	0	980.6	NA	0.0000		9999	3310	4000	0	0
2019/04/12 01:06:00	BASE	18.98	312	20.42	315	-0.2	98	-0.4	0	0	980.6	NA	0.0000		9999	2460	4200	0	0
2019/04/12 01:07:00	BASE	18.54	313	20.42	315	-0.2	98	-0.5	0	0	980.7	NA	0.0000		9999	2360	0	0	0
2019/04/12 01:08:00	BASE	17.61	313	20.42	315	-0.3	97	-0.6	0	0	980.7	NA	0.0000		9999	2530	0	0	0
2019/04/12 01:09:00	BASE	17.03	312	20.42	315	-0.3	97	-0.7	0	0	980.7	NA	0.0000		9999	390	0	0	0
2019/04/12 01:10:00	BASE	16.51	306	20.42	315	-0.3	97	-0.7	0	0	980.8	NA	0.0000		9999	390	0	0	0
2019/04/12 01:11:00	BASE	16.11	297	20.42	315	-0.3	97	-0.7	0	0	980.8	NA	0.0000		9999	390	0	0	0
2019/04/12 01:12:00	BASE	15.68	295	20.42	315	-0.3	98	-0.6	0	0	980.8	NA	0.0000	UP	9999	430	0	0	0
2019/04/12 01:13:00	BASE	15.84	295	20.42	315	-0.3	98	-0.6	0	0	980.8	NA	0.0000	UP	9999	920	0	0	0
2019/04/12 01:14:00	BASE	15.33	293	20.42	315	-0.3	99	-0.5	0	0	980.8	NA	0.0000	UP	9999	560	0	0	0
2019/04/12 01:15:00	BASE	13.73	291	20.42	315	-0.4	99	-0.5	0	0	980.8	NA	0.0000	UP	9999	1180	0	0	0
2019/04/12 01:16:00	BASE	12.32	290	19.34	307	-0.4	100	-0.4	0	0	980.8	NA	0.0000	UP	9999	390	0	0	0
2019/04/12 01:17:00	BASE	12.73	290	18.21	312	-0.4	100	-0.4	0	0	980.8	NA	0.0000	UP	9999	1250	0	0	0
2019/04/12 01:18:00	BASE	13.40	291	18.16	300	-0.5	100	-0.5	0	0	980.8	NA	0.0000	UP	9999	560	1940	0	0
2019/04/12 01:19:00	BASE	12.56	291	18.16	300	-0.6	100	-0.6	0	0	980.8	NA	0.0000	UP	9999	430	0	0	0
2019/04/12 01:20:00	BASE	11.54	292	17.85	291	-0.7	100	-0.7	0	0	980.9	NA	0.0000	UP	9999	390	0	0	0
2019/04/12 01:21:00	BASE	10.13	295	17.85	291	-0.7	100	-0.7	0	0	980.9	NA	0.0000	UP	9999	300	0	0	0
2019/04/12 01:22:00	BASE	8.94	296	17.85	291	-0.8	100	-0.8	0	0	980.8	NA	0.0000	UP	9999	360	0	0	0
2019/04/12 01:23:00	BASE	9.13	294	16.41	293	-0.8	100	-0.8	0	0	980.8	NA	0.0000	UP	9999	2130	2660	0	0
2019/04/12 01:24:00	BASE	9.01	296	14.92	291	-0.8	100	-0.8	0	0	980.8	NA	0.0000	UP	9999	2000	0	0	0
2019/04/12 01:25:00	BASE	8.81	298	14.92	291	-0.8	100	-0.8	0	0	980.8	NA	0.0000	UP	9999	1900	0	0	0
2019/04/12 01:26:00	BASE	9.04	301	14.92	291	-0.8	100	-0.8	0	0	980.8	NA	0.0000	UP	9999	1640	0	0	0
2019/04/12 01:27:00	BASE	9.17	302	14.92	291	-0.8	100	-0.8	0	0	980.8	NA	0.0000	UP	9999	1570	2200	0	0
2019/04/12 01:28:00	BASE	9.13	298	12.91	291	-0.7	100	-0.7	0	0	980.9	NA	0.0000	UP	9999	1440	0	0	0
2019/04/12 01:29:00	BASE	8.33	299	12.76	290	-0.7	100	-0.7	0	0	980.9	NA	0.0000	UP	9999	1570	2170	0	0
2019/04/12 01:30:00	BASE	9.07	302	11.42	295	-0.7	100	-0.7	0	0	980.8	NA	0.0000	UP	9999	1480	0	0	0
2019/04/12 01:31:00	BASE	9.94	304	11.42	295	-0.7	100	-0.7	0	0	980.9	NA	0.0000	UP	9999	1410	0	0	0
2019/04/12 01:32:00	BASE	9.66	305	11.42	295	-0.7	100	-0.7	0	0	980.9	NA	0.0000	UP	9999	1410	0	0	0
2019/04/12 01:33:00	BASE	9.06	307	10.91	303	-0.7	100	-0.7	0	0	980.8	NA	0.0000		9999	360	0	0	0
2019/04/12 01:34:00	BASE	8.66	309	10.91	303	-0.7	100	-0.7	0	0	980.9	NA	0.0000		9000	300	0	0	0
2019/04/12 01:35:00	BASE	9.10	309	10.91	303	-0.6	100	-0.6	0	0	980.9	NA	0.0000	UP	9000	0	0	0	4530
2019/04/12 01:36:00	BASE	9.58	310	11.21	310	-0.6	100	-0.6	0	0	980.9	NA	0.0000	UP	9999	330	0	0	0
2019/04/12 01:37:00	BASE	9.81	311	11.21	310	-0.6	100	-0.6	0	0	980.9	NA	0.0000	UP	9999	390	4430	0	0
2019/04/12 01:38:00	BASE	9.58	311	11.21	310	-0.6	100	-0.6	0	0	980.9	NA	0.0000	UP	9000	330	1610	0	0
2019/04/12 01:39:00	BASE	9.22	312	11.21	310	-0.5	100	-0.5	0	0	980.9	NA	0.0000	UP	8000	1570	0	0	0
2019/04/12 01:40:00	BASE	9.18	313	11.21	310	-0.5	100	-0.5	0	0	980.9	NA	0.0000	UP	8000	1540	0	0	0
2019/04/12 01:41:00	BASE	10.86	315	12.91	313	-0.5	100	-0.5	0	0	980.9	NA	0.0000	UP BR	8000	1540	2560	0	0
2019/04/12 01:42:00	BASE	12.86	318	14.35	327	-0.4	100	-0.4	0	0	980.9	NA	0.0000	UP BR	9999	2130	0	0	0
2019/04/12 01:43:00	BASE	13.21	320	14.87	327	-0.4	100	-0.4	0	0	980.9	NA	0.0000	UP BR	9999	2230	0	0	0
2019/04/12 01:44:00	BASE	13.75	322	15.02	321	-0.4	100	-0.4	0	0	980.9	NA	0.0000	UP BR	9999	2300	0	0	0
2019/04/12 01:45:00	BASE	14.97	319	16.57	319	-0.5	100	-0.5	0	0	980.9	NA	0.0000	UP	9999	0	0	0	2760
2019/04/12 01:46:00	BASE	15.05	315	16.57	319	-0.5	100	-0.5	0	0	981.0	NA	0.0000	UP	9999	300	0	0	0
2019/04/12 01:47:00	BASE	15.62	311	18.21	314	-0.5	100	-0.5	0	0	980.9	NA	0.0000	UP	9999	0	0	0	2950
2019/04/12 01:48:00	BASE	16.69	308	18.21	314	-0.5	100	-0.5	0	0	981.0	NA	0.0000	UP	9999	0	0	0	2990
2019/04/12 01:49:00	BASE	15.74	306	18.21	314	-0.6	100	-0.6	0	0	981.0	NA	0.0000	UP	9999	360	0	0	0
2019/04/12 01:50:00	BASE	14.56	305	18.21	314	-0.6	100	-0.6	0	0	981.0	NA	0.0000		9999	1350	0	0	0
2019/04/12 01:51:00	BASE	14.26	305	18.21	314	-0.5	100	-0.5	0	0	981.0	NA	0.0000		9999	360	0	0	0
2019/04/12 01:52:00	BASE	14.67	300	18.21	314	-0.6	100	-0.6	0	0	981.1	NA	0.0000	UP	6000	0	0	0	2430
2019/04/12 01:53:00	BASE	15.07	295	18.21	314	-0.6	100	-0.6	0	0	981.1	NA	0.0000	UP BR	2600	0	0	0	2230
2019/04/12 01:54:00	BASE	14.49	298	18.21	314	-0.7	100	-0.7	0	0	981.1	NA	0.0000	UP BR	2900	0	0	0	2300
2019/04/12 01:55:00	BASE	13.84	299	18.21	314	-0.7	100	-0.7	0	0	981.2	NA	0.0000	UP BR	4400	0	0	0	2200
2019/04/12 01:56:00	BASE	13.81	295	18.21	314	-0.9	100	-0.9	0	0	981.2	NA	0.0000	UP BR	3400	0	0	0	2070
2019/04/12 01:57:00	BASE	12.91	300	17.65	297	-0.9	100	-0.9	0	0	981.2	NA	0.0000	UP BR	2100	0	0	0	1570
2019/04/12 01:58:00	BASE	12.85	303	17.65	297	-0.9	100	-0.9	0	0	981.2	NA	0.0000	UP BR	1800	0	0	0	1440
2019/04/12 01:59:00	BASE	13.40	301	17.65	297	-0.9	100	-0.9	0	0	981.2	NA	0.0000	UP BR	1900	0	0	0	1350
2019/04/12 02:00:00	BASE	13.44	306	17.65	297	-1.0	100	-1.0	0	0	981.2	NA	0.0000	UP BR	2700	0	0	0	2130
2019/04/12 02:01:00	BASE	14.14	309	16.05	303	-1.0	100	-1.0	0	0	981.2	NA	0.0000	-SN BR	4400	0	0	0	1510
2019/04/12 02:02:00	BASE	13.97	309	16.05	303	-1.0	100	-1.0	0	0	981.2	NA	0.0000	-SN BR	4700	0	0	0	1970
2019/04/12 02:03:00	BASE	13.60	310	15.84	304	-1.0	100	-1.0	0	0	981.2	NA	0.0000	-SN BR	5000	0	0	0	2100
2019/04/12 02:04:00	BASE	13.42	310	14.97	300	-1.0	100	-1.0	0	0	981.2	NA	0.0000	-SN BR	9000	0	0	0	2200
2019/04/12 02:05:00	BASE	12.95	308	14.97	300	-1.0	100	-1.0	0	0	981.2	NA	0.0000	-SN BR	9999	0	0	0	2720
2019/04/12 02:06:00	BASE	12.57	305	14.97	300	-1.0	100	-1.0	0	0	981.2	NA	0.0000	-SN BR	9999	0	0	0	3050
2019/04/12 02:07:00	BASE	12.58	306	14.97	300	-1.0	100	-1.0	0	0	981.2	NA	0.0000	-SN BR	6000	0	0	0	1670
2019/04/12 02:08:00	BASE	12.03	310	14.92	307	-1.0	100	-1.0	0	0	981.2	NA	0.0000	-SN BR	5000	0	0	0	2560
2019/04/12 02:09:00	BASE	12.30	314	14.92	307	-1.0	100	-1.0	0	0	981.2	NA	0.0000	-SN BR	6000	0	0	0	2990
2019/04/12 02:10:00	BASE	12.76	317	14.66	297	-1.0	100	-1.0	0	0	981.2	NA	0.0000	-SN BR	8000	390	0	0	0
2019/04/12 02:11:00	BASE	12.73	316	14.66	297	-1.0	100	-1.0	0	0	981.2	NA	0.0000	-SN BR	7000	390	0	0	0
2019/04/12 02:12:00	BASE	13.31	316	14.66	297	-1.0	100	-1.0	0	0	981.2	NA	0.0000	-SN BR	7000	390	0	0	0
2019/04/12 02:13:00	BASE	13.39	316	14.66	297	-1.0	100	-1.0	0	0	981.2	NA	0.0000	-SN BR	7000	0	0	0	1900
2019/04/12 02:14:00	BASE	13.57	316	14.97	318	-1.0	100	-1.0	0	0	981.2	NA	0.0000	-SN BR	7000	0	0	0	1870
2019/04/12 02:15:00	BASE	14.35	313	18.21	296	-1.0	100	-1.0	0	0	981.2	NA	0.0000	-SN BR	7000	0	0	0	1540
2019/04/12 02:16:00	BASE	16.12	307	18.42	307	-1.0	100	-1.0	0	0	981.2	NA	0.0000	-SN BR	3100	0	0	0	1080
2019/04/12 02:17:00	BASE	17.56	307	19.60	307	-1.1	100	-1.1	0	0	981.2	NA	0.0000	-SN BR	2500	0	0	0	980
2019/04/12 02:18:00	BASE	16.36	310	19.60	307	-1.1	100	-1.1	0	0	981.2	NA	0.0000	-SN BR	3200	0	0	0	1540
2019/04/12 02:19:00	BASE	14.56	314	19.60	307	-1.2	100	-1.2	0	0	981.2	NA	0.0000	-SN BR	4100	0	0	0	1740
2019/04/12 02:20:00	BASE	13.99	316	19.60	307	-1.2	100	-1.2	0	0	981.2	NA	0.0000	-SN BR	6000	0	0	0	2890
2019/04/12 02:21:00	BASE	14.12	317	19.60	307	-1.2	100	-1.2	0	0	981.2	NA	0.0000	-SN BR	9999	0	0	0	3080
2019/04/12 02:22:00	BASE	14.63	318	19.60	307	-1.2	100	-1.2	0	0	981.2	NA	0.0000	-SN BR	9999	0	0	0	3350
2019/04/12 02:23:00	BASE	14.75	316	19.60	307	-1.1	100	-1.1	0	0	981.2	NA	0.0000	-SN BR	9999	0	0	0	2530
2019/04/12 02:24:00	BASE	14.14	315	19.60	307	-1.1	100	-1.1	0	0	981.2	NA	0.0000	-SN BR	9999	0	0	0	2720
2019/04/12 02:25:00	BASE	13.09	315	19.60	307	-1.1	100	-1.1	0	0	981.3	NA	0.0000	-SN BR	9999	2200	0	0	0
2019/04/12 02:26:00	BASE	12.49	312	19.60	307	-1.1	100	-1.1	0	0	981.3	NA	0.0000	-SN BR	9999	1770	0	0	0
2019/04/12 02:27:00	BASE	12.49	310	16.20	312	-1.1	100	-1.1	0	0	981.3	NA	0.0000	-SN BR	9999	1800	0	0	0
2019/04/12 02:28:00	BASE	12.24	311	16.10	313	-1.1	100	-1.1	0	0	981.4	NA	0.0000	-SN BR	9999	1440	0	0	0
2019/04/12 02:29:00	BASE	12.18	312	16.10	313	-1.1	100	-1.1	0	0	981.3	NA	0.0000	-SN	9999	460	0	0	0
2019/04/12 02:30:00	BASE	12.30	312	16.10	313	-1.1	100	-1.1	0	0	981.3	NA	0.0000		9999	1740	3120	0	0
2019/04/12 02:31:00	BASE	11.83	311	16.10	313	-1.1	100	-1.1	0	0	981.3	NA	0.0000		9999	1250	0	0	0
2019/04/12 02:32:00	BASE	11.66	315	16.10	313	-1.1	100	-1.1	0	0	981.2	NA	0.0000		9999	1180	0	0	0
2019/04/12 02:33:00	BASE	12.19	318	14.71	317	-1.1	100	-1.1	0	0	981.2	NA	0.0000		9999	360	0	0	0
2019/04/12 02:34:00	BASE	12.84	317	14.10	314	-1.0	100	-1.0	0	0	981.2	NA	0.0000		9999	0	0	0	3410
2019/04/12 02:35:00	BASE	12.63	319	14.10	314	-1.0	100	-1.0	0	0	981.2	NA	0.0000		8000	260	0	0	0
2019/04/12 02:36:00	BASE	12.25	321	14.10	314	-1.0	100	-1.0	0	0	981.2	NA	0.0000	-SN BR	7000	0	0	0	3770
2019/04/12 02:37:00	BASE	12.20	322	14.10	314	-1.0	100	-1.0	0	0	981.2	NA	0.0000	UP BR	7000	0	0	0	4170
2019/04/12 02:38:00	BASE	11.65	325	14.10	314	-1.0	100	-1.0	0	0	981.2	NA	0.0000	UP BR	8000	0	0	0	4590
2019/04/12 02:39:00	BASE	11.22	331	14.10	314	-1.0	100	-1.0	0	0	981.2	NA	0.0000	UP BR	8000	0	0	0	5150
2019/04/12 02:40:00	BASE	11.24	334	14.10	314	-1.0	100	-1.0	0	0	981.2	NA	0.0000	UP BR	8000	0	0	0	4360
2019/04/12 02:41:00	BASE	10.96	334	14.10	314	-1.1	100	-1.1	0	0	981.2	NA	0.0000	UP BR	9000	6000	0	0	0
2019/04/12 02:42:00	BASE	10.23	337	14.10	314	-1.1	100	-1.1	0	0	981.2	NA	0.0000	UP BR	9999	6100	0	0	0
2019/04/12 02:43:00	BASE	10.09	338	14.10	314	-1.1	100	-1.1	0	0	981.2	NA	0.0000	UP BR	9999	6040	0	0	0
2019/04/12 02:44:00	BASE	11.07	334	13.02	318	-1.2	100	-1.2	0	0	981.2	NA	0.0000	UP BR	9999	6070	0	0	0
2019/04/12 02:45:00	BASE	11.42	334	13.02	318	-1.2	100	-1.2	0	0	981.2	NA	0.0000	UP BR	9999	6170	0	0	0
2019/04/12 02:46:00	BASE	11.44	335	12.81	323	-1.2	100	-1.2	0	0	981.2	NA	0.0000	UP	9999	6100	0	0	0
2019/04/12 02:47:00	BASE	11.79	336	13.22	334	-1.2	100	-1.2	0	0	981.2	NA	0.0000	UP	9999	6100	0	0	0
2019/04/12 02:48:00	BASE	11.20	337	13.22	334	-1.1	100	-1.1	0	0	981.2	NA	0.0000		9999	6430	0	0	0
2019/04/12 02:49:00	BASE	11.29	335	13.94	333	-1.1	100	-1.1	0	0	981.2	NA	0.0000		9999	6370	0	0	0
2019/04/12 02:50:00	BASE	12.48	333	13.94	333	-1.1	100	-1.1	0	0	981.3	NA	0.0000		9999	6070	0	0	0
2019/04/12 02:51:00	BASE	12.57	333	13.94	333	-1.1	100	-1.1	0	0	981.4	NA	0.0000		9999	6100	0	0	0
2019/04/12 02:52:00	BASE	11.61	332	13.94	333	-1.1	100	-1.1	0	0	981.4	NA	0.0000		9999	6690	0	0	0
2019/04/12 02:53:00	BASE	11.39	332	13.94	333	-1.1	100	-1.1	0	0	981.4	NA	0.0000		9999	6330	0	0	0
2019/04/12 02:54:00	BASE	11.56	329	13.94	333	-1.1	100	-1.1	0	0	981.4	NA	0.0000		9999	6860	9480	0	0
2019/04/12 02:55:00	BASE	11.54	327	13.94	333	-1.0	100	-1.0	0	0	981.5	NA	0.0000		9999	6820	9510	0	0
2019/04/12 02:56:00	BASE	11.38	327	13.94	333	-1.0	100	-1.0	0	0	981.5	NA	0.0000		9999	6890	0	0	0
2019/04/12 02:57:00	BASE	11.01	329	13.94	333	-1.0	100	-1.0	0	0	981.5	NA	0.0000		9999	6890	0	0	0
2019/04/12 02:58:00	BASE	11.66	329	13.94	333	-0.9	100	-0.9	0	0	981.5	NA	0.0000		9999	6820	9480	0	0
2019/04/12 02:59:00	BASE	11.91	327	13.48	341	-0.9	100	-0.9	0	0	981.5	NA	0.0000		9999	6690	9420	0	0
2019/04/12 03:00:00	BASE	11.95	329	14.66	329	-0.9	100	-0.9	0	0	981.5	NA	0.0000		9999	6530	9420	0	0
2019/04/12 03:01:00	BASE	12.79	328	14.66	329	-0.9	100	-0.9	0	0	981.5	NA	0.0000		9999	6400	9380	0	0
2019/04/12 03:02:00	BASE	12.58	327	14.66	329	-0.9	100	-0.9	0	0	981.5	NA	0.0000		9999	3580	9350	0	0
2019/04/12 03:03:00	BASE	12.09	329	14.66	329	-0.9	100	-0.9	0	0	981.6	NA	0.0000		9999	2790	3450	0	0
2019/04/12 03:04:00	BASE	11.96	329	14.66	329	-0.8	100	-0.8	0	0	981.6	NA	0.0000		9999	2530	0	0	0
2019/04/12 03:05:00	BASE	11.81	330	14.66	329	-0.8	100	-0.8	0	0	981.6	NA	0.0000		9999	2400	0	0	0
2019/04/12 03:06:00	BASE	12.43	330	15.02	329	-0.8	100	-0.8	0	0	981.5	NA	0.0000		9999	2400	0	0	0
2019/04/12 03:07:00	BASE	13.18	328	15.02	329	-0.8	100	-0.8	0	0	981.5	NA	0.0000		9999	2400	3740	0	0
2019/04/12 03:08:00	BASE	13.08	326	15.02	329	-0.8	100	-0.8	0	0	981.5	NA	0.0000		9999	2400	0	0	0
2019/04/12 03:09:00	BASE	13.02	327	15.43	325	-0.8	100	-0.8	0	0	981.5	NA	0.0000		9999	2300	0	0	0
2019/04/12 03:10:00	BASE	13.36	327	15.43	325	-0.8	100	-0.8	0	0	981.5	NA	0.0000		9999	2200	0	0	0
2019/04/12 03:11:00	BASE	12.49	330	15.43	325	-0.7	100	-0.7	0	0	981.5	NA	0.0000		9999	2360	3480	0	0
2019/04/12 03:12:00	BASE	11.42	328	15.43	325	-0.7	100	-0.7	0	0	981.6	NA	0.0000		9999	2070	0	0	0
2019/04/12 03:13:00	BASE	11.23	323	15.43	325	-0.7	100	-0.7	0	0	981.6	NA	0.0000		9999	1970	0	0	0
2019/04/12 03:14:00	BASE	11.38	323	15.43	325	-0.7	100	-0.7	0	0	981.5	NA	0.0000		9999	1940	0	0	0
2019/04/12 03:15:00	BASE	11.59	320	15.43	325	-0.6	100	-0.6	0	0	981.5	NA	0.0000		9999	1670	0	0	0
2019/04/12 03:16:00	BASE	11.47	313	15.43	325	-0.6	100	-0.6	0	0	981.6	NA	0.0000		9999	1670	2170	0	0
2019/04/12 03:17:00	BASE	12.18	305	15.43	325	-0.7	100	-0.7	0	0	981.5	NA	0.0000		9999	1770	0	0	0
2019/04/12 03:18:00	BASE	12.47	304	15.43	325	-0.7	100	-0.7	0	0	981.5	NA	0.0000		9999	1640	2530	0	0
2019/04/12 03:19:00	BASE	12.07	306	14.35	324	-0.7	100	-0.7	0	0	981.5	NA	0.0000		9999	1510	2070	2590	0
2019/04/12 03:20:00	BASE	12.17	305	13.79	298	-0.7	100	-0.7	0	0	981.5	NA	0.0000		9999	1800	2490	0	0
2019/04/12 03:21:00	BASE	12.07	306	13.79	298	-0.7	100	-0.7	0	0	981.5	NA	0.0000		9999	1540	0	0	0
2019/04/12 03:22:00	BASE	11.83	311	13.79	298	-0.7	100	-0.7	0	0	981.5	NA	0.0000		9999	1440	0	0	0
2019/04/12 03:23:00	BASE	11.60	317	13.79	298	-0.7	100	-0.7	0	0	981.5	NA	0.0000		9999	1480	0	0	0
2019/04/12 03:24:00	BASE	12.17	325	13.99	331	-0.7	100	-0.7	0	0	981.5	NA	0.0000		9999	1610	0	0	0
2019/04/12 03:25:00	BASE	13.20	330	13.99	330	-0.7	100	-0.7	0	0	981.4	NA	0.0000		9999	1570	3250	0	0
2019/04/12 03:26:00	BASE	13.65	332	14.87	329	-0.7	100	-0.7	0	0	981.4	NA	0.0000		9999	3280	0	0	0
2019/04/12 03:27:00	BASE	13.69	333	14.87	329	-0.7	100	-0.7	0	0	981.4	NA	0.0000		9999	1610	3020	0	0
2019/04/12 03:28:00	BASE	13.89	332	14.87	329	-0.8	100	-0.8	0	0	981.4	NA	0.0000		9999	1710	2950	0	0
2019/04/12 03:29:00	BASE	13.80	332	14.87	329	-0.8	100	-0.8	0	0	981.4	NA	0.0000		9999	1480	2990	0	0
2019/04/12 03:30:00	BASE	12.78	330	14.87	329	-0.9	100	-0.9	0	0	981.4	NA	0.0000		9999	1440	0	0	0
2019/04/12 03:31:00	BASE	11.87	331	14.87	329	-0.9	100	-0.9	0	0	981.4	NA	0.0000		9999	1480	3540	0	0
2019/04/12 03:32:00	BASE	11.40	333	14.87	329	-0.9	100	-0.9	0	0	981.4	NA	0.0000		9999	1570	3310	0	0
2019/04/12 03:33:00	BASE	11.11	335	14.87	329	-0.9	100	-0.9	0	0	981.4	NA	0.0000		9999	1570	2720	3380	0
2019/04/12 03:34:00	BASE	10.91	339	14.87	329	-0.9	100	-0.9	0	0	981.4	NA	0.0000		9999	1540	2590	0	0
2019/04/12 03:35:00	BASE	10.87	341	14.87	329	-0.9	100	-0.9	0	0	981.4	NA	0.0000		9999	2590	0	0	0
2019/04/12 03:36:00	BASE	11.44	339	14.76	332	-0.9	100	-0.9	0	0	981.4	NA	0.0000		9999	2760	0	0	0
2019/04/12 03:37:00	BASE	12.28	337	14.76	332	-0.9	100	-0.9	0	0	981.3	NA	0.0000		9999	2490	0	0	0
2019/04/12 03:38:00	BASE	12.99	338	14.35	331	-0.9	100	-0.9	0	0	981.3	NA	0.0000		9999	2460	0	0	0
2019/04/12 03:39:00	BASE	12.65	337	14.25	340	-0.9	100	-0.9	0	0	981.4	NA	0.0000		9999	2490	0	0	0
2019/04/12 03:40:00	BASE	12.61	338	14.25	343	-0.9	100	-0.9	0	0	981.4	NA	0.0000		9999	2100	0	0	0
2019/04/12 03:41:00	BASE	12.47	339	14.25	343	-0.9	100	-0.9	0	0	981.4	NA	0.0000		9999	1940	2490	0	0
2019/04/12 03:42:00	BASE	11.73	338	14.25	343	-0.9	100	-0.9	0	0	981.4	NA	0.0000		9999	1940	2530	0	0
2019/04/12 03:43:00	BASE	12.24	337	14.25	343	-0.9	100	-0.9	0	0	981.3	NA	0.0000		9999	2200	0	0	0
2019/04/12 03:44:00	BASE	12.33	337	14.25	343	-0.9	100	-0.9	0	0	981.3	NA	0.0000		9999	1840	0	0	0
2019/04/12 03:45:00	BASE	11.90	340	14.25	343	-0.9	100	-0.9	0	0	981.3	NA	0.0000		9999	2000	0	0	0
2019/04/12 03:46:00	BASE	11.24	343	14.25	343	-0.9	100	-0.9	0	0	981.3	NA	0.0000		9999	1610	2230	0	0
2019/04/12 03:47:00	BASE	11.39	345	14.25	343	-0.9	100	-0.9	0	0	981.3	NA	0.0000		9999	1310	0	0	0
2019/04/12 03:48:00	BASE	11.91	347	14.25	343	-0.9	100	-0.9	0	0	981.2	NA	0.0000		9999	0	0	0	2460
2019/04/12 03:49:00	BASE	12.52	347	14.92	340	-0.9	100	-0.9	0	0	981.2	NA	0.0000		9999	490	0	0	0
2019/04/12 03:50:00	BASE	13.07	346	14.92	340	-1.0	100	-1.0	0	0	981.2	NA	0.0000		9999	0	0	0	2620
2019/04/12 03:51:00	BASE	11.95	347	14.92	340	-1.0	100	-1.0	0	0	981.2	NA	0.0000		9999	0	0	0	2790
2019/04/12 03:52:00	BASE	10.94	346	14.92	340	-1.0	100	-1.0	0	0	981.2	NA	0.0000		9999	0	0	0	2720
2019/04/12 03:53:00	BASE	11.01	345	14.92	340	-1.0	100	-1.0	0	0	981.2	NA	0.0000		9999	0	0	0	2590
2019/04/12 03:54:00	BASE	11.28	347	14.92	340	-1.0	100	-1.0	0	0	981.2	NA	0.0000		9999	0	0	0	2590
2019/04/12 03:55:00	BASE	11.16	351	14.92	340	-1.0	100	-1.0	0	0	981.2	NA	0.0000		9999	330	0	0	0
2019/04/12 03:56:00	BASE	10.76	352	14.92	340	-1.0	100	-1.0	0	0	981.2	NA	0.0000		9999	0	0	0	1800
2019/04/12 03:57:00	BASE	11.01	350	14.92	340	-1.0	100	-1.0	0	0	981.2	NA	0.0000		9999	300	0	0	0
2019/04/12 03:58:00	BASE	11.36	348	14.92	340	-1.0	100	-1.0	0	0	981.2	NA	0.0000	UP	9999	330	0	0	0
2019/04/12 03:59:00	BASE	12.28	345	14.25	339	-1.0	100	-1.0	0	0	981.1	NA	0.0000	UP	9999	0	0	0	1480
2019/04/12 04:00:00	BASE	12.39	345	13.84	341	-1.0	100	-1.0	0	0	981.2	NA	0.0000	UP	9999	0	0	0	1740
2019/04/12 04:01:00	BASE	11.36	343	13.84	341	-1.0	100	-1.0	0	0	981.2	NA	0.0000	UP	9999	0	0	0	1180
2019/04/12 04:02:00	BASE	10.94	339	13.84	341	-1.0	100	-1.0	0	0	981.1	NA	0.0000	UP	9999	0	0	0	1280
2019/04/12 04:03:00	BASE	11.03	338	13.84	341	-1.0	100	-1.0	0	0	981.1	NA	0.0000	UP	9999	0	0	0	1180
2019/04/12 04:04:00	BASE	12.92	342	17.34	345	-1.0	100	-1.0	0	0	981.0	NA	0.0000	UP	9999	0	0	0	1180
2019/04/12 04:05:00	BASE	15.21	343	17.90	339	-1.0	100	-1.0	0	0	980.9	NA	0.0000	UP	9999	0	0	0	1080
2019/04/12 04:06:00	BASE	15.07	343	17.90	339	-1.0	100	-1.0	0	0	980.9	NA	0.0000	UP	9999	0	0	0	1050
2019/04/12 04:07:00	BASE	13.91	346	17.90	339	-1.1	100	-1.1	0	0	981.0	NA	0.0000	UP	9999	0	0	0	1120
2019/04/12 04:08:00	BASE	13.03	347	17.90	339	-1.1	100	-1.1	0	0	981.0	NA	0.0000	UP	9999	5220	0	0	0
2019/04/12 04:09:00	BASE	12.65	348	17.90	339	-1.2	100	-1.2	0	0	980.9	NA	0.0000	UP	9999	4400	5280	0	0
2019/04/12 04:10:00	BASE	13.23	349	17.90	339	-1.2	100	-1.2	0	0	981.0	NA	0.0000	UP	9999	4270	0	0	0
2019/04/12 04:11:00	BASE	13.02	349	17.90	339	-1.3	100	-1.3	0	0	981.0	NA	0.0000	UP	9999	4170	0	0	0
2019/04/12 04:12:00	BASE	12.86	346	17.90	339	-1.3	100	-1.3	0	0	981.0	NA	0.0000	UP	9999	0	0	0	890
2019/04/12 04:13:00	BASE	13.34	345	17.90	339	-1.3	100	-1.3	0	0	980.9	NA	0.0000	UP	9999	0	0	0	950
2019/04/12 04:14:00	BASE	12.59	351	17.90	339	-1.3	100	-1.3	0	0	980.9	NA	0.0000	UP	9999	0	0	0	750
2019/04/12 04:15:00	BASE	12.68	354	16.67	343	-1.3	100	-1.3	0	0	980.9	NA	0.0000	UP	9999	0	0	0	820
2019/04/12 04:16:00	BASE	13.47	354	15.43	344	-1.3	100	-1.3	0	0	980.9	NA	0.0000	UP	9999	5320	0	0	0
2019/04/12 04:17:00	BASE	12.81	359	15.43	344	-1.3	100	-1.3	0	0	980.9	NA	0.0000	UP	9999	4100	0	0	0
2019/04/12 04:18:00	BASE	12.36	5	15.43	344	-1.3	100	-1.3	0	0	980.9	NA	0.0000	UP	9999	4100	0	0	0
2019/04/12 04:19:00	BASE	12.46	1	15.43	344	-1.3	100	-1.3	0	0	980.8	NA	0.0000	UP	9999	4460	0	0	0
2019/04/12 04:20:00	BASE	12.29	360	15.43	344	-1.3	100	-1.3	0	0	980.8	NA	0.0000	UP	9999	4660	5410	0	0
2019/04/12 04:21:00	BASE	12.34	359	15.43	344	-1.3	100	-1.3	0	0	980.8	NA	0.0000	UP	9999	4690	0	0	0
2019/04/12 04:22:00	BASE	12.58	355	14.71	360	-1.3	100	-1.3	0	0	980.7	NA	0.0000	UP	9999	0	0	0	5740
2019/04/12 04:23:00	BASE	12.60	357	14.71	360	-1.3	100	-1.3	0	0	980.7	NA	0.0000	UP	9999	5150	0	0	0
2019/04/12 04:24:00	BASE	12.70	354	14.71	360	-1.3	100	-1.3	0	0	980.7	NA	0.0000	UP	9999	5150	0	0	0
2019/04/12 04:25:00	BASE	13.11	352	14.71	360	-1.3	100	-1.3	0	0	980.7	NA	0.0000		9999	4630	5380	0	0
2019/04/12 04:26:00	BASE	13.07	357	14.71	360	-1.3	100	-1.3	0	0	980.6	NA	0.0000		9999	5150	0	0	0
2019/04/12 04:27:00	BASE	13.08	357	15.02	274	-1.3	100	-1.3	0	0	980.6	NA	0.0000		9999	0	0	0	1080
2019/04/12 04:28:00	BASE	13.55	353	15.02	274	-1.3	100	-1.3	0	0	980.6	NA	0.0000		9999	5220	0	0	0
2019/04/12 04:29:00	BASE	13.60	354	15.02	274	-1.3	100	-1.3	0	0	980.6	NA	0.0000		9999	5280	0	0	0
2019/04/12 04:30:00	BASE	13.38	359	15.02	274	-1.3	100	-1.3	0	0	980.6	NA	0.0000		9999	5250	0	0	0
2019/04/12 04:31:00	BASE	13.31	2	15.38	2	-1.3	100	-1.3	0	0	980.5	NA	0.0000		9999	5050	0	0	0
2019/04/12 04:32:00	BASE	14.20	2	15.84	4	-1.3	100	-1.3	0	0	980.4	NA	0.0000		9999	0	0	0	0
2019/04/12 04:33:00	BASE	15.01	1	15.84	4	-1.3	100	-1.3	0	0	980.4	NA	0.0000		9999	0	0	0	0
2019/04/12 04:34:00	BASE	14.76	1	15.90	2	-1.3	100	-1.3	0	0	980.3	NA	0.0000		9999	0	0	0	0
2019/04/12 04:35:00	BASE	14.58	2	16.10	2	-1.3	100	-1.3	0	0	980.3	NA	0.0000		9999	0	0	0	0
2019/04/12 04:36:00	BASE	14.65	2	16.10	2	-1.3	100	-1.3	0	0	980.3	NA	0.0000		9999	0	0	0	0
2019/04/12 04:37:00	BASE	14.30	357	16.10	2	-1.3	100	-1.3	0	0	980.3	NA	0.0000		9999	0	0	0	0
2019/04/12 04:38:00	BASE	14.01	352	16.10	2	-1.2	100	-1.2	0	0	980.3	NA	0.0000		9999	0	0	0	0
2019/04/12 04:39:00	BASE	14.08	349	16.10	2	-1.2	100	-1.2	0	0	980.3	NA	0.0000		9999	0	0	0	0
2019/04/12 04:40:00	BASE	13.67	351	16.10	2	-1.2	100	-1.2	0	0	980.4	NA	0.0000		9999	0	0	0	0
2019/04/12 04:41:00	BASE	12.96	355	16.10	2	-1.2	100	-1.2	0	0	980.4	NA	0.0000		9999	0	0	0	0
2019/04/12 04:42:00	BASE	12.22	352	16.10	2	-1.2	100	-1.2	0	0	980.4	NA	0.0000		9999	0	0	0	0
2019/04/12 04:43:00	BASE	11.92	348	16.10	2	-1.2	100	-1.2	0	0	980.3	NA	0.0000		9999	0	0	0	0
2019/04/12 04:44:00	BASE	11.64	349	16.10	2	-1.2	100	-1.2	0	0	980.3	NA	0.0000		9999	0	0	0	0
2019/04/12 04:45:00	BASE	10.98	348	15.64	360	-1.1	100	-1.1	0	0	980.2	NA	0.0000		9999	0	0	0	0
2019/04/12 04:46:00	BASE	10.74	350	15.43	354	-1.1	100	-1.1	0	0	980.2	NA	0.0000		9999	0	0	0	0
2019/04/12 04:47:00	BASE	10.80	358	15.43	354	-1.0	100	-1.0	0	0	980.2	NA	0.0000		9999	0	0	0	0
2019/04/12 04:48:00	BASE	10.90	3	14.97	275	-1.1	100	-1.1	0	0	980.2	NA	0.0000		9999	0	0	0	0
2019/04/12 04:49:00	BASE	11.17	357	13.99	355	-1.1	100	-1.1	0	0	980.1	NA	0.0000		9999	0	0	0	0
2019/04/12 04:50:00	BASE	11.70	356	13.68	350	-1.1	100	-1.1	0	0	980.1	NA	0.0000		9999	0	0	0	0
2019/04/12 04:51:00	BASE	12.73	3	15.74	1	-1.1	100	-1.1	0	0	980.0	NA	0.0000		9999	0	0	0	0
2019/04/12 04:52:00	BASE	13.59	358	15.74	1	-1.1	100	-1.1	0	0	979.9	NA	0.0000		9999	0	0	0	0
2019/04/12 04:53:00	BASE	12.96	356	15.74	1	-1.1	100	-1.1	0	0	979.9	NA	0.0000		9999	0	0	0	0
2019/04/12 04:54:00	BASE	12.08	1	15.74	1	-1.1	100	-1.1	0	0	980.0	NA	0.0000		9999	0	0	0	0
2019/04/12 04:55:00	BASE	12.18	2	15.74	1	-1.2	100	-1.2	0	0	979.9	NA	0.0000		9999	0	0	0	0
2019/04/12 04:56:00	BASE	12.68	358	15.74	1	-1.2	100	-1.2	0	0	979.9	NA	0.0000		9999	5610	0	0	0
2019/04/12 04:57:00	BASE	12.91	355	15.74	1	-1.2	100	-1.2	0	0	979.9	NA	0.0000		9999	0	0	0	0
2019/04/12 04:58:00	BASE	13.71	1	15.84	8	-1.1	100	-1.1	0	0	979.8	NA	0.0000		9999	5680	0	0	0
2019/04/12 04:59:00	BASE	14.46	5	16.20	360	-1.1	100	-1.1	0	0	979.8	NA	0.0000		9999	5680	0	0	0
2019/04/12 05:00:00	BASE	14.27	7	16.20	360	-1.1	100	-1.1	0	0	979.8	NA	0.0000		9999	5610	0	0	0
2019/04/12 05:01:00	BASE	14.53	6	16.31	7	-1.1	100	-1.1	0	0	979.8	NA	0.0000		9999	5680	0	0	0
2019/04/12 05:02:00	BASE	15.90	4	18.78	5	-1.1	100	-1.1	0	0	979.7	NA	0.0000		9999	5680	0	0	0
2019/04/12 05:03:00	BASE	17.79	6	20.11	11	-1.1	100	-1.1	0	0	979.6	NA	0.0000		9999	5640	0	0	0
2019/04/12 05:04:00	BASE	18.33	9	20.11	11	-1.1	100	-1.1	0	0	979.7	NA	0.0000		9999	5640	0	0	0
2019/04/12 05:05:00	BASE	18.02	10	20.11	11	-1.0	100	-1.0	0	0	979.7	NA	0.0000		9999	5610	0	0	0
2019/04/12 05:06:00	BASE	18.11	8	20.11	11	-1.0	100	-1.0	0	0	979.7	NA	0.0000		9999	5640	0	0	0
2019/04/12 05:07:00	BASE	17.69	8	20.11	11	-1.0	100	-1.0	0	0	979.7	NA	0.0000		9999	5640	0	0	0
2019/04/12 05:08:00	BASE	17.51	2	20.11	11	-0.9	100	-0.9	0	0	979.7	NA	0.0000		9999	5610	0	0	0
2019/04/12 05:09:00	BASE	17.43	1	20.11	11	-0.9	100	-0.9	0	0	979.8	NA	0.0000		9999	5710	0	0	0
2019/04/12 05:10:00	BASE	17.25	7	20.11	11	-0.9	100	-0.9	0	0	979.7	NA	0.0000		9999	5710	0	0	0
2019/04/12 05:11:00	BASE	17.26	7	20.11	11	-0.9	100	-0.9	0	0	979.8	NA	0.0000		9999	5740	0	0	0
2019/04/12 05:12:00	BASE	17.62	7	20.11	11	-0.9	100	-0.9	0	0	979.7	NA	0.0000		9999	0	0	0	0
2019/04/12 05:13:00	BASE	18.50	6	20.11	4	-0.9	99	-1.0	0	0	979.7	NA	0.0000		9999	0	0	0	0
2019/04/12 05:14:00	BASE	18.21	5	20.11	4	-0.9	99	-1.0	0	0	979.7	NA	0.0000		9999	6040	0	0	0
2019/04/12 05:15:00	BASE	17.63	5	20.11	4	-0.8	99	-1.0	0	0	979.8	NA	0.0000		9999	6000	0	0	0
2019/04/12 05:16:00	BASE	17.43	6	20.11	4	-0.8	99	-1.0	0	0	979.8	NA	0.0000		9999	6040	0	0	0
2019/04/12 05:17:00	BASE	17.34	8	20.11	4	-0.8	98	-1.0	0	0	979.8	NA	0.0000		9999	6040	0	0	0
2019/04/12 05:18:00	BASE	17.50	8	20.11	4	-0.8	98	-1.1	0	0	979.8	NA	0.0000		9999	6040	0	0	0
2019/04/12 05:19:00	BASE	16.77	6	20.11	4	-0.8	98	-1.1	0	0	979.8	NA	0.0000		9999	5970	0	0	0
2019/04/12 05:20:00	BASE	16.69	4	20.11	4	-0.8	98	-1.1	0	0	979.8	NA	0.0000		9999	5940	0	0	0
2019/04/12 05:21:00	BASE	16.64	4	20.11	4	-0.9	98	-1.1	0	0	979.8	NA	0.0000		9999	5970	0	0	0
2019/04/12 05:22:00	BASE	15.86	5	20.11	4	-0.9	98	-1.1	0	0	979.8	NA	0.0000		9999	5910	0	0	0
2019/04/12 05:23:00	BASE	15.91	6	19.14	4	-0.9	98	-1.2	0	0	979.8	NA	0.0000		9999	5840	0	0	0
2019/04/12 05:24:00	BASE	16.01	5	19.14	4	-0.9	98	-1.2	0	0	979.7	NA	0.0000		9999	5740	0	0	0
2019/04/12 05:25:00	BASE	16.20	4	19.14	4	-0.9	98	-1.2	0	0	979.8	NA	0.0000		9999	5740	0	0	0
2019/04/12 05:26:00	BASE	15.91	2	18.93	8	-0.9	97	-1.3	0	0	979.8	NA	0.0000		9999	5710	0	0	0
2019/04/12 05:27:00	BASE	16.07	6	18.93	8	-0.9	97	-1.3	0	0	979.7	NA	0.0000		9999	5580	0	0	0
2019/04/12 05:28:00	BASE	16.68	9	18.93	8	-0.9	97	-1.3	0	0	979.7	NA	0.0000		9999	5610	0	0	0
2019/04/12 05:29:00	BASE	16.61	9	18.93	8	-0.9	97	-1.3	0	0	979.7	NA	0.0000		9999	5610	0	0	0
2019/04/12 05:30:00	BASE	16.79	7	18.78	1	-0.9	97	-1.3	0	0	979.7	NA	0.0000		9999	5610	6100	0	0
2019/04/12 05:31:00	BASE	16.32	6	18.78	1	-0.9	97	-1.3	0	0	979.7	NA	0.0000		9999	5710	0	0	0
2019/04/12 05:32:00	BASE	15.94	7	18.78	1	-0.9	97	-1.3	0	0	979.7	NA	0.0000		9999	5710	0	0	0
2019/04/12 05:33:00	BASE	15.95	8	18.78	1	-0.8	97	-1.3	0	0	979.6	NA	0.0000		9999	5610	0	0	0
2019/04/12 05:34:00	BASE	16.25	7	18.78	1	-0.8	96	-1.3	0	0	979.7	NA	0.0000		9999	5680	0	0	0
2019/04/12 05:35:00	BASE	16.88	6	18.62	5	-0.8	96	-1.3	0	0	979.6	NA	0.0000		9999	5410	0	0	0
2019/04/12 05:36:00	BASE	17.34	5	18.62	5	-0.8	96	-1.4	0	0	979.6	NA	0.0000		9999	5480	0	0	0
2019/04/12 05:37:00	BASE	17.58	5	18.62	5	-0.8	96	-1.4	0	0	979.6	NA	0.0000		9999	5350	0	0	0
2019/04/12 05:38:00	BASE	17.07	5	18.62	5	-0.7	95	-1.4	0	0	979.6	NA	0.0000		9999	5380	0	0	0
2019/04/12 05:39:00	BASE	16.84	5	18.62	5	-0.7	95	-1.4	0	0	979.6	NA	0.0000		9999	5410	0	0	0
2019/04/12 05:40:00	BASE	16.75	6	18.52	4	-0.6	94	-1.4	0	0	979.6	NA	0.0000		9999	5280	0	0	0
2019/04/12 05:41:00	BASE	16.91	8	18.62	11	-0.6	94	-1.4	0	0	979.6	NA	0.0000		9999	5150	0	0	0
2019/04/12 05:42:00	BASE	17.66	9	19.03	12	-0.6	94	-1.5	0	0	979.6	NA	0.0000		9999	5180	0	0	0
2019/04/12 05:43:00	BASE	17.96	9	19.03	12	-0.6	94	-1.5	0	0	979.6	NA	0.0000		9999	5280	0	0	0
2019/04/12 05:44:00	BASE	18.00	9	19.24	4	-0.7	94	-1.5	0	0	979.5	NA	0.0000		9999	5180	0	0	0
2019/04/12 05:45:00	BASE	17.55	8	19.24	4	-0.6	94	-1.5	0	0	979.5	NA	0.0000		9999	5180	0	0	0
2019/04/12 05:46:00	BASE	16.88	8	19.24	4	-0.6	94	-1.6	0	0	979.5	NA	0.0000		9999	5180	0	0	0
2019/04/12 05:47:00	BASE	16.16	6	19.24	4	-0.6	93	-1.6	0	0	979.5	NA	0.0000		9999	5150	0	0	0
2019/04/12 05:48:00	BASE	16.39	8	19.24	4	-0.6	93	-1.5	0	0	979.5	NA	0.0000		9999	5050	0	0	0
2019/04/12 05:49:00	BASE	16.74	9	19.24	4	-0.6	93	-1.5	0	0	979.5	NA	0.0000		9999	5180	0	0	0
2019/04/12 05:50:00	BASE	15.89	5	19.24	4	-0.6	94	-1.5	0	0	979.5	NA	0.0000		9999	5120	0	0	0
2019/04/12 05:51:00	BASE	16.14	5	19.24	4	-0.6	94	-1.5	0	0	979.4	NA	0.0000		9999	4990	0	0	0
2019/04/12 05:52:00	BASE	16.90	5	19.24	4	-0.6	94	-1.4	0	0	979.4	NA	0.0000		9999	5020	0	0	0
2019/04/12 05:53:00	BASE	16.41	4	19.24	4	-0.6	94	-1.5	0	0	979.4	NA	0.0000		9999	5020	0	0	0
2019/04/12 05:54:00	BASE	16.41	5	19.09	8	-0.6	94	-1.5	0	0	979.3	NA	0.0000		9999	4950	0	0	0
2019/04/12 05:55:00	BASE	16.64	5	19.03	58	-0.6	94	-1.5	0	0	979.3	NA	0.0000		9999	4890	0	0	0
2019/04/12 05:56:00	BASE	15.98	5	19.03	58	-0.7	94	-1.5	0	0	979.3	NA	0.0000		9999	4990	0	0	0
2019/04/12 05:57:00	BASE	15.33	3	19.03	58	-0.7	94	-1.5	0	0	979.4	NA	0.0000		9999	4990	0	0	0
2019/04/12 05:58:00	BASE	15.33	2	18.47	7	-0.7	94	-1.5	0	0	979.3	NA	0.0000		9999	4920	0	0	0
2019/04/12 05:59:00	BASE	15.73	4	18.47	7	-0.7	94	-1.5	0	0	979.3	NA	0.0000		9999	4860	0	0	0
2019/04/12 06:00:00	BASE	15.51	2	18.47	7	-0.7	95	-1.5	0	0	979.3	NA	0.0000		9999	4920	0	0	0
2019/04/12 06:01:00	BASE	15.10	1	18.47	7	-0.8	95	-1.5	0	0	979.3	NA	0.0000		9999	4860	0	0	0
2019/04/12 06:02:00	BASE	15.61	5	18.11	3	-0.8	95	-1.4	0	0	979.3	NA	0.0000		9999	4820	0	0	0
2019/04/12 06:03:00	BASE	16.00	6	18.11	3	-0.7	96	-1.4	0	0	979.3	NA	0.0000		9999	4820	0	0	0
2019/04/12 06:04:00	BASE	15.48	4	17.90	360	-0.7	96	-1.3	0	0	979.3	NA	0.0000		9999	4990	0	0	0
2019/04/12 06:05:00	BASE	15.21	5	17.90	360	-0.7	96	-1.2	0	0	979.3	NA	0.0000		9999	4950	0	0	0
2019/04/12 06:06:00	BASE	15.88	6	17.90	360	-0.7	96	-1.2	0	0	979.3	NA	0.0000		9999	5020	0	0	0
2019/04/12 06:07:00	BASE	16.05	8	17.90	360	-0.6	97	-1.1	0	0	979.3	NA	0.0000		9999	4920	0	0	0
2019/04/12 06:08:00	BASE	14.93	7	17.90	360	-0.6	97	-1.1	0	0	979.3	NA	0.0000		9999	4860	0	0	0
2019/04/12 06:09:00	BASE	14.57	2	17.54	7	-0.6	97	-1.1	0	0	979.3	NA	0.0000		9999	4760	0	0	0
2019/04/12 06:10:00	BASE	15.04	5	17.54	7	-0.6	96	-1.1	0	0	979.3	NA	0.0000		9999	4720	0	0	0
2019/04/12 06:11:00	BASE	15.22	9	17.54	7	-0.6	96	-1.1	0	0	979.3	NA	0.0000		9999	4950	0	0	0
2019/04/12 06:12:00	BASE	15.21	9	17.65	13	-0.6	96	-1.2	0	0	979.3	NA	0.0000		9999	4920	0	0	0
2019/04/12 06:13:00	BASE	14.74	7	17.65	13	-0.6	96	-1.2	0	0	979.3	NA	0.0000		9999	4760	0	0	0
2019/04/12 06:14:00	BASE	14.45	4	17.65	13	-0.6	96	-1.2	0	0	979.3	NA	0.0000		9999	4990	0	0	0
2019/04/12 06:15:00	BASE	14.44	6	17.65	13	-0.6	96	-1.2	0	0	979.2	NA	0.0000		9999	4690	5150	0	0
2019/04/12 06:16:00	BASE	15.52	9	17.65	13	-0.6	96	-1.2	0	0	979.2	NA	0.0000		9999	4860	0	0	0
2019/04/12 06:17:00	BASE	16.40	12	17.65	13	-0.6	96	-1.2	0	0	979.2	NA	0.0000		9999	4760	0	0	0
2019/04/12 06:18:00	BASE	16.33	12	17.80	10	-0.6	96	-1.2	0	0	979.2	NA	0.0000		9999	4760	0	0	0
2019/04/12 06:19:00	BASE	15.97	10	17.80	10	-0.6	96	-1.2	0	0	979.2	NA	0.0000		9999	4720	0	0	0
2019/04/12 06:20:00	BASE	15.38	12	17.80	10	-0.6	95	-1.3	0	0	979.2	NA	0.0000		9999	4760	0	0	0
2019/04/12 06:21:00	BASE	15.46	14	17.80	10	-0.7	95	-1.3	0	0	979.2	NA	0.0000		9999	4660	0	0	0
2019/04/12 06:22:00	BASE	15.23	13	17.80	10	-0.7	95	-1.4	0	0	979.2	NA	0.0000		9999	4820	0	0	0
2019/04/12 06:23:00	BASE	14.44	13	17.80	10	-0.7	95	-1.5	0	0	979.1	NA	0.0000		9999	4760	0	0	0
2019/04/12 06:24:00	BASE	14.91	16	18.78	25	-0.7	95	-1.5	0	0	979.1	NA	0.0000		9999	4690	0	0	0
2019/04/12 06:25:00	BASE	17.34	18	21.04	20	-0.7	95	-1.4	0	0	978.9	NA	0.0000		9999	4630	0	0	0
2019/04/12 06:26:00	BASE	19.70	19	22.43	24	-0.7	95	-1.4	0	0	978.8	NA	0.0000		9999	4790	0	0	0
2019/04/12 06:27:00	BASE	21.10	21	22.43	24	-0.6	95	-1.4	0	0	978.8	NA	0.0000		9999	4630	0	0	0
2019/04/12 06:28:00	BASE	21.22	21	22.43	24	-0.6	95	-1.3	0	0	978.7	NA	0.0000		9999	4660	0	0	0
2019/04/12 06:29:00	BASE	21.10	22	23.10	17	-0.5	95	-1.2	0	0	978.7	NA	0.0000		9999	4720	0	0	0
2019/04/12 06:30:00	BASE	21.84	23	23.41	24	-0.5	95	-1.3	0	0	978.7	NA	0.0000		9999	4690	0	0	0
2019/04/12 06:31:00	BASE	22.14	23	23.41	24	-0.5	95	-1.3	0	0	978.7	NA	0.0000		9999	4490	0	0	0
2019/04/12 06:32:00	BASE	22.00	22	23.41	20	-0.5	94	-1.3	0	0	978.6	NA	0.0000		9999	4690	0	0	0
2019/04/12 06:33:00	BASE	22.03	21	23.82	34	-0.5	94	-1.4	0	0	978.6	NA	0.0000		9999	4860	0	0	0
2019/04/12 06:34:00	BASE	22.00	21	23.82	34	-0.5	93	-1.4	0	0	978.6	NA	0.0000		9999	4920	0	0	0
2019/04/12 06:35:00	BASE	21.97	21	23.82	34	-0.5	93	-1.4	0	0	978.6	NA	0.0000		9999	0	0	0	0
2019/04/12 06:36:00	BASE	22.17	23	23.87	21	-0.5	93	-1.5	0	0	978.5	NA	0.0000		9999	0	0	0	0
2019/04/12 06:37:00	BASE	22.71	21	23.87	21	-0.5	93	-1.5	0	0	978.5	NA	0.0000		9999	0	0	0	0
2019/04/12 06:38:00	BASE	22.64	20	23.87	21	-0.5	93	-1.5	0	0	978.5	NA	0.0000		9999	0	0	0	0
2019/04/12 06:39:00	BASE	22.76	20	24.02	17	-0.5	93	-1.5	0	0	978.5	NA	0.0000		9999	4400	0	0	0
2019/04/12 06:40:00	BASE	22.81	20	24.02	17	-0.5	93	-1.6	0	0	978.5	NA	0.0000		9999	0	0	0	0
2019/04/12 06:41:00	BASE	22.77	20	24.69	19	-0.5	93	-1.5	0	0	978.4	NA	0.0000		9999	0	0	0	0
2019/04/12 06:42:00	BASE	23.39	18	24.69	19	-0.5	93	-1.5	0	0	978.4	NA	0.0000		9999	4590	0	0	0
2019/04/12 06:43:00	BASE	22.81	17	24.69	19	-0.5	93	-1.5	0	0	978.5	NA	0.0000		9999	4590	0	0	0
2019/04/12 06:44:00	BASE	22.42	16	24.69	19	-0.5	93	-1.5	0	0	978.5	NA	0.0000		9999	0	0	0	0
2019/04/12 06:45:00	BASE	22.82	15	24.69	19	-0.5	93	-1.5	0	0	978.4	NA	0.0000		9999	0	0	0	0
2019/04/12 06:46:00	BASE	21.99	14	24.69	19	-0.6	93	-1.5	0	0	978.5	NA	0.0000		9999	5050	0	0	0
2019/04/12 06:47:00	BASE	20.64	16	24.69	19	-0.6	93	-1.6	0	0	978.5	NA	0.0000		9999	4760	0	0	0
2019/04/12 06:48:00	BASE	20.63	15	24.69	19	-0.6	93	-1.6	0	0	978.5	NA	0.0000		9999	4590	0	0	0
2019/04/12 06:49:00	BASE	22.10	16	24.69	19	-0.7	93	-1.6	0	0	978.4	NA	0.0000		9999	4530	0	0	0
2019/04/12 06:50:00	BASE	22.69	18	24.69	19	-0.7	94	-1.6	0	0	978.4	NA	0.0000		9999	4590	0	0	0
2019/04/12 06:51:00	BASE	22.26	19	24.64	16	-0.7	94	-1.6	0	0	978.4	NA	0.0000		9999	4560	0	0	0
2019/04/12 06:52:00	BASE	22.19	18	24.44	14	-0.7	94	-1.5	0	0	978.3	NA	0.0000		9999	4330	0	0	0
2019/04/12 06:53:01	BASE	22.18	17	24.44	14	-0.7	94	-1.5	0	0	978.4	NA	0.0000		9999	4430	0	0	0
2019/04/12 06:54:00	BASE	22.33	18	24.28	15	-0.7	94	-1.5	0	0	978.3	NA	0.0000		9999	4360	0	0	0
2019/04/12 06:55:00	BASE	22.39	19	23.77	19	-0.7	94	-1.4	0	0	978.3	NA	0.0000		9999	4130	0	0	0
2019/04/12 06:56:00	BASE	22.64	19	23.87	18	-0.7	95	-1.4	0	0	978.3	NA	0.0000		9999	4000	0	0	0
2019/04/12 06:57:00	BASE	22.94	18	23.87	18	-0.6	95	-1.4	0	0	978.3	NA	0.0000		9999	3770	0	0	0
2019/04/12 06:58:00	BASE	22.76	18	23.97	14	-0.6	95	-1.3	0	0	978.2	NA	0.0000		9999	3310	0	0	0
2019/04/12 06:59:00	BASE	22.92	18	24.69	17	-0.6	95	-1.3	0	0	978.2	NA	0.0000		9999	4100	0	0	0
2019/04/12 07:00:00	BASE	23.26	19	24.69	17	-0.6	95	-1.3	0	0	978.2	NA	0.0000		9999	3020	3870	0	0
2019/04/12 07:01:00	BASE	23.45	19	24.69	17	-0.6	95	-1.3	0	0	978.1	NA	0.0000		9999	3080	4040	0	0
2019/04/12 07:02:00	BASE	22.82	18	24.69	17	-0.6	95	-1.3	0	0	978.2	NA	0.0000		9999	3810	0	0	0
2019/04/12 07:03:00	BASE	21.95	16	24.69	17	-0.6	95	-1.3	0	0	978.2	NA	0.0000		9999	3740	0	0	0
2019/04/12 07:04:00	BASE	21.82	16	24.69	17	-0.6	95	-1.3	0	0	978.2	NA	0.0000		9999	4100	4630	0	0
2019/04/12 07:05:00	BASE	22.49	17	24.69	17	-0.6	95	-1.3	0	0	978.1	NA	0.0000		9999	4100	0	0	0
2019/04/12 07:06:00	BASE	23.01	16	24.69	17	-0.6	95	-1.3	0	0	978.1	NA	0.0000		9999	4070	0	0	0
2019/04/12 07:07:00	BASE	22.45	15	24.69	17	-0.6	95	-1.3	0	0	978.1	NA	0.0000		9999	4400	0	0	0
2019/04/12 07:08:00	BASE	22.33	15	24.69	17	-0.6	96	-1.3	0	0	978.1	NA	0.0000		9999	4430	0	0	0
2019/04/12 07:09:00	BASE	22.70	17	24.64	22	-0.6	96	-1.2	0	0	978.1	NA	0.0000		9999	0	0	0	0
2019/04/12 07:10:00	BASE	23.69	18	25.46	15	-0.6	96	-1.2	0	0	978.0	NA	0.0000		9999	0	0	0	0
2019/04/12 07:11:00	BASE	24.09	18	25.46	15	-0.6	96	-1.2	0	0	978.1	NA	0.0000		9999	0	0	0	0
2019/04/12 07:12:00	BASE	23.28	17	25.46	15	-0.6	96	-1.2	0	0	978.1	NA	0.0000		9999	0	0	0	0
2019/04/12 07:13:00	BASE	22.92	17	25.46	15	-0.6	96	-1.2	0	0	978.1	NA	0.0000		9999	0	0	0	0
2019/04/12 07:14:00	BASE	22.87	17	25.46	15	-0.6	96	-1.2	0	0	978.1	NA	0.0000		9999	0	0	0	0
2019/04/12 07:15:00	BASE	22.70	17	25.46	15	-0.6	96	-1.2	0	0	978.1	NA	0.0000		9999	4560	0	0	0
2019/04/12 07:16:00	BASE	22.39	16	25.46	15	-0.6	96	-1.2	0	0	978.1	NA	0.0000		9999	0	0	0	0
2019/04/12 07:17:00	BASE	21.82	14	25.46	15	-0.7	96	-1.3	0	0	978.2	NA	0.0000		9999	0	0	0	0
2019/04/12 07:18:00	BASE	21.25	13	25.46	15	-0.7	95	-1.3	0	0	978.2	NA	0.0000		9999	0	0	0	0
2019/04/12 07:19:00	BASE	20.89	14	25.46	15	-0.7	95	-1.4	0	0	978.2	NA	0.0000		9999	0	0	0	0
2019/04/12 07:20:00	BASE	20.54	13	24.74	20	-0.7	95	-1.4	0	0	978.2	NA	0.0000		9999	0	0	0	0
2019/04/12 07:21:00	BASE	20.56	13	24.64	12	-0.7	95	-1.5	0	0	978.3	NA	0.0000		9999	0	0	0	0
2019/04/12 07:22:00	BASE	21.58	15	24.28	20	-0.7	94	-1.5	0	0	978.2	NA	0.0000		9999	0	0	0	0
2019/04/12 07:23:00	BASE	22.59	17	24.28	20	-0.7	94	-1.6	0	0	978.2	NA	0.0000		9999	3940	0	0	0
2019/04/12 07:24:00	BASE	21.94	17	24.08	18	-0.8	94	-1.6	0	0	978.3	NA	0.0000		9999	0	0	0	0
2019/04/12 07:25:00	BASE	21.59	19	24.08	18	-0.8	94	-1.6	0	0	978.3	NA	0.0000		9999	0	0	0	0
2019/04/12 07:26:00	BASE	22.16	20	24.44	19	-0.8	94	-1.6	0	0	978.2	NA	0.0000		9999	0	0	0	0
2019/04/12 07:27:00	BASE	22.27	18	24.44	19	-0.8	95	-1.5	0	0	978.2	NA	0.0000		9999	0	0	0	0
2019/04/12 07:28:00	BASE	22.01	16	24.44	19	-0.8	95	-1.5	0	0	978.3	NA	0.0000		9999	0	0	0	0
2019/04/12 07:29:00	BASE	21.62	16	24.44	19	-0.7	95	-1.4	0	0	978.3	NA	0.0000		9999	0	0	0	0
2019/04/12 07:30:00	BASE	21.27	15	24.44	19	-0.8	95	-1.5	0	0	978.3	NA	0.0000		9999	0	0	0	0
2019/04/12 07:31:00	BASE	20.78	15	24.44	19	-0.8	95	-1.5	0	0	978.3	NA	0.0000		9999	0	0	0	0
2019/04/12 07:32:00	BASE	20.74	16	24.44	19	-0.8	95	-1.5	0	0	978.3	NA	0.0000		9999	0	0	0	0
2019/04/12 07:33:00	BASE	20.70	15	24.44	19	-0.8	95	-1.5	0	0	978.3	NA	0.0000		9999	0	0	0	0
2019/04/12 07:34:00	BASE	21.25	14	24.44	19	-0.9	95	-1.6	0	0	978.3	NA	0.0000		9999	0	0	0	0
2019/04/12 07:35:00	BASE	22.11	12	25.10	6	-0.9	95	-1.7	0	0	978.3	NA	0.0000		9999	0	0	0	0
2019/04/12 07:36:00	BASE	21.51	11	25.10	6	-0.9	94	-1.7	0	0	978.3	NA	0.0000		9999	0	0	0	0
2019/04/12 07:37:00	BASE	20.85	9	25.10	6	-0.9	94	-1.7	0	0	978.3	NA	0.0000		9999	0	0	0	0
2019/04/12 07:38:00	BASE	21.38	10	25.10	6	-0.9	93	-1.8	0	0	978.2	NA	0.0000		9999	0	0	0	0
2019/04/12 07:39:00	BASE	21.20	12	25.10	6	-0.8	93	-1.8	0	0	978.3	NA	0.0000		9999	0	0	0	0
2019/04/12 07:40:00	BASE	20.56	12	25.10	6	-0.8	92	-1.9	0	0	978.2	NA	0.0000		9999	0	0	0	0
2019/04/12 07:41:00	BASE	20.32	12	25.10	6	-0.8	92	-2.0	0	0	978.3	NA	0.0000		9999	0	0	0	0
2019/04/12 07:42:00	BASE	20.63	11	25.10	6	-0.8	91	-2.0	0	0	978.2	NA	0.0000		9999	0	0	0	0
2019/04/12 07:43:00	BASE	20.41	12	25.10	6	-0.8	91	-2.1	0	0	978.3	NA	0.0000		9999	0	0	0	0
2019/04/12 07:44:00	BASE	20.47	13	25.10	6	-0.8	90	-2.2	0	0	978.2	NA	0.0000		9999	0	0	0	0
2019/04/12 07:45:00	BASE	21.26	13	23.51	8	-0.8	90	-2.2	0	0	978.2	NA	0.0000		9999	0	0	0	0
2019/04/12 07:46:00	BASE	21.70	13	24.18	15	-0.8	90	-2.2	0	0	978.2	NA	0.0000		9999	0	0	0	0
2019/04/12 07:47:00	BASE	22.49	14	24.18	15	-0.8	91	-2.2	0	0	978.1	NA	0.0000		9999	0	0	0	0
2019/04/12 07:48:00	BASE	22.32	14	24.18	15	-0.8	91	-2.1	0	0	978.1	NA	0.0000		9999	0	0	0	0
2019/04/12 07:49:00	BASE	22.30	14	24.18	15	-0.8	91	-2.1	0	0	978.1	NA	0.0000		9999	0	0	0	0
2019/04/12 07:50:00	BASE	23.08	15	25.46	14	-0.8	91	-2.1	0	0	978.1	NA	0.0000		9999	0	0	0	0
2019/04/12 07:51:00	BASE	23.40	15	25.46	14	-0.7	91	-2.1	0	0	978.1	NA	0.0000		9999	0	0	0	0
2019/04/12 07:52:00	BASE	23.13	15	26.03	15	-0.7	90	-2.1	0	0	978.1	NA	0.0000		9999	0	0	0	0
2019/04/12 07:53:00	BASE	23.24	15	26.03	15	-0.7	90	-2.1	0	0	978.1	NA	0.0000		9999	0	0	0	0
2019/04/12 07:54:00	BASE	23.71	15	26.03	15	-0.7	90	-2.1	0	0	978.1	NA	0.0000		9999	0	0	0	0
2019/04/12 07:55:00	BASE	23.46	17	26.03	15	-0.7	90	-2.1	0	0	978.1	NA	0.0000		9999	0	0	0	0
2019/04/12 07:56:00	BASE	23.23	16	26.03	15	-0.7	90	-2.1	0	0	978.1	NA	0.0000		9999	0	0	0	0
2019/04/12 07:57:00	BASE	23.48	16	26.03	15	-0.6	90	-2.1	0	0	978.1	NA	0.0000		9999	0	0	0	0
2019/04/12 07:58:00	BASE	22.82	16	26.03	15	-0.6	90	-2.1	0	0	978.2	NA	0.0000		9999	0	0	0	0
2019/04/12 07:59:00	BASE	22.08	16	26.03	15	-0.6	90	-2.0	0	0	978.2	NA	0.0000		9999	0	0	0	0
2019/04/12 08:00:00	BASE	22.03	16	26.03	15	-0.6	90	-2.0	0	0	978.2	NA	0.0000		9999	0	0	0	0
2019/04/12 08:01:00	BASE	22.98	16	26.03	15	-0.6	91	-1.9	0	0	978.2	NA	0.0000		9999	0	0	0	0
2019/04/12 08:02:00	BASE	23.60	16	25.57	19	-0.6	91	-1.9	0	0	978.2	NA	0.0000		9999	0	0	0	0
2019/04/12 08:03:00	BASE	22.75	17	25.57	19	-0.6	91	-1.9	0	0	978.3	NA	0.0000		9999	0	0	0	0
2019/04/12 08:04:00	BASE	21.50	17	25.10	10	-0.6	91	-1.9	0	0	978.3	NA	0.0000		9999	0	0	0	0
2019/04/12 08:05:00	BASE	21.93	19	25.10	10	-0.6	91	-1.9	0	0	978.2	NA	0.0000		9999	0	0	0	0
2019/04/12 08:06:00	BASE	22.76	21	25.10	10	-0.6	91	-1.8	0	0	978.3	NA	0.0000		9999	0	0	0	0
2019/04/12 08:07:00	BASE	22.69	20	25.10	10	-0.5	91	-1.8	0	0	978.3	NA	0.0000		9999	0	0	0	0
2019/04/12 08:08:00	BASE	22.82	20	25.10	10	-0.5	91	-1.8	0	0	978.3	NA	0.0000		9999	0	0	0	0
2019/04/12 08:09:00	BASE	22.38	20	25.10	10	-0.5	91	-1.8	0	0	978.3	NA	0.0000		9999	0	0	0	0
2019/04/12 08:10:00	BASE	21.56	20	25.10	10	-0.5	91	-1.8	0	0	978.3	NA	0.0000		9999	0	0	0	0
2019/04/12 08:11:00	BASE	21.19	21	24.69	17	-0.5	90	-1.8	0	0	978.3	NA	0.0000		9999	0	0	0	0
2019/04/12 08:12:00	BASE	21.07	23	24.69	17	-0.4	90	-1.9	0	0	978.3	NA	0.0000		9999	0	0	0	0
2019/04/12 08:13:00	BASE	20.67	22	24.69	17	-0.5	90	-2.0	0	0	978.3	NA	0.0000		9999	0	0	0	0
2019/04/12 08:14:00	BASE	20.79	20	24.69	17	-0.5	89	-2.0	0	0	978.2	NA	0.0000		9999	0	0	0	0
2019/04/12 08:15:00	BASE	20.77	21	24.69	17	-0.4	89	-2.1	0	0	978.2	NA	0.0000		9999	0	0	0	0
2019/04/12 08:16:00	BASE	21.07	20	24.69	17	-0.4	88	-2.1	0	0	978.2	NA	0.0000		9999	0	0	0	0
2019/04/12 08:17:00	BASE	22.08	19	23.97	19	-0.4	88	-2.2	0	0	978.2	NA	0.0000		9999	0	0	0	0
2019/04/12 08:18:00	BASE	21.63	20	23.72	21	-0.3	87	-2.2	0	0	978.2	NA	0.0000		9999	0	0	0	0
2019/04/12 08:19:00	BASE	20.28	22	23.72	21	-0.3	87	-2.3	0	0	978.2	NA	0.0000		9999	0	0	0	0
2019/04/12 08:20:00	BASE	19.89	22	23.72	21	-0.3	86	-2.3	0	0	978.2	NA	0.0000		9999	0	0	0	0
2019/04/12 08:21:00	BASE	19.83	22	23.72	21	-0.4	86	-2.4	0	0	978.3	NA	0.0000		9999	10600	0	0	0
2019/04/12 08:22:00	BASE	19.87	22	23.72	21	-0.4	86	-2.4	0	0	978.2	NA	0.0000		9999	10790	11840	0	0
2019/04/12 08:23:00	BASE	20.14	22	23.72	21	-0.4	86	-2.4	0	0	978.3	NA	0.0000		9999	10370	0	0	0
2019/04/12 08:24:00	BASE	20.11	22	23.61	17	-0.4	86	-2.4	0	0	978.3	NA	0.0000		9999	10300	0	0	0
2019/04/12 08:25:00	BASE	20.60	23	23.61	17	-0.4	86	-2.4	0	0	978.2	NA	0.0000		9999	11610	0	0	0
2019/04/12 08:26:00	BASE	21.09	23	23.05	17	-0.4	86	-2.4	0	0	978.2	NA	0.0000		9999	11710	13980	0	0
2019/04/12 08:27:00	BASE	21.01	24	22.79	20	-0.4	86	-2.4	0	0	978.2	NA	0.0000		9999	10340	0	0	0
2019/04/12 08:28:00	BASE	20.70	24	22.79	20	-0.4	86	-2.4	0	0	978.2	NA	0.0000		9999	13120	0	0	0
2019/04/12 08:29:00	BASE	20.02	26	22.79	20	-0.4	86	-2.4	0	0	978.2	NA	0.0000		9999	10340	11160	13090	0
2019/04/12 08:30:00	BASE	19.59	28	22.79	20	-0.4	87	-2.4	0	0	978.2	NA	0.0000		9999	9880	11120	0	0
2019/04/12 08:31:00	BASE	19.07	26	22.79	20	-0.4	87	-2.4	0	0	978.2	NA	0.0000		9999	9650	0	0	0
2019/04/12 08:32:00	BASE	18.85	26	22.79	20	-0.5	87	-2.4	0	0	978.2	NA	0.0000		9999	9650	0	0	0
2019/04/12 08:33:00	BASE	18.00	28	22.79	20	-0.5	87	-2.4	0	0	978.3	NA	0.0000		9999	9710	0	0	0
2019/04/12 08:34:00	BASE	18.30	29	22.79	20	-0.5	87	-2.4	0	0	978.2	NA	0.0000		9999	9610	0	0	0
2019/04/12 08:35:00	BASE	19.53	29	22.79	20	-0.4	86	-2.4	0	0	978.2	NA	0.0000		9999	9510	0	0	0
2019/04/12 08:36:00	BASE	19.31	28	22.28	24	-0.4	86	-2.4	0	0	978.2	NA	0.0000		9999	9480	0	0	0
2019/04/12 08:37:00	BASE	19.35	27	22.17	19	-0.4	86	-2.4	0	0	978.2	NA	0.0000		9999	9420	0	0	0
2019/04/12 08:38:00	BASE	19.57	28	22.94	29	-0.4	86	-2.4	0	0	978.3	NA	0.0000		9999	9420	0	0	0
2019/04/12 08:39:00	BASE	19.29	26	22.94	29	-0.3	86	-2.4	0	0	978.3	NA	0.0000		9999	9380	0	0	0
2019/04/12 08:40:00	BASE	18.87	26	22.94	29	-0.3	86	-2.4	0	0	978.3	NA	0.0000		9999	9320	0	0	0
2019/04/12 08:41:00	BASE	19.04	26	22.94	29	-0.3	86	-2.4	0	0	978.3	NA	0.0000		9999	9350	0	0	0
2019/04/12 08:42:00	BASE	19.45	26	22.94	29	-0.3	86	-2.4	0	0	978.3	NA	0.0000		9999	9190	0	0	0
2019/04/12 08:43:00	BASE	19.32	27	22.94	29	-0.3	86	-2.4	0	0	978.4	NA	0.0000		9999	9020	0	0	0
2019/04/12 08:44:00	BASE	18.36	27	22.94	29	-0.3	86	-2.4	0	0	978.4	NA	0.0000		9999	8960	0	0	0
2019/04/12 08:45:00	BASE	18.58	28	22.94	29	-0.4	86	-2.5	0	0	978.4	NA	0.0000		9999	8890	0	0	0
2019/04/12 08:46:00	BASE	18.87	29	22.94	29	-0.4	86	-2.5	0	0	978.4	NA	0.0000		9999	7320	8860	0	0
2019/04/12 08:47:00	BASE	18.62	30	22.94	29	-0.4	86	-2.5	0	0	978.4	NA	0.0000		9999	7420	0	0	0
2019/04/12 08:48:00	BASE	18.08	31	21.61	21	-0.4	86	-2.5	0	0	978.5	NA	0.0000		9999	7420	9510	0	0
2019/04/12 08:49:00	BASE	17.19	29	21.35	20	-0.4	86	-2.5	0	0	978.5	NA	0.0000		9999	7280	0	0	0
2019/04/12 08:50:00	BASE	16.94	27	21.35	20	-0.4	86	-2.5	0	0	978.5	NA	0.0000		9999	8790	12040	0	0
2019/04/12 08:51:00	BASE	17.76	27	21.35	20	-0.4	85	-2.6	0	0	978.4	NA	0.0000		9999	7680	0	0	0
2019/04/12 08:52:00	BASE	18.20	28	21.35	20	-0.4	85	-2.6	0	0	978.4	NA	0.0000		9999	7550	0	0	0
2019/04/12 08:53:00	BASE	17.36	29	20.94	33	-0.4	85	-2.6	0	0	978.5	NA	0.0000		9999	6690	0	0	0
2019/04/12 08:54:00	BASE	17.88	28	20.94	33	-0.4	85	-2.6	0	0	978.4	NA	0.0000		9999	6270	0	0	0
2019/04/12 08:55:00	BASE	18.09	28	20.94	33	-0.4	85	-2.6	0	0	978.4	NA	0.0000		9999	8830	9710	0	0
2019/04/12 08:56:00	BASE	17.23	31	20.94	33	-0.4	85	-2.6	0	0	978.4	NA	0.0000		9999	8860	9780	0	0
2019/04/12 08:57:00	BASE	17.79	32	20.94	33	-0.4	85	-2.6	0	0	978.4	NA	0.0000		9999	8630	9780	0	0
2019/04/12 08:58:00	BASE	18.41	28	22.07	23	-0.4	85	-2.6	0	0	978.4	NA	0.0000		9999	8460	9910	0	0
2019/04/12 08:59:00	BASE	18.01	29	22.07	23	-0.5	85	-2.6	0	0	978.4	NA	0.0000		9999	9910	0	0	0
2019/04/12 09:00:00	BASE	18.83	28	22.38	24	-0.5	86	-2.6	0	0	978.4	NA	0.0000		9999	7220	8830	9840	0
2019/04/12 09:01:00	BASE	19.76	27	22.38	24	-0.5	86	-2.6	0	0	978.4	NA	0.0000		9999	6990	8140	9680	0
2019/04/12 09:02:00	BASE	18.60	28	22.38	24	-0.5	86	-2.5	0	0	978.4	NA	0.0000		9999	7050	9190	0	0
2019/04/12 09:03:01	BASE	18.24	27	22.38	24	-0.5	86	-2.6	0	0	978.4	NA	0.0000		9999	7150	7910	0	0
2019/04/12 09:04:00	BASE	17.92	30	22.38	24	-0.5	85	-2.6	0	0	978.5	NA	0.0000		9999	7020	0	0	0
2019/04/12 09:05:00	BASE	16.97	30	22.38	24	-0.5	85	-2.6	0	0	978.4	NA	0.0000		9999	7840	0	0	0
2019/04/12 09:06:00	BASE	17.12	29	22.38	24	-0.5	85	-2.7	0	0	978.4	NA	0.0000		9999	7810	0	0	0
2019/04/12 09:07:00	BASE	17.82	28	22.38	24	-0.5	85	-2.7	0	0	978.4	NA	0.0000		9999	7840	0	0	0
2019/04/12 09:08:00	BASE	18.14	28	22.38	24	-0.5	85	-2.7	0	0	978.4	NA	0.0000		9999	7910	10340	0	0
2019/04/12 09:09:00	BASE	17.39	30	22.38	24	-0.5	85	-2.7	0	0	978.4	NA	0.0000		9999	7840	10240	0	0
2019/04/12 09:10:00	BASE	17.36	30	21.04	29	-0.5	85	-2.7	0	0	978.4	NA	0.0000		9999	7780	0	0	0
2019/04/12 09:11:00	BASE	17.88	34	20.68	28	-0.5	85	-2.7	0	0	978.3	NA	0.0000		9999	7710	0	0	0
2019/04/12 09:12:00	BASE	17.87	37	20.68	28	-0.5	85	-2.7	0	0	978.4	NA	0.0000		9999	7680	0	0	0
2019/04/12 09:13:00	BASE	17.51	35	20.68	28	-0.5	85	-2.7	0	0	978.3	NA	0.0000		9999	7680	0	0	0
2019/04/12 09:14:00	BASE	17.56	33	20.68	28	-0.5	85	-2.7	0	0	978.4	NA	0.0000		9999	7580	0	0	0
2019/04/12 09:15:00	BASE	17.70	33	20.68	28	-0.5	85	-2.7	0	0	978.3	NA	0.0000		9999	7710	9740	0	0
2019/04/12 09:16:00	BASE	17.58	32	20.68	28	-0.5	85	-2.7	0	0	978.3	NA	0.0000		9999	9510	0	0	0
2019/04/12 09:17:00	BASE	17.12	32	20.37	35	-0.5	85	-2.8	0	0	978.3	NA	0.0000		9999	7640	9480	0	0
2019/04/12 09:18:00	BASE	17.05	33	20.37	35	-0.5	84	-2.8	0	0	978.3	NA	0.0000		9999	9190	0	0	0
2019/04/12 09:19:00	BASE	17.28	36	20.37	35	-0.5	84	-2.8	0	0	978.3	NA	0.0000		9999	7870	9380	0	0
2019/04/12 09:20:00	BASE	16.58	38	20.37	35	-0.5	84	-2.9	0	0	978.2	NA	0.0000		9999	7640	9450	0	0
2019/04/12 09:21:00	BASE	16.54	36	20.37	35	-0.5	84	-2.9	0	0	978.3	NA	0.0000		9999	7510	0	0	0
2019/04/12 09:22:00	BASE	16.39	33	20.37	35	-0.5	84	-2.8	0	0	978.3	NA	0.0000		9999	7580	0	0	0
2019/04/12 09:23:00	BASE	17.11	34	20.37	35	-0.5	84	-2.8	0	0	978.2	NA	0.0000		9999	7580	0	0	0
2019/04/12 09:24:00	BASE	17.82	36	20.06	35	-0.4	84	-2.8	0	0	978.2	NA	0.0000		9999	7580	0	0	0
2019/04/12 09:25:00	BASE	16.51	36	20.06	35	-0.4	84	-2.8	0	0	978.2	NA	0.0000		9999	7580	0	0	0
2019/04/12 09:26:00	BASE	15.86	35	20.06	35	-0.4	83	-2.9	0	0	978.2	NA	0.0000		9999	7640	0	0	0
2019/04/12 09:27:00	BASE	16.18	33	20.06	35	-0.4	83	-2.9	0	0	978.2	NA	0.0000		9999	7510	0	0	0
2019/04/12 09:28:00	BASE	16.09	34	20.06	35	-0.4	83	-2.9	0	0	978.2	NA	0.0000		9999	7550	0	0	0
2019/04/12 09:29:00	BASE	16.43	37	20.06	35	-0.4	83	-2.9	0	0	978.1	NA	0.0000		9999	7450	0	0	0
2019/04/12 09:30:00	BASE	17.48	37	20.06	30	-0.4	83	-2.9	0	0	978.1	NA	0.0000		9999	7580	0	0	0
2019/04/12 09:31:00	BASE	17.65	35	20.06	30	-0.4	83	-2.9	0	0	978.1	NA	0.0000		9999	7580	0	0	0
2019/04/12 09:32:00	BASE	16.62	34	20.06	30	-0.4	83	-2.9	0	0	978.2	NA	0.0000		9999	7610	0	0	0
2019/04/12 09:33:00	BASE	16.12	35	20.06	30	-0.4	83	-2.9	0	0	978.2	NA	0.0000		9999	7740	0	0	0
2019/04/12 09:34:00	BASE	16.47	36	20.06	30	-0.4	83	-2.9	0	0	978.2	NA	0.0000		9999	7710	0	0	0
2019/04/12 09:35:00	BASE	15.94	35	20.06	30	-0.3	83	-2.9	0	0	978.2	NA	0.0000		9999	7710	0	0	0
2019/04/12 09:36:00	BASE	15.10	35	20.06	30	-0.3	83	-2.9	0	0	978.2	NA	0.0000		9999	7740	0	0	0
2019/04/12 09:37:00	BASE	15.04	35	20.06	30	-0.3	83	-2.9	0	0	978.1	NA	0.0000		9999	7580	0	0	0
2019/04/12 09:38:00	BASE	15.27	34	20.06	30	-0.3	82	-3.0	0	0	978.1	NA	0.0000		9999	7680	0	0	0
2019/04/12 09:39:00	BASE	15.76	36	20.06	30	-0.3	82	-3.0	0	0	978.1	NA	0.0000		9999	7640	0	0	0
2019/04/12 09:40:00	BASE	16.82	38	19.86	30	-0.3	82	-3.1	0	0	978.1	NA	0.0000		9999	7680	0	0	0
2019/04/12 09:41:00	BASE	17.52	41	19.14	44	-0.3	81	-3.1	0	0	978.1	NA	0.0000		9999	7710	0	0	0
2019/04/12 09:42:00	BASE	15.91	39	19.14	44	-0.2	81	-3.2	0	0	978.0	NA	0.0000		9999	7710	0	0	0
2019/04/12 09:43:00	BASE	14.41	38	19.14	44	-0.2	80	-3.3	0	0	978.0	NA	0.0000		9999	7680	0	0	0
2019/04/12 09:44:00	BASE	15.34	39	19.14	44	-0.2	80	-3.3	0	0	978.0	NA	0.0000		9999	7680	0	0	0
2019/04/12 09:45:00	BASE	15.87	41	19.14	44	-0.2	79	-3.4	0	0	978.0	NA	0.0000		9999	7640	0	0	0
2019/04/12 09:46:00	BASE	14.47	40	19.14	44	-0.2	78	-3.5	0	0	978.0	NA	0.0000		9999	7610	0	0	0
2019/04/12 09:47:00	BASE	13.69	36	19.14	44	-0.2	78	-3.5	0	0	978.0	NA	0.0000		9999	7710	0	0	0
2019/04/12 09:48:00	BASE	14.45	36	19.14	44	-0.1	77	-3.6	0	0	977.9	NA	0.0000		9999	7640	0	0	0
2019/04/12 09:49:00	BASE	15.20	38	19.14	44	-0.1	77	-3.7	0	0	977.9	NA	0.0000		9999	7680	0	0	0
2019/04/12 09:50:00	BASE	16.01	38	19.14	44	-0.1	77	-3.7	0	0	977.9	NA	0.0000		9999	7810	0	0	0
2019/04/12 09:51:00	BASE	15.23	37	17.70	40	-0.1	77	-3.7	0	0	978.0	NA	0.0000		9999	7510	0	0	0
2019/04/12 09:52:00	BASE	14.57	35	17.70	40	-0.1	77	-3.6	0	0	978.0	NA	0.0000		9999	7640	0	0	0
2019/04/12 09:53:00	BASE	14.68	33	17.70	40	-0.1	78	-3.5	0	0	978.0	NA	0.0000		9999	7120	0	0	0
2019/04/12 09:54:00	BASE	15.04	32	17.70	40	-0.2	79	-3.4	0	0	978.0	NA	0.0000		9999	6200	0	0	0
2019/04/12 09:55:00	BASE	16.04	34	17.70	40	-0.2	79	-3.3	0	0	978.0	NA	0.0000		9999	5710	0	0	0
2019/04/12 09:56:00	BASE	15.64	35	17.70	40	-0.2	79	-3.3	0	0	978.0	NA	0.0000		9999	5380	0	0	0
2019/04/12 09:57:00	BASE	15.48	34	17.70	40	-0.1	79	-3.3	0	0	978.0	NA	0.0000		9999	5090	0	0	0
2019/04/12 09:58:00	BASE	16.01	33	18.26	34	-0.1	78	-3.4	0	0	977.9	NA	0.0000		9999	4690	6400	0	0
2019/04/12 09:59:00	BASE	16.28	33	18.26	34	-0.1	78	-3.5	0	0	977.9	NA	0.0000		9999	4560	7020	0	0
2019/04/12 10:00:00	BASE	16.31	33	18.26	34	-0.1	77	-3.7	0	0	977.9	NA	0.0000		9999	4460	0	0	0
2019/04/12 10:01:00	BASE	16.04	33	18.26	34	-0.1	76	-3.8	0	0	977.9	NA	0.0000		9999	6730	0	0	0
2019/04/12 10:02:00	BASE	15.77	33	18.26	34	-0.1	75	-3.9	0	0	977.9	NA	0.0000		9999	6300	0	0	0
2019/04/12 10:03:00	BASE	15.39	34	18.26	34	-0.1	75	-4.0	0	0	977.8	NA	0.0000		9999	6040	0	0	0
2019/04/12 10:04:00	BASE	15.70	34	18.26	34	-0.1	74	-4.1	0	0	977.8	NA	0.0000		9999	5610	0	0	0
2019/04/12 10:05:00	BASE	15.84	34	18.26	34	-0.1	74	-4.2	0	0	977.8	NA	0.0000		9999	5180	0	0	0
2019/04/12 10:06:00	BASE	15.95	34	18.26	34	-0.1	73	-4.3	0	0	977.8	NA	0.0000		9999	4790	0	0	0
2019/04/12 10:07:00	BASE	15.19	33	18.26	34	-0.0	73	-4.3	0	0	977.8	NA	0.0000		9999	4490	0	0	0
2019/04/12 10:08:00	BASE	14.67	32	18.11	31	-0.0	73	-4.4	0	0	977.8	NA	0.0000		9999	4330	0	0	0
2019/04/12 10:09:00	BASE	15.79	32	18.11	31	0.0	72	-4.4	0	0	977.8	NA	0.0000		9999	5220	0	0	0
2019/04/12 10:10:00	BASE	16.15	33	18.57	36	0.0	72	-4.4	0	0	977.8	NA	0.0000		9999	3450	0	0	0
2019/04/12 10:11:00	BASE	15.94	32	18.57	36	0.0	72	-4.5	0	0	977.8	NA	0.0000		9999	4300	0	0	0
2019/04/12 10:12:00	BASE	16.05	33	18.57	36	0.0	72	-4.5	0	0	977.8	NA	0.0000		9999	2200	0	0	0
2019/04/12 10:13:00	BASE	15.37	34	18.57	36	0.1	71	-4.5	0	0	977.8	NA	0.0000		9999	6890	0	0	0
2019/04/12 10:14:00	BASE	14.70	34	18.57	36	0.1	71	-4.6	0	0	977.9	NA	0.0000		9999	6860	0	0	0
2019/04/12 10:15:00	BASE	15.03	33	18.57	36	0.1	71	-4.7	0	0	977.8	NA	0.0000		9999	6760	0	0	0
2019/04/12 10:16:00	BASE	14.94	34	18.57	36	0.0	70	-4.7	0	0	977.8	NA	0.0000		9999	6660	0	0	0
2019/04/12 10:17:00	BASE	14.90	37	18.57	36	0.0	70	-4.8	0	1	977.8	NA	0.0000		9999	6560	0	0	0
2019/04/12 10:18:00	BASE	14.95	37	18.57	36	-0.0	70	-4.8	0	0	977.8	NA	0.0000		9999	6500	0	0	0
2019/04/12 10:19:00	BASE	13.94	37	18.57	36	-0.0	70	-4.8	0	0	977.8	NA	0.0000		9999	6430	0	0	0
2019/04/12 10:20:00	BASE	13.08	39	17.70	29	-0.0	70	-4.9	0	0	977.8	NA	0.0000		9999	6400	0	0	0
2019/04/12 10:21:00	BASE	13.49	39	17.08	32	-0.1	70	-4.9	0	0	977.7	NA	0.0000		9999	6430	0	0	0
2019/04/12 10:22:00	BASE	13.58	39	17.08	32	-0.1	70	-4.9	0	0	977.7	NA	0.0000		9999	6400	0	0	0
2019/04/12 10:23:00	BASE	13.84	38	17.08	32	-0.1	70	-4.9	0	0	977.7	NA	0.0000		9999	6400	0	0	0
2019/04/12 10:24:00	BASE	13.23	37	16.77	36	-0.1	70	-4.9	0	0	977.7	NA	0.0000		9999	6270	0	0	0
2019/04/12 10:25:00	BASE	13.02	38	16.77	36	-0.0	69	-5.0	0	0	977.7	NA	0.0000		9999	6200	0	0	0
2019/04/12 10:26:00	BASE	14.35	36	16.87	33	-0.0	69	-5.0	0	0	977.6	NA	0.0000		9999	6100	0	0	0
2019/04/12 10:27:00	BASE	14.37	34	16.87	33	-0.0	69	-5.0	0	0	977.6	NA	0.0000		9999	6140	0	0	0
2019/04/12 10:28:00	BASE	13.55	32	16.87	33	-0.0	69	-5.1	0	0	977.6	NA	0.0000		9999	6170	0	0	0
2019/04/12 10:29:00	BASE	13.44	31	16.87	33	-0.0	69	-5.1	0	0	977.6	NA	0.0000		9999	6100	0	0	0
2019/04/12 10:30:00	BASE	14.46	31	16.87	33	-0.0	69	-5.1	0	0	977.6	NA	0.0000		9999	6170	0	0	0
2019/04/12 10:31:00	BASE	14.63	30	16.98	32	-0.0	69	-5.1	0	0	977.6	NA	0.0000		9999	6140	0	0	0
2019/04/12 10:32:00	BASE	13.74	29	16.98	32	-0.1	69	-5.1	0	0	977.6	NA	0.0000		9999	6140	0	0	0
2019/04/12 10:33:00	BASE	14.48	28	17.03	25	-0.1	69	-5.1	0	0	977.5	NA	0.0000		9999	6170	0	0	0
2019/04/12 10:34:00	BASE	15.78	29	17.39	31	-0.1	69	-5.1	0	0	977.5	NA	0.0000		9999	6140	0	0	0
2019/04/12 10:35:00	BASE	16.08	28	18.26	34	-0.1	69	-5.1	0	0	977.4	NA	0.0000		9999	6200	0	0	0
2019/04/12 10:36:00	BASE	16.14	28	18.26	34	-0.1	69	-5.2	0	0	977.5	NA	0.0000		9999	6430	0	0	0
2019/04/12 10:37:00	BASE	16.05	28	18.26	34	-0.0	68	-5.2	0	0	977.4	NA	0.0000		9999	6400	0	0	0
2019/04/12 10:38:00	BASE	15.77	28	18.26	34	0.0	68	-5.2	0	0	977.4	NA	0.0000		9999	6400	0	0	0
2019/04/12 10:39:00	BASE	16.15	27	18.31	24	0.1	68	-5.2	0	0	977.4	NA	0.0000		9999	6430	0	0	0
2019/04/12 10:40:00	BASE	16.15	28	18.31	24	0.1	67	-5.3	0	0	977.4	NA	0.0000		9999	6330	0	0	0
2019/04/12 10:41:00	BASE	15.02	28	18.31	24	0.1	67	-5.3	0	0	977.4	NA	0.0000		9999	6430	0	0	0
2019/04/12 10:42:00	BASE	15.52	28	18.57	26	0.2	66	-5.4	0	0	977.4	NA	0.0000		9999	6330	0	0	0
2019/04/12 10:43:00	BASE	16.56	28	18.88	26	0.2	66	-5.4	0	0	977.4	NA	0.0000		9999	6330	0	0	0
2019/04/12 10:44:00	BASE	16.82	26	18.93	24	0.2	66	-5.4	0	0	977.3	NA	0.0000		9999	6230	0	0	0
2019/04/12 10:45:00	BASE	16.86	26	18.93	24	0.2	66	-5.4	0	0	977.3	NA	0.0000		9999	6230	0	0	0
2019/04/12 10:46:00	BASE	16.44	26	18.93	24	0.2	66	-5.4	0	0	977.3	NA	0.0000		9999	6230	0	0	0
2019/04/12 10:47:00	BASE	15.98	29	18.93	24	0.2	66	-5.5	0	0	977.3	NA	0.0000		9999	6330	0	0	0
2019/04/12 10:48:00	BASE	15.68	28	18.93	24	0.2	65	-5.5	0	0	977.3	NA	0.0000		9999	6370	0	0	0
2019/04/12 10:49:00	BASE	15.58	27	18.93	24	0.2	65	-5.6	0	0	977.3	NA	0.0000		9999	6270	0	0	0
2019/04/12 10:50:00	BASE	15.46	27	18.93	24	0.2	65	-5.7	0	0	977.3	NA	0.0000		9999	6200	0	0	0
2019/04/12 10:51:00	BASE	14.95	26	18.93	24	0.2	64	-5.7	0	0	977.3	NA	0.0000		9999	6330	0	0	0
2019/04/12 10:52:00	BASE	14.49	26	18.93	24	0.2	64	-5.7	0	0	977.3	NA	0.0000		9999	6400	0	0	0
2019/04/12 10:53:00	BASE	13.80	27	18.93	24	0.2	65	-5.7	0	0	977.3	NA	0.0000		9999	6370	0	0	0
2019/04/12 10:54:00	BASE	13.32	28	18.26	25	0.1	65	-5.7	0	0	977.3	NA	0.0000		9999	6300	0	0	0
2019/04/12 10:55:00	BASE	14.39	25	18.21	26	0.1	65	-5.7	0	0	977.2	NA	0.0000		9999	6660	0	0	0
2019/04/12 10:56:00	BASE	15.16	25	18.21	26	0.1	65	-5.7	0	0	977.2	NA	0.0000		9999	6430	0	0	0
2019/04/12 10:57:00	BASE	14.66	28	17.95	28	0.0	65	-5.7	0	0	977.2	NA	0.0000		9999	6270	7350	0	0
2019/04/12 10:58:00	BASE	14.12	28	17.95	28	-0.0	66	-5.7	0	0	977.2	NA	0.0000		9999	6370	7150	0	0
2019/04/12 10:59:00	BASE	13.86	27	17.95	28	-0.0	66	-5.7	0	0	977.1	NA	0.0000		9999	6430	7120	0	0
2019/04/12 11:00:00	BASE	15.02	27	17.95	28	-0.1	66	-5.7	0	0	977.1	NA	0.0000		9999	0	0	0	0
2019/04/12 11:01:00	BASE	15.77	28	17.95	28	-0.1	66	-5.7	1	0	977.1	NA	0.0000		9999	6790	0	0	0
2019/04/12 11:02:00	BASE	15.34	29	17.95	28	-0.1	66	-5.7	1	0	977.1	NA	0.0000		9999	6820	0	0	0
2019/04/12 11:03:00	BASE	15.39	29	17.95	28	-0.0	66	-5.7	1	0	977.1	NA	0.0000		9999	6960	0	0	0
2019/04/12 11:04:00	BASE	15.67	29	17.95	28	-0.0	66	-5.7	1	0	977.1	NA	0.0000		9999	6960	7810	0	0
2019/04/12 11:05:00	BASE	15.60	29	17.95	28	-0.0	66	-5.7	1	1	977.1	NA	0.0000		9999	6760	0	0	0
2019/04/12 11:06:00	BASE	15.68	27	17.65	27	-0.0	66	-5.7	1	0	977.0	NA	0.0000		9999	6690	0	0	0
2019/04/12 11:07:00	BASE	15.25	27	17.65	27	-0.0	65	-5.7	1	0	977.1	NA	0.0000		9999	6630	0	0	0
2019/04/12 11:08:00	BASE	14.57	26	17.65	27	-0.1	66	-5.7	1	0	977.1	NA	0.0000		9999	6630	0	0	0
2019/04/12 11:09:00	BASE	14.66	28	17.65	27	-0.1	66	-5.7	1	0	977.1	NA	0.0000		9999	6790	0	0	0
2019/04/12 11:10:00	BASE	14.28	31	17.29	25	-0.1	66	-5.7	1	0	977.1	NA	0.0000		9999	6820	0	0	0
2019/04/12 11:11:00	BASE	13.58	35	17.29	25	-0.1	67	-5.6	1	0	977.1	NA	0.0000		9999	6790	0	0	0
2019/04/12 11:12:00	BASE	14.04	34	17.29	25	-0.1	67	-5.6	1	0	977.1	NA	0.0000		9999	6790	0	0	0
2019/04/12 11:13:00	BASE	14.53	34	17.08	30	-0.1	66	-5.6	2	0	977.2	NA	0.0000		9999	6860	0	0	0
2019/04/12 11:14:00	BASE	14.02	37	17.08	30	-0.1	66	-5.7	2	0	977.2	NA	0.0000		9999	6630	0	0	0
2019/04/12 11:15:00	BASE	14.04	38	17.08	30	-0.1	66	-5.7	2	0	977.1	NA	0.0000		9999	6690	0	0	0
2019/04/12 11:16:00	BASE	13.92	38	16.46	28	-0.1	65	-5.8	2	0	977.1	NA	0.0000		9999	6530	0	0	0
2019/04/12 11:17:00	BASE	13.62	39	16.46	28	-0.1	65	-5.8	2	0	977.1	NA	0.0000		9999	6560	0	0	0
2019/04/12 11:18:00	BASE	13.82	42	16.05	37	-0.1	65	-5.8	2	0	977.1	NA	0.0000		9999	6400	0	0	0
2019/04/12 11:19:00	BASE	14.01	45	16.05	37	-0.1	65	-5.8	3	0	977.0	NA	0.0000		9999	6000	0	0	0
2019/04/12 11:20:00	BASE	13.15	46	15.79	27	-0.1	65	-5.8	3	0	977.0	NA	0.0000		9999	5970	0	0	0
2019/04/12 11:21:00	BASE	13.31	46	15.79	27	-0.1	66	-5.7	4	0	977.0	NA	0.0000		9999	5910	0	0	0
2019/04/12 11:22:00	BASE	14.56	44	15.64	37	-0.1	66	-5.7	5	0	977.0	NA	0.0000		9999	5910	0	0	0
2019/04/12 11:23:00	BASE	13.95	41	15.64	37	-0.1	66	-5.7	6	0	977.0	NA	0.0000		9999	5870	0	0	0
2019/04/12 11:24:00	BASE	13.46	40	15.64	37	-0.1	66	-5.6	6	0	976.9	NA	0.0000		9999	6140	0	0	0
2019/04/12 11:25:00	BASE	14.13	40	16.20	38	-0.0	66	-5.6	7	0	976.9	NA	0.0000		9999	6200	6920	0	0
2019/04/12 11:26:00	BASE	14.17	39	16.20	38	0.1	66	-5.6	6	0	976.9	NA	0.0000		9999	6860	0	0	0
2019/04/12 11:27:00	BASE	14.00	39	16.20	38	0.1	66	-5.6	6	0	977.0	NA	0.0000		9999	6300	7090	0	0
2019/04/12 11:28:00	BASE	13.77	39	16.20	38	0.2	65	-5.6	6	0	976.9	NA	0.0000		9999	6590	0	0	0
2019/04/12 11:29:00	BASE	13.68	38	16.20	38	0.2	65	-5.6	6	0	976.9	NA	0.0000		9999	6430	0	0	0
2019/04/12 11:30:00	BASE	13.74	40	16.20	38	0.2	65	-5.6	5	0	977.0	NA	0.0000		9999	7710	0	0	0
2019/04/12 11:31:00	BASE	13.72	39	16.20	38	0.2	65	-5.6	6	0	977.0	NA	0.0000		9999	7840	0	0	0
2019/04/12 11:32:00	BASE	14.97	37	18.11	32	0.2	65	-5.6	6	0	977.0	NA	0.0000		9999	8040	0	0	0
2019/04/12 11:33:00	BASE	14.87	38	18.11	32	0.2	65	-5.6	6	0	977.0	NA	0.0000		9999	5220	0	0	0
2019/04/12 11:34:00	BASE	14.21	37	18.31	37	0.2	65	-5.7	7	0	977.0	NA	0.0000		9999	5150	0	0	0
2019/04/12 11:35:00	BASE	15.90	36	18.88	40	0.2	65	-5.7	7	0	976.8	NA	0.0000		9999	5090	7420	0	0
2019/04/12 11:36:00	BASE	17.08	37	18.88	40	0.3	64	-5.7	8	0	976.8	NA	0.0000		9999	5090	7090	0	0
2019/04/12 11:37:00	BASE	16.51	39	18.88	40	0.3	64	-5.7	9	0	976.8	NA	0.0000		9999	6960	0	0	0
2019/04/12 11:38:00	BASE	15.92	39	18.88	40	0.3	64	-5.7	10	0	976.8	NA	0.0000		9999	6690	0	0	0
2019/04/12 11:39:00	BASE	16.38	40	19.24	30	0.3	64	-5.8	12	0	976.7	NA	0.0000		9999	5050	6990	0	0
2019/04/12 11:40:00	BASE	16.74	42	19.24	30	0.4	63	-5.8	12	0	976.7	NA	0.0000		9999	5090	6890	0	0
2019/04/12 11:41:00	BASE	16.58	40	19.24	30	0.4	63	-5.8	13	0	976.6	NA	0.0000		9999	5050	0	0	0
2019/04/12 11:42:00	BASE	15.93	38	19.24	30	0.4	63	-5.8	12	0	976.6	NA	0.0000		9999	5090	0	0	0
2019/04/12 11:43:00	BASE	15.00	37	19.24	30	0.4	63	-5.8	11	0	976.7	NA	0.0000		9999	5090	0	0	0
2019/04/12 11:44:00	BASE	15.13	38	19.24	30	0.4	63	-5.8	10	0	976.7	NA	0.0000		9999	5120	0	0	0
2019/04/12 11:45:00	BASE	16.25	40	19.24	30	0.4	63	-5.8	9	0	976.7	NA	0.0000		9999	5150	0	0	0
2019/04/12 11:46:00	BASE	16.83	37	19.24	30	0.4	63	-5.8	9	0	976.7	NA	0.0000		9999	5120	0	0	0
2019/04/12 11:47:00	BASE	16.01	32	19.24	30	0.4	63	-5.8	9	0	976.8	NA	0.0000		9999	5250	0	0	0
2019/04/12 11:48:00	BASE	15.34	32	19.24	30	0.4	63	-5.8	8	0	976.8	NA	0.0000		9999	5250	0	0	0
2019/04/12 11:49:00	BASE	15.51	32	18.67	42	0.4	63	-5.8	8	0	976.8	NA	0.0000		9999	5150	0	0	0
2019/04/12 11:50:00	BASE	15.71	31	18.57	40	0.4	63	-5.8	8	0	976.8	NA	0.0000		9999	5180	0	0	0
2019/04/12 11:51:00	BASE	16.24	32	19.39	31	0.4	63	-5.8	8	0	976.7	NA	0.0000		9999	5120	0	0	0
2019/04/12 11:52:00	BASE	16.71	34	19.39	31	0.4	63	-5.8	8	0	976.7	NA	0.0000		9999	5090	0	0	0
2019/04/12 11:53:00	BASE	16.24	39	19.39	31	0.4	63	-5.8	7	0	976.8	NA	0.0000		9999	5120	0	0	0
2019/04/12 11:54:00	BASE	15.56	41	19.39	31	0.4	63	-5.7	7	0	976.7	NA	0.0000		9999	5090	0	0	0
2019/04/12 11:55:00	BASE	16.28	34	19.39	31	0.4	63	-5.7	7	0	976.7	NA	0.0000		9999	5090	0	0	0
2019/04/12 11:56:00	BASE	14.51	34	19.39	31	0.5	63	-5.7	8	0	976.8	NA	0.0000		9999	5090	0	0	0
2019/04/12 11:57:00	BASE	10.95	37	19.39	31	0.5	63	-5.7	9	0	976.9	NA	0.0000		9999	5050	0	0	0
2019/04/12 11:58:00	BASE	12.23	36	19.39	31	0.4	63	-5.7	9	0	976.8	NA	0.0000		9999	4990	0	0	0
2019/04/12 11:59:00	BASE	14.99	34	19.39	31	0.4	64	-5.7	9	0	976.7	NA	0.0000		9999	4990	0	0	0
2019/04/12 12:00:00	BASE	15.13	38	19.39	31	0.4	64	-5.7	9	0	976.8	NA	0.0000		9999	5020	0	0	0
2019/04/12 12:01:00	BASE	14.48	44	18.57	30	0.4	64	-5.6	9	0	976.8	NA	0.0000		9999	4920	0	0	0
2019/04/12 12:02:00	BASE	15.22	44	18.57	30	0.5	64	-5.6	8	0	976.7	NA	0.0000		9999	4820	0	0	0
2019/04/12 12:03:00	BASE	15.76	41	18.83	34	0.5	64	-5.5	7	0	976.7	NA	0.0000		9999	4720	0	0	0
2019/04/12 12:04:00	BASE	13.66	38	18.83	34	0.6	64	-5.5	7	0	976.7	NA	0.0000		9999	4660	0	0	0
2019/04/12 12:05:00	BASE	14.17	37	19.45	42	0.6	64	-5.4	6	0	976.6	NA	0.0000		9999	4560	0	0	0
2019/04/12 12:06:00	BASE	17.04	36	19.55	36	0.6	64	-5.4	6	0	976.6	NA	0.0000		9999	4460	0	0	0
2019/04/12 12:07:00	BASE	18.39	35	21.71	27	0.7	64	-5.4	6	0	976.5	NA	0.0000		9999	4490	0	0	0
2019/04/12 12:08:00	BASE	18.09	34	21.71	27	0.7	64	-5.3	6	0	976.5	NA	0.0000		9999	4490	0	0	0
2019/04/12 12:09:00	BASE	17.38	36	21.71	27	0.7	64	-5.3	6	0	976.5	NA	0.0000		9999	4560	0	0	0
2019/04/12 12:10:00	BASE	18.24	37	21.71	27	0.8	64	-5.2	6	0	976.3	NA	0.0000		9999	4560	0	0	0
2019/04/12 12:11:00	BASE	18.94	39	22.48	29	0.8	64	-5.2	6	0	976.3	NA	0.0000		9999	4530	0	0	0
2019/04/12 12:12:00	BASE	19.18	43	22.48	29	0.9	64	-5.2	7	0	976.3	NA	0.0000		9999	4460	0	0	0
2019/04/12 12:13:00	BASE	19.37	42	22.94	33	0.9	64	-5.2	7	0	976.3	NA	0.0000		9999	4460	0	0	0
2019/04/12 12:14:00	BASE	17.79	36	22.94	33	0.9	64	-5.2	7	0	976.3	NA	0.0000		9999	4690	0	0	0
2019/04/12 12:15:00	BASE	15.76	37	22.94	33	0.9	64	-5.1	8	0	976.3	NA	0.0000		9999	4790	0	0	0
2019/04/12 12:16:00	BASE	19.88	40	27.21	34	0.9	64	-5.1	8	0	976.0	NA	0.0000		9999	4630	0	0	0
2019/04/12 12:17:00	BASE	21.75	36	27.21	34	0.9	64	-5.1	8	0	976.1	NA	0.0000		9999	4300	0	0	0
2019/04/12 12:18:00	BASE	17.94	35	27.21	34	0.9	64	-5.0	8	0	976.2	NA	0.0000		9999	4170	0	0	0
2019/04/12 12:19:00	BASE	16.98	35	27.21	34	1.0	64	-5.0	8	0	976.2	NA	0.0000		9999	4100	0	0	0
2019/04/12 12:20:00	BASE	17.27	37	27.21	34	1.0	64	-5.0	8	0	976.1	NA	0.0000		9999	4100	0	0	0
2019/04/12 12:21:00	BASE	18.74	41	27.21	34	1.0	64	-4.9	8	0	976.1	NA	0.0000		9999	4100	0	0	0
2019/04/12 12:22:00	BASE	18.04	41	27.21	34	1.1	64	-5.0	9	0	976.2	NA	0.0000		9999	4170	0	0	0
2019/04/12 12:23:00	BASE	15.12	34	27.21	34	1.1	64	-5.0	9	0	976.2	NA	0.0000		9999	4070	0	0	0
2019/04/12 12:24:00	BASE	17.33	32	27.21	34	1.0	64	-5.1	9	0	976.1	NA	0.0000		9999	4070	0	0	0
2019/04/12 12:25:00	BASE	21.79	35	27.21	34	1.0	64	-5.1	9	0	975.9	NA	0.0000		9999	4100	0	0	0
2019/04/12 12:26:00	BASE	21.93	33	25.83	36	1.0	63	-5.2	9	0	976.0	NA	0.0000		9999	4100	0	0	0
2019/04/12 12:27:00	BASE	19.51	34	25.83	36	1.0	63	-5.2	9	0	976.1	NA	0.0000		9999	4070	0	0	0
2019/04/12 12:28:00	BASE	19.22	36	25.83	36	1.0	63	-5.2	9	0	976.0	NA	0.0000		9999	4070	0	0	0
2019/04/12 12:29:00	BASE	19.08	37	25.83	36	1.0	63	-5.2	9	0	976.1	NA	0.0000		9999	4070	0	0	0
2019/04/12 12:30:00	BASE	18.82	38	25.83	36	0.9	64	-5.1	9	0	976.1	NA	0.0000		9999	4070	0	0	0
2019/04/12 12:31:00	BASE	19.18	40	25.83	36	0.9	64	-5.1	9	0	976.1	NA	0.0000		9999	4070	0	0	0
2019/04/12 12:32:00	BASE	19.42	42	25.83	36	0.9	64	-5.1	9	0	976.0	NA	0.0000		9999	4040	0	0	0
2019/04/12 12:33:00	BASE	18.24	41	25.83	36	0.9	64	-5.1	9	0	976.1	NA	0.0000		9999	4040	0	0	0
2019/04/12 12:34:00	BASE	16.83	39	25.83	36	0.9	64	-5.0	9	0	976.1	NA	0.0000		9999	4040	0	0	0
2019/04/12 12:35:00	BASE	17.44	41	23.72	32	0.9	64	-5.0	10	0	976.0	NA	0.0000		9999	4040	0	0	0
2019/04/12 12:36:00	BASE	18.29	42	22.48	41	0.9	65	-5.0	11	0	976.0	NA	0.0000		9999	4070	0	0	0
2019/04/12 12:37:00	BASE	17.40	44	22.48	41	0.9	65	-5.0	12	0	976.0	NA	0.0000		9999	4040	0	0	0
2019/04/12 12:38:00	BASE	16.75	45	21.71	46	0.9	65	-5.0	12	0	976.0	NA	0.0000		9999	3900	0	0	0
2019/04/12 12:39:00	BASE	16.85	43	21.71	46	0.9	65	-5.0	11	0	976.0	NA	0.0000		9999	3770	0	0	0
2019/04/12 12:40:00	BASE	16.56	43	21.71	46	0.9	65	-5.0	11	0	975.9	NA	0.0000		9999	3870	0	0	0
2019/04/12 12:41:00	BASE	16.95	42	21.71	46	0.9	65	-5.0	11	0	975.9	NA	0.0000		9999	4040	0	0	0
2019/04/12 12:42:00	BASE	16.61	40	21.61	36	0.9	65	-5.0	13	0	975.9	NA	0.0000		9999	4300	0	0	0
2019/04/12 12:43:00	BASE	16.91	40	21.86	44	0.9	65	-5.0	15	0	975.8	NA	0.0000		9999	4200	0	0	0
2019/04/12 12:44:00	BASE	18.10	42	21.86	44	0.9	65	-4.9	17	0	975.8	NA	0.0000		9999	4400	0	0	0
2019/04/12 12:45:00	BASE	18.69	44	23.05	44	0.9	65	-4.9	17	0	975.7	NA	0.0000		9999	4270	0	0	0
2019/04/12 12:46:00	BASE	18.04	43	23.05	44	0.9	65	-4.9	17	0	975.8	NA	0.0000		9999	4460	0	0	0
2019/04/12 12:47:00	BASE	16.85	40	23.05	44	0.9	65	-4.9	18	0	975.8	NA	0.0000		9999	4040	0	0	0
2019/04/12 12:48:00	BASE	15.83	39	23.05	44	0.9	65	-4.9	18	0	975.8	NA	0.0000		9999	4070	0	0	0
2019/04/12 12:49:00	BASE	16.50	39	23.05	44	0.9	65	-4.9	18	0	975.8	NA	0.0000		9999	4040	0	0	0
2019/04/12 12:50:00	BASE	17.63	39	23.05	44	0.9	65	-4.8	17	0	975.9	NA	0.0000		9999	4000	0	0	0
2019/04/12 12:51:00	BASE	16.34	43	23.05	44	1.0	65	-4.9	15	0	976.0	NA	0.0000		9999	3940	0	0	0
2019/04/12 12:52:00	BASE	14.31	49	23.05	44	1.0	65	-4.9	14	0	976.1	NA	0.0000		9999	4100	0	0	0
2019/04/12 12:53:00	BASE	12.27	52	23.05	44	1.0	64	-4.9	14	0	976.1	NA	0.0000		9999	4100	0	0	0
2019/04/12 12:54:00	BASE	11.09	56	23.05	44	1.1	64	-4.9	14	0	976.2	NA	0.0000		9999	4130	0	0	0
2019/04/12 12:55:00	BASE	10.32	68	20.32	41	1.1	64	-5.0	15	0	976.3	NA	0.0000		9999	4170	0	0	0
2019/04/12 12:56:00	BASE	9.69	85	20.32	41	1.1	64	-4.9	16	0	976.3	NA	0.0000		9999	4270	0	0	0
2019/04/12 12:57:00	BASE	8.84	101	20.32	41	1.1	64	-4.9	16	0	976.4	NA	0.0000		9999	4300	0	0	0
2019/04/12 12:58:00	BASE	7.46	111	20.32	41	1.1	65	-4.9	16	0	976.4	NA	0.0000		9999	4360	0	0	0
2019/04/12 12:59:00	BASE	9.91	120	20.17	42	1.0	65	-4.8	16	0	976.2	NA	0.0000		9999	4330	0	0	0
2019/04/12 13:00:00	BASE	11.33	131	18.11	47	1.0	65	-4.9	17	0	976.1	NA	0.0000		9999	4230	0	0	0
2019/04/12 13:01:00	BASE	8.74	117	17.34	133	0.9	65	-5.0	17	0	976.3	NA	0.0000		9999	4300	0	0	0
2019/04/12 13:02:00	BASE	7.41	108	17.34	133	0.9	64	-5.2	16	0	976.3	NA	0.0000		9999	4360	0	0	0
2019/04/12 13:03:00	BASE	8.22	115	17.34	133	0.9	63	-5.3	16	0	976.2	NA	0.0000		9999	4490	0	0	0
2019/04/12 13:04:00	BASE	9.37	119	17.34	133	0.9	63	-5.4	16	0	976.2	NA	0.0000		9999	4430	0	0	0
2019/04/12 13:05:00	BASE	9.33	127	17.34	133	0.8	63	-5.4	16	0	976.0	NA	0.0000		9999	4590	0	0	0
2019/04/12 13:06:00	BASE	9.26	136	17.34	133	0.8	64	-5.3	17	0	976.0	NA	0.0000		9999	4590	0	0	0
2019/04/12 13:07:00	BASE	8.62	157	17.34	133	0.7	65	-5.1	17	0	976.0	NA	0.0000		9999	3610	4300	0	0
2019/04/12 13:08:00	BASE	7.74	177	17.34	133	0.7	66	-5.0	18	0	976.0	NA	0.0000		9999	3580	0	0	0
2019/04/12 13:09:00	BASE	7.79	174	14.04	140	0.6	67	-4.8	19	0	976.0	NA	0.0000		9999	3410	0	0	0
2019/04/12 13:10:00	BASE	6.52	164	11.32	126	0.6	67	-4.7	20	0	976.0	NA	0.0000		9999	3640	0	0	0
2019/04/12 13:11:00	BASE	4.32	150	11.32	126	0.7	68	-4.7	20	0	976.0	NA	0.0000		9999	3480	0	0	0
2019/04/12 13:12:00	BASE	4.59	128	11.32	126	0.7	68	-4.6	20	0	976.0	NA	0.0000		9999	3410	0	0	0
2019/04/12 13:13:00	BASE	5.87	117	11.32	126	0.7	68	-4.5	19	0	976.0	NA	0.0000		9999	3540	0	0	0
2019/04/12 13:14:00	BASE	6.49	116	10.70	135	0.7	69	-4.4	19	0	976.0	NA	0.0000		9999	3610	0	0	0
2019/04/12 13:15:00	BASE	6.51	132	10.70	135	0.6	69	-4.4	19	0	976.0	NA	0.0000		9999	3670	0	0	0
2019/04/12 13:16:00	BASE	5.84	150	8.95	186	0.6	70	-4.3	19	0	975.9	NA	0.0000		9999	3510	0	0	0
2019/04/12 13:17:00	BASE	6.24	148	8.54	183	0.6	69	-4.4	20	0	975.9	NA	0.0000		9999	3510	0	0	0
2019/04/12 13:18:00	BASE	6.78	138	8.18	168	0.6	69	-4.4	20	0	975.9	NA	0.0000		9999	3670	0	0	0
2019/04/12 13:19:00	BASE	7.04	137	7.92	136	0.5	69	-4.5	19	0	975.8	NA	0.0000		9999	3840	0	0	0
2019/04/12 13:20:00	BASE	7.82	142	8.95	148	0.5	69	-4.5	18	0	975.7	NA	0.0000		9999	3640	0	0	0
2019/04/12 13:21:00	BASE	8.71	151	9.83	159	0.4	70	-4.4	17	0	975.7	NA	0.0000		9999	3410	0	0	0
2019/04/12 13:22:00	BASE	9.65	159	10.75	156	0.4	71	-4.3	17	0	975.5	NA	0.0000		9999	3220	4630	0	0
2019/04/12 13:23:01	BASE	11.36	158	13.43	161	0.3	72	-4.2	17	0	975.4	NA	0.0000		9999	3180	0	0	0
2019/04/12 13:24:00	BASE	13.71	155	18.73	141	0.3	72	-4.1	17	0	975.3	NA	0.0000		9999	3080	0	0	0
2019/04/12 13:25:00	BASE	15.64	145	19.86	138	0.5	72	-3.9	16	0	975.1	NA	0.0000		9999	2990	0	0	0
2019/04/12 13:26:00	BASE	14.17	146	19.86	138	0.7	72	-3.9	16	0	975.3	NA	0.0000		9999	3080	0	0	0
2019/04/12 13:27:00	BASE	10.57	155	19.86	138	0.9	70	-3.9	16	0	975.3	NA	0.0000		9999	2920	0	0	0
2019/04/12 13:28:00	BASE	8.16	151	19.86	138	1.2	69	-3.8	15	0	975.4	NA	0.0000		9999	3050	0	0	0
2019/04/12 13:29:00	BASE	7.10	155	19.86	138	1.4	68	-3.9	14	0	975.4	NA	0.0000		9999	3350	0	0	0
2019/04/12 13:30:00	BASE	5.68	167	19.86	138	1.6	67	-3.9	14	0	975.4	NA	0.0000		9999	3380	0	0	0
2019/04/12 13:31:00	BASE	4.03	155	19.86	138	1.7	66	-4.0	14	0	975.4	NA	0.0000		9999	3450	0	0	0
2019/04/12 13:32:00	BASE	4.19	71	19.86	138	1.7	66	-4.1	14	0	975.4	NA	0.0000		9999	3180	0	0	0
2019/04/12 13:33:00	BASE	4.55	84	19.86	138	1.6	65	-4.2	14	0	975.4	NA	0.0000		9999	3250	0	0	0
2019/04/12 13:34:00	BASE	5.55	112	19.86	138	1.5	66	-4.2	14	0	975.3	NA	0.0000		9999	3280	0	0	0
2019/04/12 13:35:00	BASE	6.45	93	15.28	150	1.4	66	-4.2	15	0	975.3	NA	0.0000		9999	3080	0	0	0
2019/04/12 13:36:00	BASE	6.35	72	10.91	163	1.3	66	-4.3	15	0	975.4	NA	0.0000		9999	3280	0	0	0
2019/04/12 13:37:00	BASE	6.33	75	10.60	56	1.2	67	-4.3	14	0	975.4	NA	0.0000		9999	3150	0	0	0
2019/04/12 13:38:00	BASE	4.60	94	10.60	56	1.3	67	-4.2	14	0	975.4	NA	0.0000		9999	2890	0	0	0
2019/04/12 13:39:00	BASE	4.14	92	10.60	56	1.2	66	-4.4	14	0	975.4	NA	0.0000		9999	3050	0	0	0
2019/04/12 13:40:00	BASE	4.74	99	10.60	56	1.2	66	-4.4	14	0	975.3	NA	0.0000		9999	3020	0	0	0
2019/04/12 13:41:00	BASE	3.59	135	10.60	56	1.2	66	-4.4	14	0	975.3	NA	0.0000		9999	2530	0	0	0
2019/04/12 13:42:00	BASE	2.52	147	10.60	56	1.2	67	-4.4	14	0	975.3	NA	0.0000		9999	2990	0	0	0
2019/04/12 13:43:00	BASE	3.15	97	10.60	56	1.1	67	-4.3	13	0	975.4	NA	0.0000		9999	2920	0	0	0
2019/04/12 13:44:00	BASE	5.19	61	10.60	56	1.1	68	-4.2	13	0	975.4	NA	0.0000		9999	3220	0	0	0
2019/04/12 13:45:00	BASE	6.16	73	8.54	76	1.0	68	-4.2	13	0	975.4	NA	0.0000		9999	2720	0	0	0
2019/04/12 13:46:00	BASE	6.73	100	8.59	132	1.0	69	-4.2	14	0	975.4	NA	0.0000		9999	2400	0	0	0
2019/04/12 13:47:00	BASE	7.28	115	8.59	132	0.9	69	-4.1	15	0	975.3	NA	0.0000		9999	3120	0	0	0
2019/04/12 13:48:00	BASE	8.22	117	10.55	129	0.9	69	-4.2	16	0	975.3	NA	0.0000		9999	3220	0	0	0
2019/04/12 13:49:00	BASE	9.34	121	10.55	129	0.9	69	-4.2	18	0	975.3	NA	0.0000		9999	3280	0	0	0
2019/04/12 13:50:00	BASE	9.31	120	10.55	129	0.8	69	-4.2	19	0	975.3	NA	0.0000		9999	3870	0	0	0
2019/04/12 13:51:00	BASE	8.54	124	10.55	129	0.8	69	-4.2	20	0	975.3	NA	0.0000		9999	3480	4070	0	0
2019/04/12 13:52:00	BASE	8.27	128	10.55	129	0.8	69	-4.2	19	0	975.3	NA	0.0000		9999	4100	0	0	0
2019/04/12 13:53:00	BASE	9.54	128	12.35	128	0.7	70	-4.1	18	0	975.2	NA	0.0000		9999	3770	0	0	0
2019/04/12 13:54:00	BASE	10.70	135	12.35	128	0.6	71	-4.1	17	0	975.0	NA	0.0000		9999	3770	0	0	0
2019/04/12 13:55:00	BASE	12.10	149	14.71	158	0.6	71	-4.0	16	0	974.8	NA	0.0000		9999	3740	0	0	0
2019/04/12 13:56:00	BASE	13.82	157	15.23	155	0.5	72	-4.0	17	0	974.8	NA	0.0000		9999	0	0	0	4040
2019/04/12 13:57:00	BASE	14.77	161	18.01	168	0.5	73	-3.8	17	0	974.7	NA	0.0000		9999	3150	0	0	0
2019/04/12 13:58:00	BASE	13.93	170	18.37	157	0.5	74	-3.6	18	0	974.7	NA	0.0000		9999	3020	0	0	0
2019/04/12 13:59:00	BASE	10.48	182	18.37	157	0.5	75	-3.4	18	0	974.8	NA	0.0000		9999	4300	0	0	0
2019/04/12 14:00:00	BASE	8.98	179	18.37	157	0.5	76	-3.2	18	0	974.8	NA	0.0000		9999	2460	0	0	0
2019/04/12 14:01:00	BASE	8.50	164	18.37	157	0.5	77	-3.1	18	0	974.9	NA	0.0000		9999	3580	0	0	0
2019/04/12 14:02:00	BASE	6.66	155	18.37	157	0.5	78	-2.9	19	0	975.0	NA	0.0000		9999	3450	0	0	0
2019/04/12 14:03:00	BASE	5.96	142	18.37	157	0.5	79	-2.7	19	0	975.0	NA	0.0000		9999	3450	0	0	0
2019/04/12 14:04:00	BASE	6.90	137	18.37	157	0.5	80	-2.6	19	0	974.9	NA	0.0000		9999	3870	0	0	0
2019/04/12 14:05:00	BASE	8.04	143	18.37	157	0.5	81	-2.4	19	0	974.9	NA	0.0000		9999	3180	0	0	0
2019/04/12 14:06:00	BASE	8.23	150	18.37	157	0.4	82	-2.3	18	0	974.9	NA	0.0000		9999	2530	0	0	0
2019/04/12 14:07:00	BASE	8.21	156	18.37	157	0.4	83	-2.2	17	0	974.8	NA	0.0000		9999	2560	0	0	0
2019/04/12 14:08:00	BASE	8.75	160	10.44	153	0.4	83	-2.1	16	0	974.7	NA	0.0000		9999	2360	0	0	0
2019/04/12 14:09:00	BASE	9.22	158	10.44	153	0.4	84	-2.0	16	0	974.7	NA	0.0000		9999	2230	0	0	0
2019/04/12 14:10:00	BASE	8.63	151	10.44	153	0.4	84	-2.0	16	0	974.7	NA	0.0000		9999	2260	0	0	0
2019/04/12 14:11:00	BASE	8.06	150	10.44	153	0.4	85	-1.9	16	0	974.6	NA	0.0000		9999	1570	0	0	0
2019/04/12 14:12:00	BASE	8.25	153	10.44	153	0.4	85	-1.9	17	0	974.5	NA	0.0000		9999	1610	0	0	0
2019/04/12 14:13:00	BASE	7.95	150	10.44	153	0.4	85	-1.8	18	0	974.6	NA	0.0000		9999	2170	0	0	0
2019/04/12 14:14:00	BASE	8.04	146	10.44	153	0.4	85	-1.8	19	0	974.6	NA	0.0000		9999	820	0	0	0
2019/04/12 14:15:00	BASE	9.33	143	10.75	136	0.5	84	-1.9	19	0	974.5	NA	0.0000		9999	1020	0	0	0
2019/04/12 14:16:00	BASE	9.73	148	10.75	136	0.5	84	-1.9	19	0	974.3	NA	0.0000		9999	2030	3970	0	0
2019/04/12 14:17:00	BASE	8.70	149	10.75	136	0.6	83	-2.0	21	0	974.4	NA	0.0000		9999	2000	0	0	0
2019/04/12 14:18:00	BASE	8.22	140	10.91	137	0.6	82	-2.1	23	0	974.5	NA	0.0000	UP	9999	2360	0	0	0
2019/04/12 14:19:00	BASE	9.04	136	12.04	138	0.6	82	-2.2	25	0	974.4	NA	0.0000	UP	4600	2130	0	0	0
2019/04/12 14:20:00	BASE	10.13	135	13.84	136	0.7	81	-2.2	28	0	974.4	NA	0.0000	-SN	4100	2260	4100	0	0
2019/04/12 14:21:00	BASE	10.30	127	13.84	136	0.7	81	-2.2	30	0	974.5	NA	0.0000	-SN	6000	2230	4040	0	0
2019/04/12 14:22:00	BASE	10.57	124	13.84	136	0.7	81	-2.1	32	0	974.4	NA	0.0000	-SN	8000	2230	4040	0	0
2019/04/12 14:23:00	BASE	12.35	135	16.31	138	0.8	81	-2.1	33	0	974.3	NA	0.0000	-SN	9999	4040	0	0	0
2019/04/12 14:24:00	BASE	12.93	147	16.31	138	0.7	81	-2.1	34	0	974.3	NA	0.0000	-SN	9999	3900	0	0	0
2019/04/12 14:25:00	BASE	13.81	148	17.54	135	0.7	82	-2.1	35	0	974.2	NA	0.0000	-SN	9999	3810	0	0	0
2019/04/12 14:26:00	BASE	15.52	149	17.54	135	0.7	82	-2.0	36	0	974.1	NA	0.0000	-SN	9999	4070	0	0	0
2019/04/12 14:27:00	BASE	15.00	158	17.54	135	0.6	82	-2.0	37	0	974.0	NA	0.0000	-SN	9999	4040	0	0	0
2019/04/12 14:28:00	BASE	14.07	163	17.54	135	0.6	82	-2.0	37	0	973.9	NA	0.0000	-SN	9999	4000	0	0	0
2019/04/12 14:29:00	BASE	14.40	161	17.54	135	0.6	82	-2.0	38	0	973.9	NA	0.0000	-SN	9999	3970	0	0	0
2019/04/12 14:30:00	BASE	15.11	154	18.52	155	0.6	82	-2.1	39	0	973.9	NA	0.0000	-SN	9999	3970	0	0	0
2019/04/12 14:31:00	BASE	16.69	153	20.06	154	0.6	82	-2.1	40	0	973.7	NA	0.0000	-SN	9999	3970	0	0	0
2019/04/12 14:32:00	BASE	17.13	160	20.06	154	0.6	82	-2.1	40	0	973.7	NA	0.0000	-SN	9999	3970	0	0	0
2019/04/12 14:33:00	BASE	14.26	164	20.06	154	0.6	82	-2.1	40	0	973.8	NA	0.0000	-SN	9999	3940	0	0	0
2019/04/12 14:34:00	BASE	12.48	165	20.06	154	0.6	82	-2.1	40	0	973.8	NA	0.0000	-SN	9999	1970	3970	0	0
2019/04/12 14:35:00	BASE	13.66	170	20.06	154	0.6	82	-2.0	40	0	973.7	NA	0.0000		9999	1900	3970	0	0
2019/04/12 14:36:00	BASE	13.90	177	20.06	154	0.6	82	-2.0	40	0	973.8	NA	0.0000		9999	2130	3940	0	0
2019/04/12 14:37:00	BASE	13.90	180	20.06	154	0.7	83	-1.9	40	0	973.9	NA	0.0000		9999	2260	3900	0	0
2019/04/12 14:38:00	BASE	14.88	159	20.06	154	0.7	83	-1.8	40	0	974.0	NA	0.0000		9999	2330	0	0	0
2019/04/12 14:39:00	BASE	14.52	136	20.06	154	0.8	84	-1.7	40	0	974.1	NA	0.0000		9999	2430	3540	0	0
2019/04/12 14:40:00	BASE	12.79	141	20.06	154	0.8	84	-1.6	38	0	974.0	NA	0.0000		9999	3610	0	0	0
2019/04/12 14:41:00	BASE	10.41	151	18.31	166	0.8	84	-1.6	38	0	974.1	NA	0.0000		9999	3250	0	0	0
2019/04/12 14:42:00	BASE	10.25	152	17.34	183	0.9	84	-1.6	37	0	974.0	NA	0.0000		9999	3510	0	0	0
2019/04/12 14:43:00	BASE	11.40	148	17.34	183	0.9	83	-1.7	36	0	974.1	NA	0.0000		9999	1940	0	0	0
2019/04/12 14:44:00	BASE	11.40	147	17.34	183	0.8	83	-1.8	35	0	974.1	NA	0.0000		9999	1940	0	0	0
2019/04/12 14:45:00	BASE	12.20	146	17.34	183	0.8	82	-1.9	34	0	974.0	NA	0.0000		9999	3310	0	0	0
2019/04/12 14:46:00	BASE	13.84	148	17.34	183	0.7	82	-1.9	33	0	973.9	NA	0.0000		9999	2000	3380	0	0
2019/04/12 14:47:00	BASE	13.54	151	16.77	128	0.6	82	-2.0	33	0	974.1	NA	0.0000		9999	1800	0	0	0
2019/04/12 14:48:00	BASE	11.18	162	16.62	127	0.6	83	-2.1	32	0	974.0	NA	0.0000		9999	1870	0	0	0
2019/04/12 14:49:00	BASE	11.20	175	15.74	146	0.5	83	-2.0	30	0	973.8	NA	0.0000		9999	2000	0	0	0
2019/04/12 14:50:00	BASE	13.48	174	16.05	176	0.6	83	-1.9	28	0	973.7	NA	0.0000		9999	2000	0	0	0
2019/04/12 14:51:00	BASE	13.85	177	16.05	176	0.6	84	-1.8	29	0	973.8	NA	0.0000		9999	2000	0	0	0
2019/04/12 14:52:00	BASE	11.88	175	16.05	176	0.7	84	-1.7	29	0	973.9	NA	0.0000		9999	2030	0	0	0
2019/04/12 14:53:00	BASE	10.44	160	16.05	176	0.7	85	-1.6	28	0	973.8	NA	0.0000		9999	1970	0	0	0
2019/04/12 14:54:00	BASE	11.37	153	16.05	176	0.7	85	-1.5	27	0	973.7	NA	0.0000		9999	1800	0	0	0
2019/04/12 14:55:00	BASE	12.79	153	16.05	176	0.7	85	-1.5	26	0	973.7	NA	0.0000		9999	790	0	0	0
2019/04/12 14:56:00	BASE	12.05	149	16.05	176	0.7	86	-1.4	27	0	973.9	NA	0.0000		9999	620	0	0	0
2019/04/12 14:57:00	BASE	9.12	140	16.05	176	0.6	86	-1.4	28	0	973.9	NA	0.0000		9999	560	0	0	0
2019/04/12 14:58:00	BASE	7.92	138	16.05	176	0.6	87	-1.3	28	0	973.8	NA	0.0000		9999	1900	0	0	0
2019/04/12 14:59:00	BASE	8.88	139	16.05	176	0.6	87	-1.3	28	0	973.7	NA	0.0000		9999	660	0	0	0
2019/04/12 15:00:00	BASE	9.28	135	14.51	158	0.6	88	-1.2	27	0	973.7	NA	0.0000		9999	2000	0	0	0
2019/04/12 15:01:00	BASE	9.39	139	14.51	158	0.6	88	-1.1	27	0	973.7	NA	0.0000		9999	2200	0	0	0
2019/04/12 15:02:00	BASE	11.15	142	15.64	141	0.6	89	-1.1	26	0	973.6	NA	0.0000	UP	9999	2330	0	0	0
2019/04/12 15:03:00	BASE	12.94	139	15.64	141	0.5	89	-1.1	24	0	973.4	NA	0.0000	UP	9000	2260	0	0	0
2019/04/12 15:04:00	BASE	13.91	143	16.51	152	0.5	89	-1.1	24	0	973.3	NA	0.0000	UP	9000	2170	0	0	0
2019/04/12 15:05:00	BASE	13.12	143	16.51	152	0.4	90	-1.1	24	0	973.5	NA	0.0000	UP	9000	2300	0	0	0
2019/04/12 15:06:00	BASE	12.01	129	16.51	152	0.4	90	-1.0	25	0	973.6	NA	0.0000	UP	9999	2070	0	0	0
2019/04/12 15:07:00	BASE	12.00	123	16.51	152	0.4	91	-0.9	26	0	973.6	NA	0.0000	UP	9999	2100	0	0	0
2019/04/12 15:08:00	BASE	12.73	130	16.51	130	0.4	92	-0.8	27	0	973.6	NA	0.0000	UP	9999	2170	0	0	0
2019/04/12 15:09:00	BASE	12.93	133	16.51	130	0.5	92	-0.6	29	0	973.6	NA	0.0000	UP	9999	2100	0	0	0
2019/04/12 15:10:00	BASE	12.91	134	16.51	130	0.5	93	-0.5	30	0	973.4	NA	0.0000	UP BR	9999	2130	0	0	0
2019/04/12 15:11:00	BASE	14.03	138	18.01	140	0.5	93	-0.5	32	0	973.3	NA	0.0000	UP BR	9999	1940	0	0	0
2019/04/12 15:12:00	BASE	15.86	137	18.62	130	0.5	93	-0.4	35	0	973.2	NA	0.0000	UP BR	9999	1800	0	0	0
2019/04/12 15:13:00	BASE	16.73	131	18.62	130	0.5	94	-0.4	38	0	973.3	NA	0.0000	UP BR	9999	890	0	0	0
2019/04/12 15:14:00	BASE	15.62	130	18.62	130	0.5	94	-0.4	40	0	973.2	NA	0.0000	UP	9999	4270	0	0	0
2019/04/12 15:15:00	BASE	15.43	139	18.62	130	0.4	94	-0.4	42	0	973.0	NA	0.0000	UP	9999	4200	0	0	0
2019/04/12 15:16:00	BASE	14.45	144	18.62	130	0.4	94	-0.4	43	0	973.2	NA	0.0000	UP	9999	4400	0	0	0
2019/04/12 15:17:00	BASE	13.67	144	18.62	130	0.3	94	-0.4	45	0	973.1	NA	0.0000	UP	9999	3740	0	0	0
2019/04/12 15:18:00	BASE	15.02	144	18.62	130	0.3	95	-0.4	46	0	972.9	NA	0.0000	UP	9999	4360	0	0	0
2019/04/12 15:19:00	BASE	14.58	141	18.62	130	0.3	95	-0.4	48	0	973.2	NA	0.0000	UP	9999	4330	0	0	0
2019/04/12 15:20:00	BASE	13.96	143	18.62	130	0.3	96	-0.3	51	0	973.1	NA	0.0000	UP	9999	4230	0	0	0
2019/04/12 15:21:00	BASE	13.86	146	18.62	130	0.3	96	-0.3	54	0	973.1	NA	0.0000	UP	9999	4400	0	0	0
2019/04/12 15:22:00	BASE	13.61	146	18.26	144	0.4	96	-0.2	56	0	973.1	NA	0.0000		9999	4430	0	0	0
2019/04/12 15:23:00	BASE	13.49	149	18.26	144	0.4	96	-0.2	58	0	973.0	NA	0.0000		9999	4270	0	0	0
2019/04/12 15:24:00	BASE	12.58	146	18.26	144	0.4	96	-0.2	61	0	973.0	NA	0.0000		9999	4300	0	0	0
2019/04/12 15:25:00	BASE	11.52	141	18.26	144	0.4	96	-0.1	65	0	973.1	NA	0.0000		9999	4130	0	0	0
2019/04/12 15:26:00	BASE	10.72	134	18.26	144	0.4	96	-0.1	69	0	973.1	NA	0.0000		9999	4130	0	0	0
2019/04/12 15:27:00	BASE	10.45	124	18.26	144	0.5	96	-0.1	72	0	973.1	NA	0.0000		9999	4270	0	0	0
2019/04/12 15:28:00	BASE	10.17	111	17.85	139	0.5	96	-0.1	74	0	973.2	NA	0.0000		9999	4070	0	0	0
2019/04/12 15:29:00	BASE	11.19	108	17.85	139	0.6	96	0.1	72	0	973.1	NA	0.0000		9999	4230	0	0	0
2019/04/12 15:30:00	BASE	11.39	114	17.85	139	0.8	96	0.2	68	0	973.0	NA	0.0000		9999	4300	0	0	0
2019/04/12 15:31:00	BASE	11.11	97	17.85	139	0.9	96	0.3	65	0	973.0	NA	0.0000		9999	4430	0	0	0
2019/04/12 15:32:00	BASE	10.38	76	18.26	42	1.2	95	0.5	63	0	973.1	NA	0.0000		9999	4400	0	0	0
2019/04/12 15:33:00	BASE	11.13	61	19.55	34	1.5	95	0.7	60	0	973.1	NA	0.0000		9999	4490	0	0	0
2019/04/12 15:34:00	BASE	13.14	51	19.55	34	1.8	94	0.9	56	0	973.1	NA	0.0000		9999	4590	0	0	0
2019/04/12 15:35:00	BASE	16.35	46	23.10	38	2.0	93	1.0	53	0	972.9	NA	0.0000		9999	4330	0	0	0
2019/04/12 15:36:00	BASE	18.51	44	24.08	37	2.2	92	1.0	54	0	972.9	NA	0.0000		9999	4460	0	0	0
2019/04/12 15:37:00	BASE	17.42	42	24.08	37	2.2	91	1.0	55	0	972.7	NA	0.0000	UP	9999	4460	5580	0	0
2019/04/12 15:38:00	BASE	19.47	37	27.88	32	2.3	91	0.9	57	0	972.4	NA	0.0000	UP	9999	6370	0	0	0
2019/04/12 15:39:00	BASE	20.89	38	27.88	32	2.2	91	0.9	57	0	972.4	NA	0.0000	UP	9999	6330	0	0	0
2019/04/12 15:40:00	BASE	22.18	38	29.58	23	2.2	91	0.8	56	0	972.2	NA	0.0000	UP	9999	0	0	0	430
2019/04/12 15:41:00	BASE	26.46	37	33.75	49	2.2	91	0.9	54	0	972.1	NA	0.0000	UP	9999	6200	0	0	0
2019/04/12 15:42:00	BASE	28.84	37	33.75	49	2.2	91	0.9	51	0	972.1	NA	0.0000	UP	9000	6500	0	0	0
2019/04/12 15:43:00	BASE	25.13	36	33.75	49	2.3	91	0.9	47	0	972.3	NA	0.0000	UP BR	9000	0	0	0	750
2019/04/12 15:44:00	BASE	21.34	36	33.75	49	2.3	91	1.0	45	0	972.2	NA	0.0000	UP BR	7000	0	0	0	980
2019/04/12 15:45:00	BASE	22.37	33	33.75	49	2.3	91	1.0	45	0	972.1	NA	0.0000	UP BR	7000	0	0	0	950
2019/04/12 15:46:00	BASE	24.00	31	33.75	49	2.3	91	1.0	44	0	972.0	NA	0.0000	UP BR	7000	0	0	0	850
2019/04/12 15:47:00	BASE	25.99	33	33.75	49	2.2	92	1.0	44	0	971.8	NA	0.0000	UP BR	8000	0	0	0	1020
2019/04/12 15:48:00	BASE	28.61	33	33.75	49	2.2	92	1.0	45	0	971.7	NA	0.0000	UP BR	9000	0	0	0	980
2019/04/12 15:49:00	BASE	29.50	33	33.75	36	2.1	93	1.1	45	0	971.6	NA	0.0000	UP BR	9000	0	0	0	820
2019/04/12 15:50:00	BASE	28.09	33	33.75	36	2.1	94	1.1	45	0	971.6	NA	0.0000	UP BR	9000	0	0	0	850
2019/04/12 15:51:00	BASE	28.83	32	34.83	39	2.0	94	1.2	45	0	971.4	NA	0.0000	UP BR	9999	0	0	0	660
2019/04/12 15:52:00	BASE	30.36	34	34.83	39	2.0	95	1.3	45	0	971.4	NA	0.0000	UP BR	9000	0	0	0	590
2019/04/12 15:53:00	BASE	29.36	33	34.83	39	2.0	95	1.3	45	0	971.6	NA	0.0000	UP BR	7000	0	0	0	850
2019/04/12 15:54:00	BASE	26.38	33	34.83	39	2.0	96	1.4	45	0	971.8	NA	0.0000	-SN BR	7000	0	0	0	690
2019/04/12 15:55:00	BASE	24.20	34	34.83	39	2.0	96	1.4	45	0	971.7	NA	0.0000	-SN BR	9999	0	0	0	790
2019/04/12 15:56:00	BASE	26.17	36	35.09	36	2.0	96	1.4	45	0	971.6	NA	0.0000	-SN BR	9999	0	0	0	520
2019/04/12 15:57:00	BASE	29.28	38	36.47	39	1.9	97	1.4	44	0	971.4	NA	0.0000	-SN BR	9999	0	0	0	660
2019/04/12 15:58:00	BASE	29.45	37	36.47	39	1.9	97	1.4	45	0	971.5	NA	0.0000	-SN BR	9000	0	0	0	560
2019/04/12 15:59:00	BASE	25.87	33	36.47	39	1.9	97	1.4	45	0	971.6	NA	0.0000	-SN BR	9999	0	0	0	490
2019/04/12 16:00:00	BASE	25.31	34	36.47	39	1.8	97	1.4	45	0	971.2	NA	0.0000	-SN BR	9999	0	0	0	460
2019/04/12 16:01:00	BASE	31.30	40	39.30	40	1.8	97	1.4	44	0	970.9	NA	0.0000	-SN BR	9999	0	0	0	330
2019/04/12 16:02:00	BASE	34.06	41	39.30	40	1.8	97	1.4	43	0	971.1	NA	0.0000	-SN BR SQ	9000	0	0	0	390
2019/04/12 16:03:00	BASE	30.73	37	39.30	40	1.8	97	1.4	42	0	971.3	NA	0.0000	-SN BR SQ	9999	0	0	0	560
2019/04/12 16:04:00	BASE	28.12	33	39.30	40	1.8	97	1.5	41	0	971.3	NA	0.0000	-SN	9999	0	0	0	720
2019/04/12 16:05:00	BASE	28.32	30	39.30	40	1.8	97	1.5	40	0	971.1	NA	0.0000	-SN	9999	0	0	0	620
2019/04/12 16:06:00	BASE	29.69	32	39.30	40	1.9	97	1.5	40	0	971.0	NA	0.0000	-SN	9999	0	0	0	460
2019/04/12 16:07:00	BASE	30.71	36	39.30	40	1.9	97	1.5	39	0	971.1	NA	0.0000	-SN	9999	0	0	0	490
2019/04/12 16:08:00	BASE	30.57	39	39.30	40	2.0	97	1.5	39	0	971.2	NA	0.0000	-SN	9999	4660	0	0	0
2019/04/12 16:09:00	BASE	29.53	36	39.30	40	2.0	97	1.5	39	0	971.2	NA	0.0000	-SN	9999	0	0	0	1800
2019/04/12 16:10:00	BASE	28.81	35	39.30	40	2.0	96	1.5	38	0	971.2	NA	0.0000	-SN	9999	0	0	0	1670
2019/04/12 16:11:00	BASE	29.47	34	37.76	40	2.0	96	1.5	39	0	971.1	NA	0.0000	-SN	9999	0	0	0	1440
2019/04/12 16:12:00	BASE	29.13	31	35.39	36	2.1	96	1.5	40	0	971.2	NA	0.0000	-SN	9000	0	0	0	1410
2019/04/12 16:13:00	BASE	27.60	31	35.39	36	2.1	96	1.5	40	0	971.2	NA	0.0000	-SN	9999	0	0	0	4820
2019/04/12 16:14:00	BASE	29.19	32	35.39	36	2.1	96	1.5	42	0	971.2	NA	0.0000	-SN	9999	0	0	0	4490
2019/04/12 16:15:00	BASE	30.90	33	35.39	36	2.1	96	1.5	43	0	971.2	NA	0.0000	-SN	9999	0	0	0	4270
2019/04/12 16:16:00	BASE	31.17	34	36.06	31	2.1	96	1.5	45	0	971.1	NA	0.0000	-SN	9999	0	0	0	4270
2019/04/12 16:17:00	BASE	30.53	37	36.06	31	2.1	96	1.5	47	0	971.3	NA	0.0000	-SN	9999	0	0	0	5090
2019/04/12 16:18:00	BASE	27.30	37	36.06	31	2.1	96	1.5	49	0	971.5	NA	0.0000	-SN	9999	0	0	0	6790
2019/04/12 16:19:00	BASE	24.99	33	36.06	31	2.1	96	1.6	50	0	971.4	NA	0.0000	-SN	9999	0	0	0	660
2019/04/12 16:20:00	BASE	28.09	32	36.06	31	2.2	96	1.6	49	0	971.2	NA	0.0000	-SN	9999	0	0	0	2530
2019/04/12 16:21:00	BASE	31.10	34	36.06	31	2.2	96	1.6	48	0	971.2	NA	0.0000	-SN	9999	0	0	0	690
2019/04/12 16:22:00	BASE	30.05	33	36.06	31	2.2	96	1.6	46	0	971.3	NA	0.0000	-SN	9999	0	0	0	5380
2019/04/12 16:23:00	BASE	28.37	31	36.06	31	2.2	96	1.7	44	0	971.4	NA	0.0000	-SN	9999	0	0	0	5710
2019/04/12 16:24:00	BASE	27.81	29	36.06	31	2.3	96	1.7	43	0	971.4	NA	0.0000	-SN	9999	0	0	0	4920
2019/04/12 16:25:00	BASE	28.40	32	36.06	31	2.3	96	1.7	44	0	971.2	NA	0.0000	-SN	9999	0	0	0	4630
2019/04/12 16:26:00	BASE	28.44	34	35.45	28	2.3	96	1.7	46	0	971.1	NA	0.0000	-SN	9999	0	0	0	4660
2019/04/12 16:27:00	BASE	29.31	36	35.45	28	2.2	96	1.7	45	0	971.2	NA	0.0000	-SN	9000	0	0	0	4630
2019/04/12 16:28:00	BASE	27.63	36	35.45	28	2.2	96	1.6	42	0	971.5	NA	0.0000	-SN	9000	460	0	0	0
2019/04/12 16:29:00	BASE	23.75	33	35.45	28	2.2	96	1.6	42	0	971.6	NA	0.0000	-SN	9999	430	0	0	0
2019/04/12 16:30:00	BASE	23.20	33	34.00	33	2.2	96	1.6	42	0	971.4	NA	0.0000	-SN	9999	490	0	0	0
2019/04/12 16:31:00	BASE	23.79	33	33.49	39	2.2	96	1.6	43	0	971.4	NA	0.0000	-SN	9999	0	0	0	1970
2019/04/12 16:32:00	BASE	25.40	32	33.49	39	2.2	96	1.6	44	0	971.3	NA	0.0000	-SN	9000	0	0	0	2230
2019/04/12 16:33:00	BASE	27.61	33	33.49	39	2.2	96	1.6	45	0	971.3	NA	0.0000	-SN	9000	0	0	0	3770
2019/04/12 16:34:00	BASE	25.82	34	33.49	39	2.2	97	1.7	45	0	971.4	NA	0.0000	-SN	9999	0	0	0	3450
2019/04/12 16:35:00	BASE	24.10	35	33.49	39	2.2	97	1.7	43	0	971.4	NA	0.0000	-SN BR	9999	0	0	0	3610
2019/04/12 16:36:00	BASE	27.05	34	33.49	39	2.2	97	1.8	40	0	971.3	NA	0.0000	-SN	9999	0	0	0	3540
2019/04/12 16:37:00	BASE	25.92	34	32.98	32	2.2	97	1.8	38	0	971.6	NA	0.0000	-SN	9999	0	0	0	3380
2019/04/12 16:38:00	BASE	22.22	33	32.98	32	2.2	97	1.8	40	0	971.5	NA	0.0000	-SN	9999	0	0	0	3710
2019/04/12 16:39:00	BASE	26.16	34	33.13	40	2.2	97	1.8	40	0	971.2	NA	0.0000	-SN	8000	0	0	0	3870
2019/04/12 16:40:00	BASE	28.52	34	33.13	40	2.2	97	1.8	42	0	971.4	NA	0.0000	-SN BR	7000	0	0	0	3540
2019/04/12 16:41:00	BASE	26.24	34	33.13	40	2.2	97	1.8	41	0	971.5	NA	0.0000	-SN BR	7000	0	0	0	3810
2019/04/12 16:42:00	BASE	26.27	32	33.13	40	2.2	97	1.8	40	0	971.4	NA	0.0000	-SN BR	8000	0	0	0	3870
2019/04/12 16:43:00	BASE	22.75	24	33.13	40	2.2	97	1.8	44	0	971.6	NA	0.0000	-SN BR	9000	0	0	0	2950
2019/04/12 16:44:00	BASE	23.64	30	35.91	41	2.2	97	1.7	48	0	971.2	NA	0.0000	-SN BR	9000	0	0	0	3710
2019/04/12 16:45:00	BASE	32.47	40	39.15	42	2.2	97	1.7	50	0	970.9	NA	0.0000	-SN BR SQ	5000	0	0	0	390
2019/04/12 16:46:00	BASE	32.56	38	39.15	42	2.2	97	1.7	51	0	971.4	NA	0.0000	-SN BR SQ	5000	0	0	0	5610
2019/04/12 16:47:00	BASE	27.48	35	39.15	42	2.2	97	1.7	53	0	971.5	NA	0.0000	-SN BR	9999	0	0	0	5020
2019/04/12 16:48:00	BASE	24.33	28	39.15	42	2.2	97	1.7	55	0	971.6	NA	0.0000	-SN BR	9999	0	0	0	5510
2019/04/12 16:49:00	BASE	23.18	18	39.15	42	2.2	97	1.8	57	0	971.2	NA	0.0000	-SN BR	9000	0	0	0	5740
2019/04/12 16:50:00	BASE	24.07	24	39.15	42	2.2	97	1.8	57	0	971.2	NA	0.0000	-SN BR	9999	5150	0	0	0
2019/04/12 16:51:00	BASE	28.08	33	41.00	35	2.2	97	1.8	55	0	970.8	NA	0.0000	-SN BR	9999	5150	0	0	0
2019/04/12 16:52:00	BASE	32.72	36	41.00	35	2.3	97	1.8	55	0	970.7	NA	0.0000	-SN BR SQ	9999	5020	0	0	0
2019/04/12 16:53:00	BASE	32.69	38	41.00	35	2.3	97	1.9	55	0	971.0	NA	0.0000	-SN BR SQ	9000	5020	0	0	0
2019/04/12 16:54:00	BASE	30.69	36	41.00	35	2.4	97	1.9	55	0	971.4	NA	0.0000	-SN BR	9999	5180	0	0	0
2019/04/12 16:55:00	BASE	28.03	24	41.00	35	2.4	96	1.9	56	0	971.6	NA	0.0000	-SN BR	9999	5250	0	0	0
2019/04/12 16:56:00	BASE	19.47	358	41.00	35	2.4	96	1.9	61	0	971.6	NA	0.0000	-SN	9999	5350	0	0	0
2019/04/12 16:57:00	BASE	14.65	5	41.00	35	2.4	96	1.8	60	0	971.5	NA	0.0000	-SN	9999	4950	22380	0	0
2019/04/12 16:58:00	BASE	21.69	33	41.00	35	2.4	96	1.8	57	0	971.3	NA	0.0000	-SN	9999	4890	0	0	0
2019/04/12 16:59:00	BASE	28.61	36	41.00	35	2.4	95	1.8	53	0	970.9	NA	0.0000	-SN SQ	9999	3250	4760	0	0
2019/04/12 17:00:00	BASE	30.16	35	41.00	35	2.4	95	1.7	50	0	971.1	NA	0.0000	-SN SQ	9999	4720	0	0	0
2019/04/12 17:01:00	BASE	26.96	35	36.22	40	2.4	95	1.7	52	0	971.6	NA	0.0000	-SN	9999	430	4660	0	0
2019/04/12 17:02:00	BASE	20.21	24	35.19	27	2.4	95	1.7	57	0	971.6	NA	0.0000	-SN	9999	4690	0	0	0
2019/04/12 17:03:00	BASE	23.13	24	36.94	36	2.4	95	1.7	60	0	971.1	NA	0.0000	-SN	9999	4530	0	0	0
2019/04/12 17:04:00	BASE	31.33	35	36.94	36	2.4	95	1.7	62	0	971.0	NA	0.0000	-SN SQ	9999	4330	0	0	0
2019/04/12 17:05:00	BASE	29.13	37	36.94	36	2.4	95	1.7	67	0	971.5	NA	0.0000	-SN SQ	9000	4720	0	0	0
2019/04/12 17:06:00	BASE	22.31	32	36.94	36	2.4	95	1.6	71	0	971.6	NA	0.0000	-SN	9999	4490	0	0	0
2019/04/12 17:07:00	BASE	23.13	31	36.94	36	2.3	95	1.6	68	0	971.3	NA	0.0000	-SN	9999	4430	0	0	0
2019/04/12 17:08:00	BASE	26.93	37	36.94	36	2.3	95	1.6	63	0	971.3	NA	0.0000	-SN	9999	0	0	0	950
2019/04/12 17:09:00	BASE	26.02	37	36.94	36	2.3	95	1.6	59	0	971.3	NA	0.0000	-SN	9999	0	0	0	720
2019/04/12 17:10:00	BASE	26.23	36	36.94	36	2.3	95	1.6	56	0	971.4	NA	0.0000	-SN	9999	3770	0	0	0
2019/04/12 17:11:00	BASE	26.61	33	36.94	36	2.3	96	1.7	53	0	971.4	NA	0.0000	-SN	9999	4070	0	0	0
2019/04/12 17:12:00	BASE	23.95	31	36.94	36	2.3	96	1.7	49	0	971.5	NA	0.0000	-SN	9999	4000	0	0	0
2019/04/12 17:13:00	BASE	23.92	34	35.14	29	2.3	96	1.7	47	0	971.1	NA	0.0000	-SN	9999	3540	0	0	0
2019/04/12 17:14:00	BASE	28.56	36	36.73	38	2.3	96	1.7	46	0	971.1	NA	0.0000		9999	3540	0	0	0
2019/04/12 17:15:00	BASE	28.41	32	36.73	38	2.3	96	1.8	46	0	971.5	NA	0.0000		9999	3740	0	0	0
2019/04/12 17:16:00	BASE	22.24	24	36.73	38	2.3	96	1.8	46	0	971.5	NA	0.0000		9999	3810	0	0	0
2019/04/12 17:17:00	BASE	21.32	23	36.73	38	2.3	96	1.8	45	0	971.3	NA	0.0000		9999	3450	0	0	0
2019/04/12 17:18:00	BASE	27.05	32	36.73	38	2.4	96	1.9	45	0	971.1	NA	0.0000		9999	3580	0	0	0
2019/04/12 17:19:00	BASE	28.23	38	36.73	38	2.4	96	1.9	45	0	971.3	NA	0.0000		9999	3870	0	0	0
2019/04/12 17:20:00	BASE	24.18	32	36.73	38	2.5	96	1.9	45	0	971.3	NA	0.0000		9999	4100	0	0	0
2019/04/12 17:21:00	BASE	26.74	31	36.73	38	2.5	96	1.9	44	0	971.0	NA	0.0000		9999	3510	0	0	0
2019/04/12 17:22:00	BASE	30.28	36	36.73	38	2.6	95	1.9	44	0	971.2	NA	0.0000		9999	3670	0	0	0
2019/04/12 17:23:00	BASE	28.37	33	36.73	38	2.6	95	1.9	43	0	971.2	NA	0.0000	BR	9000	3220	0	0	0
2019/04/12 17:24:00	BASE	27.81	26	33.64	34	2.6	95	1.9	42	0	971.2	NA	0.0000	BR	9000	0	0	0	920
2019/04/12 17:25:00	BASE	25.95	15	33.64	34	2.7	94	1.9	41	0	971.3	NA	0.0000	BR	9000	0	0	0	4200
2019/04/12 17:26:00	BASE	23.67	13	33.64	34	2.7	94	1.8	41	0	971.5	NA	0.0000	BR	9999	0	0	0	4200
2019/04/12 17:27:00	BASE	22.79	21	33.64	34	2.8	93	1.8	40	0	971.4	NA	0.0000	BR	9999	0	0	0	4330
2019/04/12 17:28:00	BASE	26.34	30	33.80	42	2.8	93	1.7	40	0	971.0	NA	0.0000	BR	9000	4200	0	0	0
2019/04/12 17:29:00	BASE	30.06	34	33.80	42	2.8	92	1.6	40	0	971.2	NA	0.0000	BR	9000	0	0	0	4430
2019/04/12 17:30:00	BASE	27.94	33	33.80	42	2.7	92	1.6	41	0	971.4	NA	0.0000	BR	9000	0	0	0	4590
2019/04/12 17:31:00	BASE	22.73	26	33.80	42	2.7	92	1.5	42	0	971.6	NA	0.0000	BR	9000	0	0	0	4590
2019/04/12 17:32:00	BASE	19.65	23	33.80	42	2.7	92	1.5	42	0	971.6	NA	0.0000	BR	9999	3640	0	0	0
2019/04/12 17:33:00	BASE	24.99	29	33.80	42	2.7	92	1.5	42	0	971.2	NA	0.0000		9999	3380	0	0	0
2019/04/12 17:34:00	BASE	27.66	31	33.80	42	2.6	92	1.5	42	0	971.4	NA	0.0000	SQ	9999	2330	0	0	0
2019/04/12 17:35:00	BASE	24.34	29	33.80	42	2.6	92	1.5	42	0	971.6	NA	0.0000		9999	1870	0	0	0
2019/04/12 17:36:00	BASE	23.76	29	33.80	42	2.6	93	1.5	42	0	971.4	NA	0.0000		9999	3540	0	0	0
2019/04/12 17:37:00	BASE	26.91	32	33.80	42	2.6	93	1.6	42	0	971.1	NA	0.0000		9999	3770	0	0	0
2019/04/12 17:38:00	BASE	29.71	34	33.70	25	2.6	93	1.6	42	0	971.2	NA	0.0000		9999	3900	0	0	0
2019/04/12 17:39:00	BASE	30.25	34	34.11	37	2.7	93	1.6	42	0	971.1	NA	0.0000		9999	3940	0	0	0
2019/04/12 17:40:00	BASE	28.48	31	34.11	37	2.7	93	1.7	41	0	971.4	NA	0.0000		9999	4230	0	0	0
2019/04/12 17:41:00	BASE	23.93	28	34.11	37	2.7	93	1.7	41	0	971.5	NA	0.0000		9999	4170	0	0	0
2019/04/12 17:42:00	BASE	23.51	29	34.11	37	2.7	93	1.6	42	0	971.4	NA	0.0000		9999	3940	0	0	0
2019/04/12 17:43:00	BASE	26.30	32	34.11	37	2.7	92	1.6	42	0	971.2	NA	0.0000		9999	3740	0	0	0
2019/04/12 17:44:00	BASE	26.13	35	34.11	37	2.7	92	1.6	42	0	971.3	NA	0.0000		9999	3710	0	0	0
2019/04/12 17:45:00	BASE	26.06	36	34.11	37	2.7	92	1.5	42	0	971.4	NA	0.0000		9999	3900	0	0	0
2019/04/12 17:46:00	BASE	26.19	33	34.11	37	2.7	92	1.5	42	0	971.4	NA	0.0000		9999	4490	0	0	0
2019/04/12 17:47:00	BASE	25.97	32	34.11	37	2.7	92	1.5	40	0	971.3	NA	0.0000		9999	4000	4490	0	0
2019/04/12 17:48:00	BASE	27.09	34	34.11	37	2.7	92	1.5	38	0	971.2	NA	0.0000		9999	4130	0	0	0
2019/04/12 17:49:00	BASE	27.83	33	31.90	41	2.7	92	1.5	37	0	971.3	NA	0.0000		9999	4230	0	0	0
2019/04/12 17:50:00	BASE	27.28	31	31.90	41	2.6	92	1.5	35	0	971.4	NA	0.0000		9999	3940	0	0	0
2019/04/12 17:51:00	BASE	25.87	31	31.90	41	2.6	92	1.5	35	0	971.4	NA	0.0000	UP	9999	4100	0	0	0
2019/04/12 17:52:00	BASE	26.06	32	31.90	41	2.6	92	1.5	36	0	971.3	NA	0.0000	UP	9999	3840	0	0	0
2019/04/12 17:53:00	BASE	25.92	32	31.74	33	2.7	92	1.5	36	0	971.4	NA	0.0000	UP	9999	3740	0	0	0
2019/04/12 17:54:00	BASE	25.75	31	31.74	33	2.7	92	1.5	37	0	971.4	NA	0.0000	UP	9999	3510	0	0	0
2019/04/12 17:55:00	BASE	27.15	31	31.74	33	2.7	92	1.5	39	0	971.3	NA	0.0000	UP	9999	3180	0	0	0
2019/04/12 17:56:00	BASE	27.92	32	31.74	33	2.7	92	1.5	40	0	971.3	NA	0.0000	UP	9999	3280	0	0	0
2019/04/12 17:57:00	BASE	26.03	31	31.74	33	2.7	92	1.5	40	0	971.4	NA	0.0000	UP	9999	3350	0	0	0
2019/04/12 17:58:00	BASE	24.92	30	31.33	35	2.7	92	1.6	40	0	971.4	NA	0.0000	UP	9999	3710	0	0	0
2019/04/12 17:59:00	BASE	26.47	30	31.33	35	2.7	92	1.6	40	0	971.3	NA	0.0000	UP	9999	3640	0	0	0
2019/04/12 18:00:00	BASE	27.66	32	32.15	35	2.6	93	1.6	39	0	971.3	NA	0.0000	UP	9999	3310	0	0	0
2019/04/12 18:01:00	BASE	26.96	32	32.15	35	2.6	93	1.6	39	0	971.4	NA	0.0000	UP	9999	3310	0	0	0
2019/04/12 18:02:00	BASE	25.72	30	32.15	35	2.6	93	1.6	39	0	971.4	NA	0.0000	UP	9999	3380	0	0	0
2019/04/12 18:03:00	BASE	26.09	31	32.15	35	2.6	94	1.7	40	0	971.4	NA	0.0000	UP	9999	3450	0	0	0
2019/04/12 18:04:00	BASE	26.11	32	32.15	35	2.5	94	1.7	40	0	971.3	NA	0.0000	UP	9999	3640	0	0	0
2019/04/12 18:05:00	BASE	26.70	32	32.15	35	2.5	95	1.8	40	0	971.3	NA	0.0000	UP	9999	3710	0	0	0
2019/04/12 18:06:00	BASE	26.82	32	32.15	35	2.5	95	1.8	39	0	971.3	NA	0.0000	UP	9999	3580	0	0	0
2019/04/12 18:07:00	BASE	26.38	31	32.15	35	2.6	95	1.8	39	0	971.3	NA	0.0000	UP	9999	3940	0	0	0
2019/04/12 18:08:00	BASE	26.20	29	32.15	35	2.6	95	1.9	38	0	971.3	NA	0.0000	UP	9999	3740	0	0	0
2019/04/12 18:09:00	BASE	24.84	27	32.15	35	2.6	95	1.9	38	0	971.4	NA	0.0000	UP	9999	4000	0	0	0
2019/04/12 18:10:00	BASE	22.96	26	31.23	29	2.7	95	1.9	38	0	971.5	NA	0.0000	UP	9999	4040	0	0	0
2019/04/12 18:11:00	BASE	23.31	29	31.23	29	2.7	94	1.9	37	0	971.4	NA	0.0000	UP	9999	4070	0	0	0
2019/04/12 18:12:00	BASE	24.56	29	31.23	29	2.7	94	1.9	36	0	971.4	NA	0.0000	UP	9999	4000	0	0	0
2019/04/12 18:13:00	BASE	23.48	28	31.23	29	2.7	94	1.8	34	0	971.5	NA	0.0000	UP	9999	4130	0	0	0
2019/04/12 18:14:00	BASE	23.78	28	31.23	29	2.7	94	1.8	33	0	971.4	NA	0.0000	UP	9999	4000	0	0	0
2019/04/12 18:15:00	BASE	25.68	30	29.89	24	2.7	94	1.9	33	0	971.3	NA	0.0000	UP	9999	3710	0	0	0
2019/04/12 18:16:00	BASE	25.73	29	29.89	24	2.7	94	1.9	32	0	971.5	NA	0.0000		9999	3670	0	0	0
2019/04/12 18:17:00	BASE	24.31	27	29.89	24	2.8	94	1.9	32	0	971.5	NA	0.0000		9999	4000	0	0	0
2019/04/12 18:18:00	BASE	24.21	31	29.89	24	2.8	94	1.9	32	0	971.4	NA	0.0000		9999	4170	0	0	0
2019/04/12 18:19:00	BASE	25.89	33	29.89	24	2.8	94	1.9	33	0	971.3	NA	0.0000		9999	4070	0	0	0
2019/04/12 18:20:00	BASE	26.11	31	29.89	24	2.9	93	1.9	34	0	971.4	NA	0.0000		9999	3940	0	0	0
2019/04/12 18:21:00	BASE	24.01	29	29.89	24	2.9	93	1.9	35	0	971.5	NA	0.0000		9999	3900	0	0	0
2019/04/12 18:22:00	BASE	22.65	29	29.89	24	2.9	93	1.9	37	0	971.5	NA	0.0000		9999	3870	0	0	0
2019/04/12 18:23:00	BASE	24.29	30	29.89	24	2.9	93	1.9	38	0	971.4	NA	0.0000		9999	3670	0	0	0
2019/04/12 18:24:00	BASE	25.29	32	29.89	24	2.9	93	1.9	39	0	971.4	NA	0.0000		9999	3810	0	0	0
2019/04/12 18:25:00	BASE	24.59	31	29.84	29	2.9	93	1.9	40	0	971.3	NA	0.0000		9999	3740	0	0	0
2019/04/12 18:26:00	BASE	24.96	30	29.84	29	2.9	93	1.9	38	0	971.3	NA	0.0000		9999	3740	0	0	0
2019/04/12 18:27:00	BASE	25.65	31	30.15	29	2.9	93	1.9	39	0	971.3	NA	0.0000		9999	3740	0	0	0
2019/04/12 18:28:00	BASE	25.68	31	30.15	29	2.9	93	1.9	39	0	971.3	NA	0.0000		9999	3610	0	0	0
2019/04/12 18:29:00	BASE	25.42	32	30.15	29	2.9	93	1.9	39	0	971.3	NA	0.0000		9999	3580	0	0	0
2019/04/12 18:30:00	BASE	24.35	33	30.15	29	2.9	93	1.9	39	0	971.4	NA	0.0000		9999	3810	0	0	0
2019/04/12 18:31:00	BASE	23.56	32	30.15	29	2.9	93	1.9	38	0	971.4	NA	0.0000		9999	3940	0	0	0
2019/04/12 18:32:00	BASE	23.91	30	30.15	29	2.9	93	1.9	37	0	971.3	NA	0.0000		9999	4040	0	0	0
2019/04/12 18:33:00	BASE	23.44	29	30.15	29	2.9	93	1.9	36	0	971.3	NA	0.0000		9999	4070	0	0	0
2019/04/12 18:34:00	BASE	23.59	30	30.15	29	3.0	93	1.9	36	0	971.3	NA	0.0000		9999	3970	0	0	0
2019/04/12 18:35:00	BASE	23.87	32	30.15	29	3.0	93	1.9	36	0	971.3	NA	0.0000		9999	4040	0	0	0
2019/04/12 18:36:00	BASE	23.17	31	30.15	29	3.0	93	1.9	35	0	971.3	NA	0.0000		9999	3970	0	0	0
2019/04/12 18:37:00	BASE	22.89	30	29.27	36	3.0	93	1.9	33	0	971.3	NA	0.0000		9999	4040	0	0	0
2019/04/12 18:38:00	BASE	24.05	31	29.27	36	2.9	93	1.9	32	0	971.3	NA	0.0000		9999	4040	0	0	0
2019/04/12 18:39:00	BASE	24.80	30	28.35	28	2.9	93	1.9	31	0	971.3	NA	0.0000		9999	4000	0	0	0
2019/04/12 18:40:00	BASE	24.73	31	28.35	28	3.0	93	1.9	31	0	971.3	NA	0.0000		9999	4040	0	0	0
2019/04/12 18:41:00	BASE	24.24	32	28.35	28	3.0	93	2.0	30	0	971.3	NA	0.0000		9999	3510	4040	0	0
2019/04/12 18:42:00	BASE	22.47	29	28.35	28	3.0	93	2.0	30	0	971.4	NA	0.0000		9999	4000	0	0	0
2019/04/12 18:43:00	BASE	23.17	28	28.60	27	3.0	93	2.0	29	0	971.3	NA	0.0000		9999	3970	0	0	0
2019/04/12 18:44:00	BASE	24.96	28	28.60	27	3.0	93	2.0	28	0	971.3	NA	0.0000		9999	4040	0	0	0
2019/04/12 18:45:00	BASE	24.89	27	28.60	29	3.0	93	2.0	26	0	971.2	NA	0.0000		9999	4040	0	0	0
2019/04/12 18:46:00	BASE	24.91	28	28.60	29	3.0	93	2.0	25	0	971.2	NA	0.0000		9999	4070	0	0	0
2019/04/12 18:47:00	BASE	24.66	29	28.60	29	3.0	93	2.0	23	0	971.3	NA	0.0000		9999	4070	0	0	0
2019/04/12 18:48:00	BASE	25.04	30	28.60	29	3.0	93	1.9	22	0	971.2	NA	0.0000		9999	4000	0	0	0
2019/04/12 18:49:00	BASE	25.24	30	28.96	22	3.0	93	1.9	21	0	971.3	NA	0.0000		9999	3900	0	0	0
2019/04/12 18:50:00	BASE	23.90	28	28.96	22	3.0	92	1.9	21	0	971.3	NA	0.0000		9999	4000	0	0	0
2019/04/12 18:51:00	BASE	23.56	28	28.96	22	3.0	92	1.9	21	0	971.3	NA	0.0000		9999	3740	0	0	0
2019/04/12 18:52:00	BASE	24.41	32	28.96	22	3.0	92	1.9	20	0	971.3	NA	0.0000		9999	3740	0	0	0
2019/04/12 18:53:00	BASE	24.47	31	28.96	22	3.0	92	1.9	20	0	971.3	NA	0.0000		9999	3810	0	0	0
2019/04/12 18:54:00	BASE	24.15	28	28.96	22	3.0	92	1.8	20	0	971.3	NA	0.0000		9999	3970	0	0	0
2019/04/12 18:55:00	BASE	24.30	29	28.96	22	3.0	92	1.8	19	0	971.3	NA	0.0000		9999	3940	0	0	0
2019/04/12 18:56:00	BASE	25.01	30	28.96	22	3.0	92	1.8	19	0	971.2	NA	0.0000		9999	3940	0	0	0
2019/04/12 18:57:00	BASE	25.26	31	28.96	22	3.0	92	1.8	19	0	971.2	NA	0.0000		9999	3940	0	0	0
2019/04/12 18:58:00	BASE	25.17	31	28.96	22	3.0	92	1.8	19	0	971.2	NA	0.0000		9999	3810	0	0	0
2019/04/12 18:59:00	BASE	25.16	30	28.91	22	3.0	92	1.8	18	0	971.2	NA	0.0000		9999	3770	0	0	0
2019/04/12 19:00:00	BASE	24.00	31	28.91	22	3.0	92	1.8	18	0	971.3	NA	0.0000		9999	3740	0	0	0
2019/04/12 19:01:00	BASE	24.55	30	29.73	28	3.0	92	1.8	18	0	971.1	NA	0.0000	UP	9999	3710	0	0	0
2019/04/12 19:02:00	BASE	25.51	28	29.73	28	3.0	92	1.9	19	0	971.2	NA	0.0000	UP	9999	3410	0	0	0
2019/04/12 19:03:00	BASE	25.36	31	29.73	28	3.0	92	1.9	19	0	971.2	NA	0.0000	UP	9999	3310	0	0	0
2019/04/12 19:04:00	BASE	25.15	32	29.73	28	3.0	93	1.9	19	0	971.2	NA	0.0000	UP	9999	3310	0	0	0
2019/04/12 19:05:00	BASE	24.91	31	29.73	28	3.0	93	1.9	19	0	971.2	NA	0.0000	UP	9999	3250	0	0	0
2019/04/12 19:06:00	BASE	24.96	31	29.73	28	2.9	93	1.9	19	0	971.3	NA	0.0000	UP	9999	3480	0	0	0
2019/04/12 19:07:00	BASE	24.46	29	29.73	28	2.9	93	1.9	19	0	971.3	NA	0.0000	UP	9999	3180	0	0	0
2019/04/12 19:08:00	BASE	24.08	29	29.73	28	2.9	93	1.9	19	0	971.3	NA	0.0000	UP	9999	3180	0	0	0
2019/04/12 19:09:00	BASE	24.05	30	29.73	28	2.9	93	1.9	19	0	971.2	NA	0.0000	UP	9999	3180	0	0	0
2019/04/12 19:10:00	BASE	25.13	33	29.73	28	2.9	94	2.0	19	0	971.3	NA	0.0000	UP	9999	3280	0	0	0
2019/04/12 19:11:00	BASE	25.16	31	29.07	29	2.9	94	2.0	19	0	971.3	NA	0.0000	UP	9999	3250	0	0	0
2019/04/12 19:12:00	BASE	23.35	26	29.07	29	2.9	94	2.0	19	0	971.3	NA	0.0000	UP	9999	3350	0	0	0
2019/04/12 19:13:00	BASE	23.39	29	29.07	29	2.9	94	2.0	19	0	971.3	NA	0.0000	UP	9999	3250	0	0	0
2019/04/12 19:14:00	BASE	24.21	32	29.07	29	2.9	94	2.0	19	0	971.2	NA	0.0000	UP	9999	3310	0	0	0
2019/04/12 19:15:00	BASE	23.75	30	29.07	29	2.9	94	2.0	19	0	971.3	NA	0.0000	UP	9999	3350	0	0	0
2019/04/12 19:16:00	BASE	23.48	29	29.07	29	3.0	94	2.0	19	0	971.3	NA	0.0000	UP	9999	3450	0	0	0
2019/04/12 19:17:00	BASE	23.91	30	29.07	29	3.0	93	2.0	19	0	971.3	NA	0.0000	UP	9999	3510	0	0	0
2019/04/12 19:18:00	BASE	24.16	30	29.07	29	3.0	93	2.0	19	0	971.3	NA	0.0000		9999	3410	0	0	0
2019/04/12 19:19:00	BASE	23.98	31	29.07	29	3.0	93	2.0	18	0	971.4	NA	0.0000		9999	3310	0	0	0
2019/04/12 19:20:00	BASE	23.50	29	27.68	35	3.0	93	2.0	18	0	971.4	NA	0.0000		9999	3350	0	0	0
2019/04/12 19:21:00	BASE	23.06	29	27.68	35	3.0	93	2.0	17	0	971.4	NA	0.0000		9999	3380	0	0	0
2019/04/12 19:22:00	BASE	22.10	28	27.68	35	3.0	93	2.0	17	0	971.5	NA	0.0000		9999	3280	0	0	0
2019/04/12 19:23:00	BASE	21.53	28	27.68	35	3.0	93	2.0	16	0	971.5	NA	0.0000		9999	3250	0	0	0
2019/04/12 19:24:00	BASE	22.45	29	27.68	35	3.0	93	1.9	16	0	971.5	NA	0.0000		9999	2950	0	0	0
2019/04/12 19:25:00	BASE	22.82	28	27.68	35	3.0	93	1.9	15	0	971.5	NA	0.0000		9999	2920	0	0	0
2019/04/12 19:26:00	BASE	22.46	27	27.68	35	3.0	93	1.9	14	0	971.5	NA	0.0000		9999	2920	0	0	0
2019/04/12 19:27:00	BASE	22.22	27	27.68	35	3.0	93	1.9	14	0	971.5	NA	0.0000		9999	2890	0	0	0
2019/04/12 19:28:00	BASE	22.06	27	27.68	35	3.0	93	2.0	13	0	971.6	NA	0.0000		9999	2950	0	0	0
2019/04/12 19:29:00	BASE	22.88	28	27.68	35	3.0	93	2.0	13	0	971.5	NA	0.0000		9999	2950	0	0	0
2019/04/12 19:30:00	BASE	24.03	29	26.55	23	3.0	93	2.0	13	0	971.5	NA	0.0000		9999	2950	0	0	0
2019/04/12 19:31:00	BASE	22.43	28	26.55	23	3.0	93	2.0	13	0	971.6	NA	0.0000		9999	2990	0	0	0
2019/04/12 19:32:00	BASE	21.38	26	26.55	23	3.0	93	2.0	13	0	971.6	NA	0.0000		9999	3080	0	0	0
2019/04/12 19:33:00	BASE	22.13	25	26.55	23	3.0	93	2.0	14	0	971.6	NA	0.0000		9999	3080	0	0	0
2019/04/12 19:34:00	BASE	22.17	29	26.55	23	3.0	93	2.0	15	0	971.6	NA	0.0000		9999	0	0	0	3810
2019/04/12 19:35:00	BASE	21.62	29	26.55	23	3.0	94	2.1	16	0	971.6	NA	0.0000	UP	9999	0	0	0	3870
2019/04/12 19:36:00	BASE	21.70	26	26.55	23	3.0	94	2.1	16	0	971.6	NA	0.0000	UP	9999	0	0	0	3900
2019/04/12 19:37:00	BASE	22.77	26	26.44	34	3.0	94	2.1	16	0	971.5	NA	0.0000	UP	9999	3250	0	0	0
2019/04/12 19:38:00	BASE	22.17	28	26.44	34	3.0	94	2.1	16	0	971.6	NA	0.0000	UP	9999	0	0	0	4070
2019/04/12 19:39:00	BASE	21.04	27	26.44	34	3.0	94	2.1	16	0	971.6	NA	0.0000	UP	9999	3840	0	0	0
2019/04/12 19:40:00	BASE	22.00	27	26.03	33	3.0	94	2.1	16	0	971.5	NA	0.0000	UP	9999	3670	0	0	0
2019/04/12 19:41:00	BASE	21.92	27	26.03	33	3.0	94	2.1	16	0	971.6	NA	0.0000	UP	9999	3940	0	0	0
2019/04/12 19:42:00	BASE	20.67	29	25.88	25	3.0	94	2.2	15	0	971.6	NA	0.0000	UP	9999	3450	0	0	0
2019/04/12 19:43:00	BASE	19.93	30	25.88	25	3.0	95	2.2	15	0	971.6	NA	0.0000	UP	9999	0	0	0	3940
2019/04/12 19:44:00	BASE	19.98	27	25.88	25	2.9	95	2.2	14	0	971.6	NA	0.0000	UP	9999	0	0	0	4070
2019/04/12 19:45:00	BASE	21.35	28	25.88	25	2.9	95	2.2	13	0	971.6	NA	0.0000	UP	9999	0	0	0	4130
2019/04/12 19:46:00	BASE	22.14	29	25.88	25	2.9	95	2.2	12	0	971.6	NA	0.0000	UP	9999	0	0	0	3970
2019/04/12 19:47:00	BASE	22.30	28	25.88	25	2.9	95	2.2	12	0	971.6	NA	0.0000	UP	9999	0	0	0	3970
2019/04/12 19:48:00	BASE	22.32	27	25.88	25	2.9	95	2.2	12	0	971.6	NA	0.0000	UP	9999	0	0	0	3870
2019/04/12 19:49:00	BASE	21.21	26	25.88	25	2.9	95	2.2	12	0	971.7	NA	0.0000	UP	9999	2490	0	0	0
2019/04/12 19:50:00	BASE	21.00	28	25.26	21	2.9	95	2.3	11	0	971.7	NA	0.0000	UP	9999	2590	0	0	0
2019/04/12 19:51:00	BASE	21.43	28	25.26	21	3.0	95	2.3	11	0	971.6	NA	0.0000	UP	9999	2720	0	0	0
2019/04/12 19:52:00	BASE	20.67	27	25.26	21	3.0	95	2.3	12	0	971.7	NA	0.0000	UP	9999	3770	0	0	0
2019/04/12 19:53:00	BASE	19.76	26	25.26	21	3.0	95	2.2	12	0	971.7	NA	0.0000	UP	9999	0	0	0	3940
2019/04/12 19:54:00	BASE	20.01	27	25.26	21	2.9	95	2.3	12	0	971.7	NA	0.0000	UP	9999	0	0	0	3900
2019/04/12 19:55:00	BASE	20.73	30	25.26	21	2.9	95	2.3	11	0	971.7	NA	0.0000	UP	9999	0	0	0	3770
2019/04/12 19:56:00	BASE	20.21	29	25.26	21	2.9	96	2.3	11	0	971.7	NA	0.0000	UP	9999	0	0	0	3180
2019/04/12 19:57:00	BASE	20.16	28	25.26	21	2.9	96	2.3	11	0	971.7	NA	0.0000	UP	9999	2820	0	0	0
2019/04/12 19:58:00	BASE	20.06	29	24.02	31	3.0	96	2.4	10	0	971.7	NA	0.0000	UP	9999	2720	0	0	0
2019/04/12 19:59:00	BASE	19.62	28	24.02	31	3.0	96	2.4	9	0	971.7	NA	0.0000	UP	9999	0	0	0	3080
2019/04/12 20:00:00	BASE	18.98	28	23.20	32	3.0	96	2.4	8	0	971.7	NA	0.0000	UP	9999	2760	0	0	0
2019/04/12 20:01:00	BASE	18.83	26	23.20	32	3.0	96	2.4	7	0	971.6	NA	0.0000	UP	9999	2620	0	0	0
2019/04/12 20:02:00	BASE	19.32	25	23.20	32	3.0	96	2.4	7	0	971.7	NA	0.0000	UP	9999	1510	0	0	0
2019/04/12 20:03:00	BASE	18.74	26	23.20	32	3.0	96	2.4	7	0	971.7	NA	0.0000	UP	9999	1350	0	0	0
2019/04/12 20:04:00	BASE	18.62	26	23.20	32	2.9	96	2.4	7	0	971.7	NA	0.0000	UP	9999	1180	0	0	0
2019/04/12 20:05:00	BASE	19.73	26	22.58	28	2.9	97	2.4	7	0	971.6	NA	0.0000	UP	9999	0	0	0	2890
2019/04/12 20:06:00	BASE	19.86	27	22.58	28	2.9	97	2.5	7	0	971.6	NA	0.0000	UP	9999	0	0	0	3020
2019/04/12 20:07:00	BASE	19.59	26	22.48	28	2.9	97	2.5	8	0	971.5	NA	0.0000	UP	9999	0	0	0	3350
2019/04/12 20:08:00	BASE	20.45	27	22.74	35	2.9	97	2.5	8	0	971.5	NA	0.0000	UP	9999	0	0	0	3350
2019/04/12 20:09:00	BASE	21.49	29	24.28	29	2.9	98	2.6	8	0	971.5	NA	0.2540	UP	9999	0	0	0	3310
2019/04/12 20:10:00	BASE	22.62	27	25.46	20	2.9	98	2.6	8	0	971.4	NA	0.0000	UP	9999	0	0	0	3450
2019/04/12 20:11:00	BASE	22.46	26	25.46	20	2.9	98	2.6	7	0	971.5	NA	0.0000	UP	9999	0	0	0	3380
2019/04/12 20:12:00	BASE	22.79	26	27.16	28	3.0	98	2.7	7	0	971.4	NA	0.0000	UP	9999	0	0	0	3540
2019/04/12 20:13:00	BASE	23.38	28	27.16	28	3.0	98	2.7	6	0	971.4	NA	0.0000	UP	9999	0	0	0	3580
2019/04/12 20:14:00	BASE	21.51	28	27.16	28	3.0	99	2.8	6	0	971.5	NA	0.0000	UP	9999	0	0	0	3580
2019/04/12 20:15:00	BASE	21.15	25	27.16	28	3.0	99	2.8	5	0	971.5	NA	0.0000	UP	9999	0	0	0	3450
2019/04/12 20:16:00	BASE	22.57	26	27.16	28	2.9	99	2.8	5	0	971.5	NA	0.0000	UP	9999	0	0	0	3410
2019/04/12 20:17:00	BASE	22.48	26	27.16	28	2.9	99	2.8	5	0	971.6	NA	0.0000	UP	9999	0	0	0	3080
2019/04/12 20:18:00	BASE	21.33	23	27.16	28	2.8	99	2.8	5	0	971.7	NA	0.0000	UP	9999	0	0	0	2760
2019/04/12 20:19:00	BASE	21.94	22	27.16	28	2.8	100	2.7	5	0	971.6	NA	0.0000	UP	8000	920	0	0	0
2019/04/12 20:20:00	BASE	22.56	23	27.16	28	2.8	100	2.7	5	0	971.6	NA	0.0000	-SN	8000	0	0	0	2490
2019/04/12 20:21:00	BASE	22.18	21	27.16	28	2.7	100	2.7	5	0	971.6	NA	0.0000	-SN BR	6000	0	0	0	2460
2019/04/12 20:22:00	BASE	22.06	20	25.77	23	2.7	100	2.7	5	0	971.7	NA	0.0000	-SN BR	5000	0	0	0	2460
2019/04/12 20:23:00	BASE	21.88	20	25.10	34	2.7	100	2.7	5	0	971.7	NA	0.2540	-SN BR	6000	0	0	0	2560
2019/04/12 20:24:00	BASE	20.82	20	25.10	34	2.7	100	2.7	5	0	971.8	NA	0.0000	-SN BR	8000	0	0	0	2560
2019/04/12 20:25:00	BASE	20.13	21	25.10	34	2.7	100	2.7	5	0	971.8	NA	0.0000	-SN BR	8000	0	0	0	2330
2019/04/12 20:26:00	BASE	21.09	21	24.85	25	2.7	100	2.7	5	0	971.7	NA	0.0000	-SN BR	8000	0	0	0	2590
2019/04/12 20:27:00	BASE	20.92	20	24.85	25	2.6	100	2.6	5	0	971.8	NA	0.0000	-SN BR	9000	0	0	0	2560
2019/04/12 20:28:00	BASE	20.24	21	24.85	24	2.6	100	2.6	4	0	971.7	NA	0.0000	-SN BR	9000	0	0	0	2590
2019/04/12 20:29:00	BASE	21.38	23	25.88	23	2.6	100	2.6	4	0	971.7	NA	0.0000	-SN BR	7000	0	0	0	2530
2019/04/12 20:30:00	BASE	22.12	25	25.88	23	2.6	100	2.6	4	0	971.7	NA	0.0000	-SN BR	8000	850	0	0	0
2019/04/12 20:31:00	BASE	21.70	27	25.88	23	2.6	100	2.6	4	0	971.7	NA	0.0000	-SN BR	8000	850	0	0	0
2019/04/12 20:32:00	BASE	22.19	27	25.88	23	2.6	100	2.6	4	0	971.6	NA	0.0000	-SN BR	4500	1440	0	0	0
2019/04/12 20:33:00	BASE	23.10	24	25.88	23	2.6	100	2.6	4	0	971.7	NA	0.0000	-SN BR	4200	0	0	0	2490
2019/04/12 20:34:00	BASE	22.03	25	25.88	23	2.6	100	2.6	4	0	971.7	NA	0.0000	-SN BR	6000	0	0	0	2820
2019/04/12 20:35:00	BASE	21.29	27	25.88	23	2.5	100	2.5	3	0	971.7	NA	0.0000	-SN BR	5000	0	0	0	2890
2019/04/12 20:36:00	BASE	21.44	25	25.88	23	2.5	100	2.5	3	0	971.7	NA	0.2540	-SN BR	4600	0	0	0	2790
2019/04/12 20:37:00	BASE	20.93	25	25.88	23	2.5	100	2.5	3	0	971.7	NA	0.0000	-SN BR	6000	0	0	0	2920
2019/04/12 20:38:00	BASE	19.80	25	25.88	23	2.5	100	2.5	3	0	971.8	NA	0.0000	-SN BR	9000	0	0	0	2890
2019/04/12 20:39:00	BASE	19.57	25	25.57	23	2.5	100	2.5	3	0	971.7	NA	0.0000	-SN BR	9999	0	0	0	2890
2019/04/12 20:40:00	BASE	21.57	24	25.57	23	2.5	100	2.5	3	0	971.7	NA	0.0000	-SN BR	9000	0	0	0	2950
2019/04/12 20:41:00	BASE	22.51	25	25.57	23	2.5	100	2.5	3	0	971.7	NA	0.0000	-SN BR	8000	0	0	0	2950
2019/04/12 20:42:00	BASE	21.22	25	25.57	23	2.5	100	2.5	3	0	971.7	NA	0.0000	-SN BR	6000	0	0	0	2820
2019/04/12 20:43:00	BASE	20.57	27	26.85	29	2.5	100	2.5	3	0	971.7	NA	0.0000	-SN BR	6000	0	0	0	2920
2019/04/12 20:44:00	BASE	20.14	28	26.85	29	2.5	100	2.5	3	0	971.7	NA	0.0000	-SN BR	5000	0	0	0	3180
2019/04/12 20:45:00	BASE	18.93	26	26.85	29	2.5	100	2.5	2	0	971.7	NA	0.0000	-SN BR	6000	0	0	0	3120
2019/04/12 20:46:00	BASE	19.61	27	26.85	29	2.5	100	2.5	2	0	971.7	NA	0.0000	-SN BR	9999	0	0	0	2890
2019/04/12 20:47:00	BASE	19.80	29	26.85	29	2.5	100	2.5	2	0	971.7	NA	0.0000	-SN BR	7000	0	0	0	2850
2019/04/12 20:48:00	BASE	18.67	27	26.85	29	2.5	100	2.5	2	0	971.7	NA	0.0000	-SN BR	6000	0	0	0	2820
2019/04/12 20:49:00	BASE	16.86	26	26.85	29	2.5	100	2.5	2	0	971.8	NA	0.0000	-SN BR	8000	0	0	0	2890
2019/04/12 20:50:00	BASE	17.20	27	26.85	29	2.5	100	2.5	2	0	971.7	NA	0.2540	-SN BR	9999	0	0	0	2850
2019/04/12 20:51:00	BASE	19.68	27	26.85	29	2.5	100	2.5	2	0	971.7	NA	0.0000	-SN BR	9999	720	0	0	0
2019/04/12 20:52:00	BASE	20.15	27	26.85	29	2.5	100	2.5	2	0	971.7	NA	0.0000	-SN BR	9999	0	0	0	2950
2019/04/12 20:53:00	BASE	19.54	26	25.05	26	2.5	100	2.5	2	0	971.7	NA	0.0000	-SN BR	9000	0	0	0	2890
2019/04/12 20:54:00	BASE	20.75	25	25.67	23	2.5	100	2.5	2	0	971.7	NA	0.0000	-SN BR	9000	0	0	0	2660
2019/04/12 20:55:00	BASE	21.33	25	25.67	23	2.5	100	2.5	1	0	971.7	NA	0.0000	-SN BR	6000	0	0	0	2690
2019/04/12 20:56:00	BASE	20.54	25	25.67	23	2.5	100	2.5	1	0	971.7	NA	0.0000	-SN BR	7000	0	0	0	2720
2019/04/12 20:57:00	BASE	20.72	28	25.67	23	2.5	100	2.5	1	0	971.7	NA	0.0000	-SN BR	9999	0	0	0	2850
2019/04/12 20:58:00	BASE	19.98	28	25.67	23	2.6	100	2.6	1	0	971.7	NA	0.0000	-SN BR	9999	2790	0	0	0
2019/04/12 20:59:00	BASE	19.43	25	25.67	23	2.6	100	2.6	1	0	971.7	NA	0.0000	-SN BR	9999	0	0	0	3020
2019/04/12 21:00:00	BASE	18.79	25	25.67	23	2.7	100	2.7	1	0	971.7	NA	0.0000	-SN BR	9000	0	0	0	3050
2019/04/12 21:01:00	BASE	19.46	26	25.67	23	2.7	100	2.7	1	0	971.6	NA	0.0000	-SN BR	9000	0	0	0	3080
2019/04/12 21:02:00	BASE	20.34	25	25.67	23	2.7	100	2.7	1	0	971.6	NA	0.0000	-SN BR	6000	0	0	0	3020
2019/04/12 21:03:00	BASE	20.63	26	25.67	23	2.7	100	2.7	1	0	971.6	NA	0.0000	-SN BR	8000	0	0	0	3020
2019/04/12 21:04:00	BASE	21.80	26	25.36	25	2.7	100	2.7	1	0	971.5	NA	0.0000	-SN BR	9999	390	0	0	0
2019/04/12 21:05:00	BASE	22.06	25	26.19	22	2.7	100	2.7	1	0	971.5	NA	0.2540	-SN BR	8000	430	0	0	0
2019/04/12 21:06:00	BASE	23.22	28	26.34	30	2.7	100	2.7	1	0	971.4	NA	0.0000	-SN BR	7000	390	0	0	0
2019/04/12 21:07:00	BASE	23.67	28	26.34	30	2.7	100	2.7	1	0	971.5	NA	0.0000	-SN BR	6000	430	0	0	0
2019/04/12 21:08:00	BASE	22.05	24	26.34	30	2.7	100	2.7	1	0	971.5	NA	0.0000	-SN BR	6000	0	0	0	3350
2019/04/12 21:09:00	BASE	20.88	22	26.34	30	2.8	100	2.8	1	0	971.5	NA	0.0000	-SN BR	9999	0	0	0	3610
2019/04/12 21:10:00	BASE	21.45	23	26.34	30	2.8	100	2.8	1	0	971.5	NA	0.0000	-SN BR	9999	0	0	0	3480
2019/04/12 21:11:01	BASE	22.33	25	26.34	30	2.8	100	2.8	1	0	971.5	NA	0.0000	-SN BR	7000	0	0	0	3450
2019/04/12 21:12:01	BASE	22.23	23	26.34	30	2.8	100	2.8	1	0	971.5	NA	0.0000	-SN BR	8000	0	0	0	3220
2019/04/12 21:13:01	BASE	21.92	23	26.34	30	2.9	100	2.9	1	0	971.5	NA	0.0000	-SN BR	9999	0	0	0	3580
2019/04/12 21:14:01	BASE	20.89	24	26.34	30	2.9	100	2.9	1	0	971.5	NA	0.0000	-SN BR	9999	0	0	0	3670
2019/04/12 21:15:01	BASE	19.87	24	26.34	30	2.9	100	2.9	1	0	971.5	NA	0.0000	-SN BR	9999	1380	0	0	0
2019/04/12 21:16:01	BASE	19.76	28	25.46	28	2.9	100	2.9	1	0	971.5	NA	0.0000	-SN BR	9999	3280	0	0	0
2019/04/12 21:17:01	BASE	18.88	28	25.41	28	2.9	100	2.9	1	0	971.5	NA	0.0000	-SN	9999	3280	0	0	0
2019/04/12 21:18:01	BASE	19.16	24	25.41	28	2.8	100	2.8	0	0	971.5	NA	0.0000	-SN	9999	3120	0	0	0
2019/04/12 21:19:01	BASE	20.49	24	25.41	28	2.8	100	2.8	0	0	971.5	NA	0.0000	-SN	9999	430	0	0	0
2019/04/12 21:20:01	BASE	20.52	26	24.90	26	2.9	100	2.9	0	0	971.5	NA	0.0000	-SN	9999	430	0	0	0
2019/04/12 21:21:01	BASE	20.00	26	24.90	26	2.9	100	2.9	0	0	971.6	NA	0.0000	-SN	9999	430	0	0	0
2019/04/12 21:22:01	BASE	19.44	26	24.90	26	2.9	100	2.9	0	0	971.6	NA	0.0000	-SN	9999	390	0	0	0
2019/04/12 21:23:01	BASE	20.20	28	23.46	28	2.9	100	2.9	0	0	971.5	NA	0.0000	-SN	9999	0	0	0	3350
2019/04/12 21:24:01	BASE	20.36	29	22.64	26	2.9	100	2.9	0	0	971.5	NA	0.0000	-SN	9999	0	0	0	3670
2019/04/12 21:25:01	BASE	20.97	28	23.87	21	3.0	100	2.9	0	0	971.5	NA	0.0000	-SN	9999	0	0	0	3610
2019/04/12 21:26:01	BASE	22.01	25	24.59	26	3.0	100	3.0	0	0	971.5	NA	0.0000	-SN	9999	0	0	0	3580
2019/04/12 21:27:01	BASE	19.14	22	24.59	26	3.0	100	3.0	0	0	971.6	NA	0.0000	-SN	9999	2100	0	0	0
2019/04/12 21:28:01	BASE	19.01	20	25.31	27	3.1	100	3.1	0	0	971.5	NA	0.0000	-SN	9999	390	0	0	0
2019/04/12 21:29:01	BASE	21.57	19	25.31	27	3.1	100	3.1	0	0	971.5	NA	0.0000	-SN	9999	0	0	0	3450
2019/04/12 21:30:01	BASE	21.89	17	25.77	22	3.1	100	3.1	0	0	971.5	NA	0.0000	-SN	9999	0	0	0	3310
2019/04/12 21:31:01	BASE	21.10	17	25.77	22	3.1	100	3.1	0	0	971.5	NA	0.0000	-SN	9999	1350	0	0	0
2019/04/12 21:32:01	BASE	19.33	12	25.77	22	3.1	100	3.1	0	0	971.6	NA	0.0000	-SN	9999	430	0	0	0
2019/04/12 21:33:01	BASE	17.95	12	25.77	22	3.1	100	3.1	0	0	971.6	NA	0.0000	-SN	9999	0	0	0	3740
2019/04/12 21:34:01	BASE	18.34	16	25.77	22	3.1	100	3.1	0	0	971.6	NA	0.0000	-SN	9999	430	0	0	0
2019/04/12 21:35:01	BASE	18.60	11	25.77	22	3.1	100	3.1	0	0	971.6	NA	0.0000	-SN	9999	3220	0	0	0
2019/04/12 21:36:01	BASE	19.26	7	25.77	22	3.1	100	3.0	0	0	971.5	NA	0.0000	-SN	9999	2400	0	0	0
2019/04/12 21:37:01	BASE	19.98	10	25.77	22	3.1	100	3.1	0	0	971.6	NA	0.0000	-SN	9999	0	0	0	3310
2019/04/12 21:38:01	BASE	18.26	10	25.77	22	3.1	100	3.1	0	0	971.6	NA	0.0000	-SN	9999	390	0	0	0
2019/04/12 21:39:01	BASE	18.59	3	25.77	22	3.1	100	3.1	0	0	971.6	NA	0.0000	-SN	9999	460	0	0	0
2019/04/12 21:40:01	BASE	18.31	2	23.30	9	3.1	100	3.1	0	0	971.7	NA	0.0000		9999	430	3180	0	0
2019/04/12 21:41:01	BASE	17.56	7	23.30	9	3.1	100	3.1	0	0	971.7	NA	0.0000		9999	2660	0	0	0
2019/04/12 21:42:01	BASE	17.88	7	23.30	9	3.1	100	3.1	0	0	971.7	NA	0.0000		9999	430	2620	0	0
2019/04/12 21:43:01	BASE	16.97	6	23.30	9	3.0	100	3.0	0	0	971.7	NA	0.0000		9999	1940	3080	0	0
2019/04/12 21:44:01	BASE	17.13	9	22.48	360	3.0	100	3.0	0	0	971.7	NA	0.0000		9999	1970	2850	0	0
2019/04/12 21:45:01	BASE	18.16	10	22.48	360	3.0	100	3.0	0	0	971.7	NA	0.0000		9999	1900	2850	0	0
2019/04/12 21:46:01	BASE	19.18	13	22.48	360	3.0	100	3.0	0	0	971.7	NA	0.2540		9999	1800	0	0	0
2019/04/12 21:47:01	BASE	19.81	21	22.84	25	3.0	100	3.0	0	0	971.7	NA	0.0000		9999	1840	0	0	0
2019/04/12 21:48:01	BASE	20.24	22	23.77	30	3.0	100	3.0	0	0	971.6	NA	0.0000		9999	1940	0	0	0
2019/04/12 21:49:01	BASE	20.59	22	23.77	30	3.1	100	3.1	0	0	971.6	NA	0.0000		9999	1770	0	0	0
2019/04/12 21:50:01	BASE	20.70	21	23.77	30	3.0	100	3.0	0	0	971.6	NA	0.0000		9999	1840	0	0	0
2019/04/12 21:51:01	BASE	20.14	22	23.77	30	3.0	100	3.0	0	0	971.6	NA	0.0000		9999	1840	0	0	0
2019/04/12 21:52:01	BASE	19.76	27	23.77	30	3.0	100	3.0	0	0	971.6	NA	0.0000		9999	1840	0	0	0
2019/04/12 21:53:01	BASE	20.82	29	23.77	30	3.0	100	3.0	0	0	971.5	NA	0.0000		9999	1870	0	0	0
2019/04/12 21:54:01	BASE	20.63	26	23.77	30	3.0	100	3.0	0	0	971.5	NA	0.0000		9999	1800	0	0	0
2019/04/12 21:55:01	BASE	20.68	26	24.64	28	3.0	100	3.0	0	0	971.4	NA	0.0000		9999	1770	0	0	0
2019/04/12 21:56:01	BASE	22.46	27	25.62	25	3.0	100	3.0	0	0	971.4	NA	0.0000		9999	1670	0	0	0
2019/04/12 21:57:01	BASE	23.38	27	25.62	25	3.0	100	3.0	0	0	971.4	NA	0.0000		9999	1150	0	0	0
2019/04/12 21:58:01	BASE	23.29	28	25.62	25	3.0	100	3.0	0	0	971.4	NA	0.0000	-SN	9999	980	0	0	0
2019/04/12 21:59:01	BASE	21.58	29	25.62	25	3.0	100	3.0	0	0	971.4	NA	0.0000	-SN	9999	1180	0	0	0
2019/04/12 22:00:01	BASE	20.21	28	25.62	25	3.1	100	3.1	0	0	971.4	NA	0.0000	-SN	9999	1250	0	0	0
2019/04/12 22:01:01	BASE	20.76	25	25.62	25	3.1	100	3.1	0	0	971.4	NA	0.0000	-SN	9999	1380	0	0	0
2019/04/12 22:02:01	BASE	21.97	25	25.62	25	3.1	100	3.1	0	0	971.3	NA	0.0000	-SN	9999	1350	0	0	0
2019/04/12 22:03:01	BASE	22.72	25	25.62	25	3.1	100	3.1	0	0	971.3	NA	0.0000	-SN	9999	460	0	0	0
2019/04/12 22:04:01	BASE	23.09	27	25.98	31	3.1	100	3.1	0	0	971.3	NA	0.0000	-SN	9999	0	0	0	3180
2019/04/12 22:05:01	BASE	23.47	28	25.98	31	3.0	100	3.0	0	0	971.3	NA	0.0000	-SN	9999	1640	0	0	0
2019/04/12 22:06:01	BASE	23.11	25	25.98	31	3.0	100	3.0	0	0	971.3	NA	0.0000	-SN	7000	390	0	0	0
2019/04/12 22:07:01	BASE	22.50	25	25.98	31	2.9	100	2.9	0	0	971.4	NA	0.0000	-SN	6000	0	0	0	2690
2019/04/12 22:08:01	BASE	21.30	24	25.98	31	2.9	100	2.9	0	0	971.4	NA	0.0000	-SN	7000	360	0	0	0
2019/04/12 22:09:01	BASE	21.12	25	25.98	31	2.8	100	2.8	0	0	971.3	NA	0.0000	-SN BR	7000	390	0	0	0
2019/04/12 22:10:01	BASE	21.77	25	25.98	31	2.8	100	2.8	0	0	971.4	NA	0.2540	-SN BR	8000	0	0	0	2890
2019/04/12 22:11:01	BASE	21.18	22	25.98	31	2.8	100	2.8	0	0	971.4	NA	0.0000	-SN BR	7000	0	0	0	2950
2019/04/12 22:12:01	BASE	19.91	17	25.98	31	2.8	100	2.8	0	0	971.5	NA	0.0000	-SN BR	9000	430	0	0	0
2019/04/12 22:13:01	BASE	20.19	19	25.98	31	2.8	100	2.8	0	0	971.4	NA	0.0000	-SN BR	9000	1210	0	0	0
2019/04/12 22:14:01	BASE	20.29	25	24.69	22	2.8	100	2.8	0	0	971.4	NA	0.0000	-SN BR	9000	390	0	0	0
2019/04/12 22:15:01	BASE	20.22	25	24.54	28	2.9	100	2.9	0	0	971.4	NA	0.0000	-SN BR	9999	430	0	0	0
2019/04/12 22:16:01	BASE	20.69	26	24.54	28	2.9	100	2.9	0	0	971.4	NA	0.0000	-SN BR	6000	430	0	0	0
2019/04/12 22:17:01	BASE	20.54	24	24.54	28	2.9	100	2.9	0	0	971.4	NA	0.0000	-SN BR	6000	390	0	0	0
2019/04/12 22:18:01	BASE	20.79	23	24.54	28	3.0	100	3.0	0	0	971.3	NA	0.0000	-SN BR	9999	1020	0	0	0
2019/04/12 22:19:01	BASE	21.82	28	26.03	21	3.0	100	3.0	0	0	971.2	NA	0.0000	-SN BR	9999	1120	0	0	0
2019/04/12 22:20:01	BASE	22.30	27	26.03	21	3.0	100	3.0	0	0	971.2	NA	0.2540	-SN BR	8000	430	0	0	0
2019/04/12 22:21:01	BASE	22.37	24	26.03	21	3.0	100	3.0	0	0	971.2	NA	0.0000	-SN BR	6000	1250	0	0	0
2019/04/12 22:22:01	BASE	23.02	25	26.03	21	3.0	100	3.0	0	0	971.3	NA	0.0000	-SN BR	5000	360	0	0	0
2019/04/12 22:23:01	BASE	22.34	24	26.03	21	3.0	100	3.0	0	0	971.3	NA	0.0000	-SN BR	3800	0	0	0	2760
2019/04/12 22:24:01	BASE	21.50	24	26.03	21	3.0	100	3.0	0	0	971.3	NA	0.0000	-SN BR	3800	1350	0	0	0
2019/04/12 22:25:01	BASE	20.83	23	26.03	21	3.0	100	3.0	0	0	971.3	NA	0.2540	-SN BR	3900	390	0	0	0
2019/04/12 22:26:01	BASE	20.10	25	26.03	21	2.9	100	2.9	0	0	971.3	NA	0.0000	-SN BR	5000	1410	0	0	0
2019/04/12 22:27:01	BASE	20.70	27	26.03	21	2.9	100	2.9	0	0	971.2	NA	0.0000	-SN BR	7000	390	0	0	0
2019/04/12 22:28:01	BASE	20.95	27	26.03	21	2.9	100	2.9	0	0	971.2	NA	0.0000	-SN BR	8000	430	0	0	0
2019/04/12 22:29:01	BASE	20.26	25	25.77	30	2.9	100	2.9	0	0	971.2	NA	0.0000	-SN BR	9000	0	0	0	3250
2019/04/12 22:30:01	BASE	19.74	23	25.77	30	2.9	100	2.9	0	0	971.2	NA	0.0000	-SN BR	8000	0	0	0	3220
2019/04/12 22:31:01	BASE	19.46	24	25.31	25	2.9	100	2.9	0	0	971.2	NA	0.0000	-SN BR	6000	2100	0	0	0
2019/04/12 22:32:01	BASE	19.91	24	24.33	27	3.0	100	3.0	0	0	971.2	NA	0.0000	-SN BR	7000	0	0	0	3380
2019/04/12 22:33:01	BASE	20.63	24	25.21	31	3.0	100	3.0	0	0	971.2	NA	0.0000	-SN BR	9000	430	0	0	0
2019/04/12 22:34:01	BASE	22.08	26	25.21	31	3.0	100	3.0	0	0	971.1	NA	0.0000	-SN BR	9999	2130	0	0	0
2019/04/12 22:35:01	BASE	22.97	26	25.21	31	3.0	100	3.0	0	0	971.0	NA	0.0000	-SN BR	9999	2130	0	0	0
2019/04/12 22:36:01	BASE	21.86	25	25.21	31	3.0	100	3.0	0	0	971.1	NA	0.0000	-SN BR	9999	1840	0	0	0
2019/04/12 22:37:01	BASE	21.93	24	25.21	31	3.0	100	3.0	0	0	971.1	NA	0.0000	-SN BR	9999	390	0	0	0
2019/04/12 22:38:01	BASE	22.07	25	25.21	31	3.0	100	3.0	0	0	971.1	NA	0.0000	-SN BR	9999	0	0	0	4000
2019/04/12 22:39:01	BASE	20.12	25	25.21	31	3.0	100	3.0	0	0	971.2	NA	0.0000	-SN BR	9999	430	0	0	0
2019/04/12 22:40:01	BASE	20.80	23	25.21	31	3.0	100	3.0	0	0	971.1	NA	0.2540	-SN BR	9000	0	0	0	3770
2019/04/12 22:41:01	BASE	22.35	23	25.21	31	3.0	100	3.0	0	0	971.0	NA	0.0000	-SN	9000	0	0	0	3810
2019/04/12 22:42:01	BASE	21.17	24	25.21	31	3.0	100	3.0	0	0	971.1	NA	0.0000	-SN	8000	0	0	0	4270
2019/04/12 22:43:01	BASE	21.51	27	25.05	29	3.0	100	3.0	0	0	971.0	NA	0.0000	-SN	8000	0	0	0	3970
2019/04/12 22:44:01	BASE	22.53	26	25.05	29	3.0	100	3.0	0	0	971.1	NA	0.0000	-SN BR	8000	0	0	0	3840
2019/04/12 22:45:01	BASE	22.35	23	24.90	23	3.0	100	3.0	0	0	971.0	NA	0.0000	-SN BR	8000	0	0	0	4000
2019/04/12 22:46:01	BASE	23.37	23	28.24	24	3.0	100	3.0	0	0	971.0	NA	0.0000	-SN BR	9000	0	0	0	3710
2019/04/12 22:47:00	BASE	24.15	24	28.24	24	3.0	100	3.0	0	0	970.9	NA	0.0000	-SN BR	7000	0	0	0	3610
2019/04/12 22:48:01	BASE	24.11	24	28.24	24	3.0	100	3.0	0	0	971.0	NA	0.0000	-SN BR	7000	0	0	0	3610
2019/04/12 22:49:00	BASE	24.41	24	28.24	24	3.0	100	3.0	0	0	971.0	NA	0.0000	-SN BR	5000	0	0	0	3610
2019/04/12 22:50:00	BASE	23.60	24	28.24	24	3.0	100	3.0	0	0	971.1	NA	0.0000	-SN BR	5000	0	0	0	3350
2019/04/12 22:51:01	BASE	22.29	25	28.24	24	3.0	100	3.0	0	0	971.1	NA	0.0000	-SN BR	5000	0	0	0	3310
2019/04/12 22:52:00	BASE	22.32	24	28.24	24	3.0	100	3.0	0	0	971.1	NA	0.0000	-SN BR	6000	390	0	0	0
2019/04/12 22:53:00	BASE	23.63	24	28.24	24	3.0	100	3.0	0	0	971.1	NA	0.2540	-SN BR	7000	390	0	0	0
2019/04/12 22:54:00	BASE	24.30	25	28.24	24	3.0	100	3.0	0	0	971.0	NA	0.0000	-SN BR	5000	0	0	0	3020
2019/04/12 22:55:01	BASE	24.48	24	28.24	24	3.0	100	3.0	0	0	971.0	NA	0.0000	-SN BR	4000	0	0	0	3120
2019/04/12 22:56:01	BASE	24.26	24	27.27	25	3.0	100	3.0	0	0	971.0	NA	0.0000	-SN BR	3900	0	0	0	3310
2019/04/12 22:57:01	BASE	24.17	25	27.27	25	3.0	100	3.0	0	0	971.0	NA	0.0000	-SN BR	5000	0	0	0	3250
2019/04/12 22:58:01	BASE	23.29	26	27.27	25	3.0	100	3.0	0	0	971.1	NA	0.0000	-SN BR	6000	390	0	0	0
2019/04/12 22:59:01	BASE	22.94	26	28.45	27	3.0	100	3.0	0	0	971.0	NA	0.0000	-SN BR	5000	390	0	0	0
2019/04/12 23:00:01	BASE	23.38	26	28.45	27	3.0	100	3.0	0	0	971.0	NA	0.0000	-SN BR	7000	0	0	0	3220
2019/04/12 23:01:00	BASE	23.95	25	28.45	27	2.9	100	2.9	0	0	971.0	NA	0.0000	-SN BR	7000	0	0	0	3310
2019/04/12 23:02:00	BASE	23.74	26	28.45	27	2.9	100	2.9	0	0	971.0	NA	0.2540	-SN BR	4900	0	0	0	3280
2019/04/12 23:03:00	BASE	23.55	28	28.45	27	2.9	100	2.9	0	0	971.0	NA	0.0000	-SN BR	4200	0	0	0	3050
2019/04/12 23:04:00	BASE	24.55	27	28.45	27	2.9	100	2.9	0	0	971.0	NA	0.0000	-SN BR	4500	430	0	0	0
2019/04/12 23:05:00	BASE	24.09	25	28.45	27	2.9	100	2.9	0	0	971.0	NA	0.0000	-SN BR	6000	0	0	0	3220
2019/04/12 23:06:00	BASE	23.35	23	28.45	27	2.9	100	2.9	0	0	971.0	NA	0.0000	-SN BR	9999	0	0	0	3480
2019/04/12 23:07:00	BASE	22.46	22	28.45	27	2.9	100	2.9	0	0	971.1	NA	0.0000	-SN BR	9999	390	0	0	0
2019/04/12 23:08:00	BASE	22.46	20	28.45	27	2.9	100	2.9	0	0	971.1	NA	0.0000	-SN BR	9999	890	0	0	0
2019/04/12 23:09:00	BASE	22.02	21	27.21	31	2.9	100	2.9	0	0	971.1	NA	0.0000	-SN BR	9999	0	0	0	2920
2019/04/12 23:10:00	BASE	21.73	23	27.21	31	2.9	100	2.9	0	0	971.0	NA	0.0000	-SN BR	5000	0	0	0	3150
2019/04/12 23:11:00	BASE	22.88	25	27.06	35	2.9	100	2.9	0	0	971.0	NA	0.0000	-SN BR	6000	0	0	0	3180
2019/04/12 23:12:01	BASE	22.95	23	27.06	35	2.9	100	2.9	0	0	971.0	NA	0.0000	-SN BR	9999	0	0	0	3250
2019/04/12 23:13:00	BASE	22.82	20	26.85	29	2.9	100	2.9	0	0	971.0	NA	0.0000	-SN BR	8000	0	0	0	3350
2019/04/12 23:14:00	BASE	23.92	22	27.27	24	2.9	100	2.9	0	0	970.9	NA	0.0000	-SN BR	9000	0	0	0	3080
2019/04/12 23:15:00	BASE	24.03	23	27.27	24	2.9	100	2.9	0	0	970.9	NA	0.0000	-SN BR	9000	0	0	0	3050
2019/04/12 23:16:00	BASE	23.46	22	27.68	25	2.9	100	2.9	0	0	970.9	NA	0.0000	-SN BR	9000	0	0	0	3220
2019/04/12 23:17:00	BASE	24.30	23	27.68	25	2.9	100	2.9	0	0	970.9	NA	0.0000	-SN BR	9999	0	0	0	3180
2019/04/12 23:18:00	BASE	24.93	25	28.65	23	2.9	100	2.9	0	0	970.8	NA	0.0000	-SN BR	7000	0	0	0	3380
2019/04/12 23:19:00	BASE	24.87	27	28.65	23	2.9	100	2.9	0	0	970.8	NA	0.0000	-SN BR	4700	0	0	0	3380
2019/04/12 23:20:00	BASE	24.41	28	28.65	23	2.9	100	2.9	0	0	970.8	NA	0.0000	-SN BR	6000	0	0	0	3250
2019/04/12 23:21:00	BASE	23.43	27	28.65	23	2.9	100	2.9	0	0	970.9	NA	0.0000	-SN BR	6000	0	0	0	3410
2019/04/12 23:22:00	BASE	23.78	27	28.65	23	2.9	100	2.9	0	0	970.8	NA	0.0000	-SN BR	7000	0	0	0	3350
2019/04/12 23:23:00	BASE	24.12	26	28.65	23	2.9	100	2.9	0	0	970.9	NA	0.2540	-SN BR	9999	0	0	0	3580
2019/04/12 23:24:00	BASE	22.87	23	28.65	23	2.9	100	2.9	0	0	970.9	NA	0.0000	-SN BR	7000	0	0	0	3580
2019/04/12 23:25:00	BASE	23.41	23	28.65	23	2.9	100	2.9	0	0	970.8	NA	0.0000	-SN BR	8000	0	0	0	3640
2019/04/12 23:26:00	BASE	24.36	24	28.65	23	2.9	100	2.9	0	0	970.9	NA	0.0000	-SN BR	9999	0	0	0	3580
2019/04/12 23:27:00	BASE	24.06	25	28.65	23	2.9	100	2.9	0	0	970.9	NA	0.0000	-SN BR	9999	0	0	0	3180
2019/04/12 23:28:00	BASE	24.41	23	28.04	38	2.9	100	2.9	0	0	970.9	NA	0.0000	-SN BR	9999	0	0	0	2950
2019/04/12 23:29:00	BASE	24.38	22	28.04	38	2.9	100	2.8	0	0	970.9	NA	0.0000	-SN BR	9999	0	0	0	2760
2019/04/12 23:30:00	BASE	23.82	23	28.04	38	2.8	100	2.8	0	0	970.9	NA	0.0000	-SN BR	9000	0	0	0	2890
2019/04/12 23:31:00	BASE	23.52	25	28.04	38	2.8	100	2.8	0	0	970.9	NA	0.0000	-SN BR	7000	0	0	0	2920
2019/04/12 23:32:00	BASE	23.76	26	27.99	23	2.8	100	2.8	0	0	970.9	NA	0.0000	-SN BR	6000	0	0	0	3020
2019/04/12 23:33:00	BASE	24.97	24	28.96	23	2.8	100	2.8	0	0	970.9	NA	0.0000	-SN BR	5000	0	0	0	2790
2019/04/12 23:34:00	BASE	25.18	25	28.96	23	2.7	100	2.7	0	0	971.0	NA	0.0000	-SN BR	5000	690	0	0	0
2019/04/12 23:35:01	BASE	24.05	24	28.96	23	2.7	100	2.7	0	0	971.0	NA	0.0000	-SN BR	5000	0	0	0	2760
2019/04/12 23:36:00	BASE	24.72	22	29.27	27	2.7	100	2.7	0	0	970.9	NA	0.0000	-SN BR	5000	0	0	0	2620
2019/04/12 23:37:01	BASE	23.98	23	29.27	27	2.7	100	2.7	0	0	971.0	NA	0.0000	-SN BR	5000	0	0	0	2620
2019/04/12 23:38:01	BASE	23.00	23	29.27	27	2.7	100	2.7	0	0	971.0	NA	0.2540	-SN BR	5000	0	0	0	2590
2019/04/12 23:39:01	BASE	23.69	22	29.27	27	2.7	100	2.7	0	0	971.0	NA	0.0000	-SN BR	5000	360	0	0	0
2019/04/12 23:40:01	BASE	23.92	23	29.27	27	2.6	100	2.6	0	0	971.0	NA	0.0000	-SN BR	5000	0	0	0	2400
2019/04/12 23:41:01	BASE	23.75	24	29.27	27	2.6	100	2.6	0	0	971.0	NA	0.0000	-SN BR	6000	0	0	0	2400
2019/04/12 23:42:01	BASE	23.75	24	29.27	27	2.6	100	2.6	0	0	971.0	NA	0.0000	-SN BR	5000	390	0	0	0
2019/04/12 23:43:01	BASE	24.11	25	29.27	27	2.6	100	2.6	0	0	970.9	NA	0.0000	-SN BR	5000	390	0	0	0
2019/04/12 23:44:01	BASE	24.27	23	29.27	27	2.6	100	2.6	0	0	971.0	NA	0.0000	-SN BR	6000	0	0	0	2230
2019/04/12 23:45:01	BASE	24.39	21	29.27	27	2.6	100	2.6	0	0	970.9	NA	0.0000	-SN BR	6000	0	0	0	2260
2019/04/12 23:46:01	BASE	23.73	23	26.80	26	2.5	100	2.5	0	0	971.0	NA	0.0000	-SN BR	6000	360	0	0	0
2019/04/12 23:47:01	BASE	22.82	24	26.80	26	2.5	100	2.5	0	0	971.0	NA	0.0000	-SN BR	4000	0	0	0	2230
2019/04/12 23:48:01	BASE	22.27	23	26.80	26	2.5	100	2.5	0	0	971.0	NA	0.0000	-SN BR	3900	0	0	0	2360
2019/04/12 23:49:01	BASE	21.77	22	26.65	37	2.5	100	2.5	0	0	971.0	NA	0.0000	-SN BR	6000	0	0	0	2400
2019/04/12 23:50:01	BASE	21.64	23	26.65	37	2.5	100	2.5	0	0	971.0	NA	0.0000	-SN BR	9000	0	0	0	2400
2019/04/12 23:51:01	BASE	22.18	24	26.65	37	2.5	100	2.5	0	0	970.9	NA	0.2540	-SN BR	9999	0	0	0	2460
2019/04/12 23:52:01	BASE	21.58	24	26.65	37	2.5	100	2.5	0	0	971.0	NA	0.0000	-SN BR	9999	0	0	0	2920
2019/04/12 23:53:01	BASE	19.70	23	26.44	29	2.5	100	2.5	0	0	970.9	NA	0.0000	-SN BR	9999	0	0	0	3250
2019/04/12 23:54:01	BASE	20.13	23	26.44	29	2.5	100	2.5	0	0	970.9	NA	0.0000	-SN BR	9999	0	0	0	3280
2019/04/12 23:55:01	BASE	22.05	25	26.39	40	2.5	100	2.5	0	0	970.9	NA	0.0000	-SN BR	9999	0	0	0	3250
2019/04/12 23:56:01	BASE	21.57	25	26.39	40	2.5	100	2.5	0	0	970.9	NA	0.0000	-SN BR	9999	0	0	0	2760
2019/04/12 23:57:01	BASE	21.80	25	26.39	40	2.6	100	2.6	0	0	970.9	NA	0.0000	-SN BR	9000	0	0	0	2660
2019/04/12 23:58:01	BASE	22.39	26	26.44	27	2.6	100	2.6	0	0	970.9	NA	0.0000	-SN BR	7000	0	0	0	2560
2019/04/12 23:59:01	BASE	22.35	26	26.44	27	2.6	100	2.6	0	0	970.9	NA	0.0000	-SN	8000	0	0	0	2530